GFSGL_850_spd_003.txt.gz
Wind_Speed
14 15 18 16 17 18 20 21 20 21 21 22 25 22 21 24 27 23 17 19 19 18 18 18 18 18 18 19 19 20 21 21 24 24 20 19 19 20 21 20 20 20 21
13 15 17 17 18 19 19 20 19 18 18 20 23 26 24 20 19 20 20 18 19 19 19 21 22 22 22 21 21 22 22 22 23 26 23 23 22 21 21 22 22 21 22
13 15 17 17 18 16 17 18 18 18 20 20 22 22 23 23 23 22 21 22 20 21 23 24 24 24 23 22 21 21 21 21 22 24 25 24 24 23 23 23 23 24 24
16 16 18 17 14 15 16 17 18 19 21 21 21 21 20 21 22 22 18 19 23 24 24 24 23 23 23 22 21 21 21 22 23 25 27 27 26 25 25 26 26 25 25
19 19 19 15 14 16 17 18 19 20 20 19 20 20 21 21 22 21 23 23 22 24 25 26 26 25 26 29 29 29 25 24 24 26 28 28 27 25 25 24 25 23 23
20 21 19 17 16 17 17 18 20 20 20 20 22 22 21 21 24 28 30 31 27 26 26 26 27 27 26 25 23 27 31 25 24 26 28 28 26 24 22 22 22 22 23
22 22 20 18 17 17 17 19 20 21 21 22 22 21 21 21 26 30 34 35 27 26 26 26 26 26 26 25 25 26 23 24 25 25 28 28 27 25 23 23 23 22 22
24 23 21 17 19 17 18 20 21 22 22 22 22 20 21 23 27 33 36 32 25 25 25 25 25 25 25 25 21 22 24 23 22 22 24 25 24 23 23 25 25 25 24
25 22 18 20 18 18 19 21 22 23 23 22 20 21 24 26 27 30 32 27 23 24 23 22 23 24 25 28 25 23 23 23 21 24 26 28 29 29 29 26 25 22 24
21 20 19 17 18 17 19 22 22 23 23 22 22 23 26 26 24 27 27 27 24 23 22 22 23 23 23 21 22 23 23 21 20 23 22 22 20 23 24 29 28 30 30
16 15 17 18 17 18 20 21 23 23 22 20 28 26 24 21 24 24 26 25 23 26 24 23 21 21 18 17 20 23 24 26 26 23 22 22 22 24 25 23 27 28 31
13 15 17 18 16 18 20 21 22 23 19 21 23 25 22 23 20 22 25 24 25 25 22 20 19 19 24 26 24 19 19 20 17 14 16 16 17 16 18 21 22 26 29
15 16 17 16 17 18 19 21 21 18 17 19 21 23 22 22 21 22 25 24 24 20 18 21 19 19 20 11 12 14 9 7 11 12 12 13 13 14 15 18 21 23 25
18 17 17 16 16 16 17 18 16 16 16 17 19 19 21 21 20 22 24 24 22 21 18 12 16 13 9 11 11 8 7 8 9 9 11 11 10 9 12 14 15 15 18
16 15 15 13 13 16 15 14 15 14 20 23 18 17 19 20 20 23 23 23 21 19 13 13 12 12 11 11 10 9 7 8 8 9 9 10 10 8 9 10 9 10 12
14 13 12 13 12 12 12 12 16 19 21 24 22 24 26 17 20 20 20 18 17 14 10 12 13 13 14 14 13 12 11 11 10 10 9 9 10 7 9 8 8 6 8
16 12 11 11 10 9 10 12 13 13 19 21 22 26 28 26 18 17 18 14 14 12 11 12 13 15 15 15 15 14 13 14 13 10 9 10 10 8 8 6 6 6 7
16 12 11 9 8 9 10 11 10 12 14 13 18 22 24 26 20 17 16 12 11 11 11 13 14 14 13 13 14 15 15 14 13 12 11 9 9 8 9 8 7 8 6
14 10 11 8 9 11 10 10 10 11 12 14 14 14 18 17 18 18 16 11 12 12 12 12 12 12 13 13 13 13 15 15 13 11 12 12 10 9 9 9 8 8 6
11 16 9 7 8 9 10 10 9 10 11 12 13 14 15 14 13 13 13 12 10 10 11 11 11 11 12 12 12 12 14 14 15 13 12 13 12 10 10 9 10 9 7
11 13 12 9 8 9 8 8 9 10 10 11 12 18 20 13 12 11 11 11 10 10 10 10 10 10 11 11 11 12 13 12 13 14 12 12 12 12 10 10 9 8 8
11 9 10 10 9 10 10 9 9 9 10 11 11 12 19 12 11 11 10 9 10 11 10 10 9 10 11 11 12 12 12 12 12 13 12 12 13 11 10 10 9 9 9
11 9 9 10 11 11 10 10 10 11 11 11 11 11 11 11 10 9 10 10 9 10 11 10 10 10 11 11 12 12 13 14 14 14 12 12 11 11 11 10 11 10 10
11 11 10 11 12 11 10 11 11 11 12 11 12 11 11 10 10 10 10 11 9 9 10 11 10 10 10 11 11 12 12 13 13 13 11 11 11 10 9 9 8 11 10
11 10 8 9 11 12 12 11 11 11 12 13 12 12 11 11 10 10 9 10 10 9 10 10 10 10 10 10 11 11 12 12 12 12 11 9 10 10 8 8 8 8 9
11 9 9 10 11 10 12 11 11 11 12 12 13 13 12 11 10 10 10 11 11 12 11 11 10 10 11 11 11 11 12 12 12 11 11 9 9 9 9 8 8 8 8

GFSGL_850_spd_006.txt.gz
Wind_Speed
18 23 20 16 15 16 16 19 22 27 29 24 25 27 26 24 24 25 26 25 22 23 22 22 24 23 23 22 22 22 23 23 27 27 22 22 20 19 15 19 21 16 18
23 15 17 17 18 17 18 22 22 21 19 20 23 23 24 23 24 25 26 24 26 22 22 23 26 27 29 27 23 22 23 23 25 30 26 25 26 25 22 20 15 16 19
19 17 17 20 19 16 18 19 17 20 21 22 23 24 23 23 23 23 23 19 19 20 22 26 26 27 27 28 27 26 24 22 21 23 25 24 23 23 24 23 21 19 19
27 17 15 22 18 17 17 18 20 21 22 23 22 22 23 24 25 23 22 24 28 32 36 31 32 27 27 28 26 23 24 26 26 25 26 23 22 22 24 27 29 28 27
23 22 28 24 20 15 16 17 19 21 21 21 23 24 25 25 23 24 28 31 32 34 36 37 31 28 29 27 26 28 25 27 33 35 34 28 23 22 22 18 18 16 16
22 28 26 26 20 15 15 16 17 21 20 24 24 25 24 21 24 29 34 34 35 36 39 41 29 25 27 27 22 25 24 26 27 27 28 27 28 26 26 21 19 17 17
30 28 23 23 21 14 15 16 17 21 23 24 26 23 21 20 23 32 35 36 37 38 36 28 29 27 27 25 23 23 24 23 25 29 28 28 31 31 33 33 30 23 21
35 27 26 23 16 14 14 17 17 21 23 25 21 21 22 27 30 33 34 32 34 34 28 27 27 27 26 25 24 24 23 24 27 26 27 29 26 22 23 24 25 27 29
38 26 28 17 15 19 11 18 18 24 23 20 22 25 29 34 32 30 28 33 30 32 27 24 24 27 27 23 23 25 25 25 22 22 25 28 27 27 28 30 31 29 28
31 33 20 12 16 14 14 15 19 20 20 26 30 30 34 29 25 25 29 27 29 32 28 28 27 24 27 25 24 24 25 23 19 24 25 25 27 27 22 23 29 32 32
24 20 16 16 16 15 15 19 18 21 23 23 27 31 27 22 24 23 26 24 27 30 29 26 21 20 19 20 23 24 26 27 29 30 28 26 22 21 23 26 28 26 26
28 21 23 20 16 15 17 16 20 21 19 22 29 24 22 20 26 24 23 25 31 25 24 23 24 23 23 23 18 13 14 17 16 11 12 16 17 16 16 14 18 23 24
23 23 19 18 16 15 19 20 19 17 21 27 26 28 24 27 23 22 27 28 24 23 22 19 15 18 18 10 12 11 12 7 12 10 11 12 13 15 15 15 16 18 22
20 20 20 17 17 16 14 17 16 19 25 26 25 26 27 28 25 25 26 25 24 22 18 16 16 15 9 14 12 11 8 8 8 9 10 10 10 9 10 10 12 12 14
17 17 15 15 15 17 13 16 16 20 22 22 23 23 27 29 27 23 22 24 22 20 14 16 16 14 15 16 13 11 9 10 8 9 8 9 10 9 7 7 9 9 11
23 16 15 16 14 15 11 14 16 19 20 22 22 24 27 26 30 22 20 20 17 18 13 15 16 16 15 17 16 13 13 14 12 10 9 9 10 9 8 7 9 7 9
18 18 14 14 11 12 13 16 20 16 17 19 21 24 25 27 27 22 20 18 15 16 14 14 16 16 15 15 15 15 18 16 12 12 11 10 10 7 10 9 8 9 8
19 15 17 12 14 14 15 14 14 16 17 16 19 21 19 25 23 22 21 17 15 16 14 14 15 16 15 14 14 14 17 17 14 11 11 11 9 9 9 9 6 8 8
12 19 20 19 11 11 12 13 14 14 15 15 16 15 20 26 18 18 19 20 17 14 15 13 13 14 14 13 13 11 13 15 15 10 11 12 12 10 9 9 9 7 7
9 15 17 19 10 11 12 14 14 14 14 15 16 19 23 26 17 17 17 19 19 15 14 12 12 12 13 12 12 10 11 11 11 10 9 12 13 10 10 10 9 8 8
11 17 20 15 12 12 14 13 13 15 14 14 15 19 21 23 16 17 16 17 17 16 14 13 11 13 13 13 13 11 11 12 10 10 7 9 12 10 10 10 8 8 9
20 20 12 13 13 14 13 15 13 13 14 15 17 16 19 19 20 19 14 16 15 15 14 14 13 13 14 14 14 14 14 15 15 13 9 7 9 7 8 10 10 8 8
11 12 12 12 12 15 16 13 13 13 14 17 15 16 15 17 19 19 17 15 14 14 13 13 13 12 12 13 13 14 14 15 15 15 12 10 11 8 6 7 7 11 10
10 13 12 13 12 14 16 14 14 15 14 15 16 16 16 17 19 17 17 15 16 14 14 12 13 13 13 12 12 13 13 14 14 13 12 11 10 9 7 7 3 8 11
13 12 13 11 12 12 14 16 15 15 13 13 16 16 17 17 17 17 17 17 17 16 15 14 13 13 12 13 12 13 13 14 14 13 11 11 10 10 7 8 6 5 9
18 16 13 12 14 14 14 14 18 16 14 14 15 16 16 17 18 17 17 18 17 16 17 15 14 13 13 13 13 13 13 13 13 12 12 11 10 9 8 9 7 7 7

GFSGL_850_spd_009.txt.gz
Wind_Speed
27 30 30 26 20 19 24 26 27 29 28 23 21 21 22 23 23 25 25 24 23 22 19 17 19 19 21 26 29 26 27 26 25 27 23 19 18 22 20 16 18 18 10
27 32 28 25 23 27 32 26 24 22 17 16 19 24 24 23 23 22 22 23 23 20 19 22 25 31 34 28 24 26 25 24 26 29 26 24 19 17 17 14 14 14 13
29 28 29 26 23 31 30 19 17 16 20 20 17 19 22 24 26 26 25 26 24 26 31 34 34 32 32 31 27 26 28 25 23 24 27 26 23 21 23 21 17 20 18
32 33 36 36 26 25 15 13 13 17 19 19 17 19 25 25 27 25 27 29 33 34 36 34 35 36 35 33 30 26 26 28 30 30 29 30 31 30 23 22 22 17 18
29 32 36 31 25 19 29 15 16 20 15 15 19 22 23 23 26 27 29 32 34 39 39 38 38 37 28 21 21 21 21 24 25 24 27 27 28 28 26 24 21 19 16
34 37 37 27 26 30 27 16 13 14 13 17 21 20 19 22 27 30 32 34 39 34 31 37 36 27 21 21 23 24 22 23 22 22 23 24 25 24 24 26 30 27 23
31 32 27 34 37 31 16 15 20 19 13 18 17 18 21 28 25 27 35 33 30 30 33 33 31 24 21 21 24 24 24 20 20 20 20 22 22 21 23 21 21 22 22
31 30 33 32 35 22 14 14 17 13 15 16 16 21 25 24 29 30 28 30 31 30 31 31 27 26 24 24 24 24 24 26 24 22 24 27 26 26 22 21 21 22 23
26 29 34 29 25 20 19 13 10 15 14 15 20 24 27 30 27 29 30 30 27 31 28 33 27 26 21 21 23 21 22 21 19 17 16 20 21 23 24 23 25 26 29
26 29 31 28 24 22 18 12 13 10 16 19 22 24 28 28 28 26 28 28 26 29 34 29 21 17 17 19 18 20 21 20 19 20 21 21 24 26 25 25 26 24 23
27 31 27 23 19 18 14 14 14 18 19 19 22 27 26 28 26 28 26 24 29 31 27 24 22 20 20 19 21 21 19 17 17 19 20 19 16 15 15 16 20 27 30
28 28 24 21 17 16 16 17 16 17 18 22 25 29 27 25 25 25 25 25 21 23 23 20 17 20 19 18 12 11 12 12 9 8 9 9 9 10 10 11 13 15 18
33 27 21 20 13 14 13 13 16 19 21 24 26 26 26 27 26 28 24 21 21 21 19 16 17 19 13 11 13 11 10 9 8 7 8 8 9 9 9 8 9 11 14
29 24 22 18 15 15 16 20 17 18 21 24 23 23 25 26 29 30 27 23 24 21 16 16 17 11 11 14 13 10 10 9 7 8 8 7 7 6 6 5 8 7 6
24 24 19 16 17 16 14 13 15 19 22 21 20 20 24 25 29 23 23 23 21 20 16 15 17 16 14 16 16 12 12 12 9 7 6 7 7 7 5 4 7 2 6
25 21 18 17 15 13 10 14 17 18 18 16 18 20 23 24 28 24 20 19 15 18 14 14 16 17 16 15 14 15 16 15 10 9 8 8 8 8 8 6 6 6 5
17 19 19 16 15 13 15 16 21 13 13 14 16 19 23 24 28 27 18 21 16 14 14 14 15 16 16 14 13 14 17 17 10 9 9 9 9 8 7 8 5 6 3
18 17 17 18 18 17 15 12 11 14 15 15 16 18 21 22 28 22 17 19 20 16 15 13 14 15 16 14 12 12 11 12 12 9 9 10 10 9 9 8 7 6 5
15 13 16 19 18 18 11 10 13 13 12 14 14 17 20 20 24 18 19 20 21 19 17 14 12 14 15 14 11 10 11 12 11 7 9 9 9 10 10 8 7 6 6
14 13 15 15 17 18 12 12 14 13 13 13 14 17 19 20 22 21 22 20 20 17 16 15 13 14 14 14 13 12 13 14 12 6 6 8 6 9 11 10 9 8 8
13 16 18 19 19 15 11 13 14 15 14 13 14 17 18 19 20 21 23 21 20 17 15 14 15 14 13 14 14 13 14 14 14 10 5 6 6 5 7 7 7 7 8
16 19 22 23 13 12 12 13 16 13 13 14 16 17 16 17 19 21 22 21 19 17 16 13 14 14 14 14 14 14 14 14 13 11 8 8 7 3 5 5 6 7 7
17 15 13 12 12 12 13 14 16 13 13 15 14 14 16 17 18 19 21 19 19 18 17 15 14 13 12 13 14 15 15 15 15 14 12 10 10 7 5 7 5 8 8
11 12 12 13 11 12 13 13 14 15 15 14 13 13 17 17 19 19 19 19 19 19 18 15 14 14 13 12 11 13 14 14 14 13 13 11 11 9 6 7 3 7 10
15 16 15 16 14 12 13 14 14 16 16 15 14 14 15 16 17 17 19 19 18 19 16 17 16 14 13 13 12 12 12 13 14 13 12 11 10 9 8 7 7 7 9
18 19 20 21 18 16 16 17 16 15 18 16 15 15 16 16 15 16 18 17 18 19 18 19 16 14 15 14 13 11 11 12 12 12 12 11 10 8 7 8 7 7 7

GFSGL_850_spd_012.txt.gz
Wind_Speed
22 25 28 30 33 34 31 28 32 30 27 23 22 19 20 20 20 20 20 21 21 23 20 20 21 25 29 32 33 31 25 19 23 26 23 24 22 18 17 18 14 15 27
19 22 25 28 30 33 28 28 23 20 13 14 23 21 19 19 23 24 23 25 24 25 27 28 32 34 38 35 31 31 29 26 23 27 22 19 20 21 23 20 20 15 16
23 25 23 26 28 29 29 27 24 18 25 16 18 18 17 21 23 24 25 24 24 27 30 32 35 38 38 37 35 33 32 30 25 24 26 26 27 24 21 22 24 21 18
24 27 33 36 33 23 27 30 28 34 18 10 14 15 20 21 23 24 23 25 27 30 33 36 32 29 32 30 27 24 23 22 24 23 25 23 22 23 24 25 26 24 18
27 32 32 34 31 32 32 30 23 15 12 8 12 20 19 22 20 24 26 27 31 34 30 26 29 28 29 22 20 21 21 20 21 20 22 18 18 19 21 22 22 23 22
30 31 32 32 31 35 32 26 16 15 10 16 16 18 20 18 23 23 28 31 29 28 29 30 28 28 24 20 19 20 21 22 19 17 18 19 19 19 19 20 18 20 22
25 30 31 28 33 37 29 24 21 17 12 13 15 16 18 21 23 26 27 28 29 29 29 30 27 29 23 21 21 20 20 21 20 21 19 16 16 16 16 19 21 18 19
27 29 29 31 33 30 23 23 23 7 10 15 12 17 19 23 26 29 30 29 29 29 28 28 30 26 22 18 19 20 20 18 18 19 19 20 20 19 19 20 20 18 19
26 26 27 28 31 25 15 14 13 10 11 12 15 17 21 26 28 28 29 28 27 27 28 26 21 21 18 18 19 17 19 18 15 13 14 16 16 15 15 15 18 18 20
26 26 28 27 24 19 15 10 10 11 13 12 13 18 23 25 26 26 25 28 28 26 24 22 19 16 17 17 17 19 23 21 18 20 20 19 20 21 20 22 22 22 22
23 25 29 23 18 16 14 12 14 11 9 11 17 21 23 24 24 25 27 21 20 23 22 20 17 18 20 19 16 15 13 15 15 15 14 12 14 16 16 16 19 22 25
27 30 23 20 19 12 12 12 10 9 11 16 18 21 21 22 23 27 24 18 17 19 20 17 19 19 13 11 12 11 12 10 9 8 6 5 5 5 7 8 11 12 17
29 24 22 21 19 13 12 12 14 13 14 17 20 19 20 21 23 26 26 23 19 18 19 16 17 13 12 12 12 10 9 8 7 7 7 7 6 5 5 7 8 8 9
22 22 22 21 14 14 14 13 11 12 16 18 18 17 19 21 24 26 27 25 21 20 18 15 15 14 12 13 11 11 11 10 9 8 8 7 7 6 4 4 5 7 6
18 20 21 17 15 14 12 10 11 15 17 16 14 16 18 21 24 23 21 20 18 20 15 12 14 16 15 13 12 13 13 12 10 8 6 7 7 6 4 2 5 3 2
23 20 15 15 13 12 11 12 13 15 14 12 13 15 17 19 23 22 18 19 19 17 14 14 15 16 16 14 12 12 12 14 11 9 8 7 8 7 7 5 4 4 3
20 15 15 13 13 14 14 14 17 5 8 10 13 14 16 18 20 23 19 19 18 17 15 13 14 15 15 14 12 12 13 13 10 9 9 8 6 6 7 6 4 3 4
14 13 12 13 15 16 15 14 10 10 12 12 12 14 15 17 19 20 19 18 18 17 16 15 14 15 16 15 14 13 14 13 9 8 8 8 7 6 6 7 7 5 3
12 13 14 14 13 14 15 16 11 11 10 11 13 14 15 16 17 18 19 20 20 17 16 16 14 15 15 14 14 13 13 13 10 5 6 7 6 8 6 6 7 6 6
14 15 16 15 13 15 16 15 12 12 12 13 10 13 15 16 15 17 19 20 20 17 15 14 15 14 14 14 13 12 13 13 12 6 5 6 5 5 7 6 6 6 7
14 15 15 16 18 19 16 14 13 12 13 10 11 12 15 14 15 16 17 18 18 17 16 14 14 14 13 13 12 12 13 13 12 10 8 7 7 5 4 5 6 7 8
14 15 16 19 16 13 13 14 14 13 14 11 12 12 12 13 15 16 17 16 16 17 16 15 14 14 14 13 13 13 13 13 12 11 10 9 9 7 6 7 7 8 9
16 15 14 14 15 15 14 14 13 14 13 13 13 11 11 13 15 15 15 15 15 14 16 14 14 14 14 13 12 12 13 14 14 14 13 11 10 9 8 8 9 8 10
17 15 14 14 13 14 14 14 14 14 14 15 14 14 14 14 15 13 14 14 15 14 14 14 15 14 14 13 12 11 12 12 13 14 13 12 11 10 9 8 9 9 11
17 18 18 18 17 19 20 18 17 16 17 17 17 17 14 15 16 15 14 13 13 13 13 13 15 14 14 14 13 12 12 11 11 12 12 12 11 10 10 9 9 8 9
19 21 22 21 21 22 23 22 20 18 19 17 20 17 16 16 15 12 12 11 12 12 14 14 14 15 15 13 13 12 11 11 11 12 12 10 10 9 9 9 9 9 8

GFSGL_850_spd_015.txt.gz
Wind_Speed
14 17 21 20 19 24 26 28 23 18 21 31 27 19 15 19 18 18 21 23 23 24 26 25 25 27 31 32 33 36 35 30 29 31 29 28 21 20 20 22 21 18 17
17 22 21 23 28 28 26 23 22 26 28 31 28 24 16 17 17 20 22 24 26 24 26 28 31 33 35 36 37 35 33 30 30 34 31 26 23 22 22 23 20 22 20
17 20 26 31 27 24 24 30 29 27 27 25 24 20 13 15 19 22 24 26 24 26 27 33 35 34 32 31 32 32 29 25 23 26 29 28 25 22 23 22 21 21 21
21 27 31 28 27 26 28 33 29 24 23 18 16 13 12 20 21 22 22 24 26 28 33 31 29 28 30 30 31 27 23 23 21 23 23 22 22 21 22 22 23 23 24
26 29 27 27 28 29 31 33 24 19 19 19 17 14 18 19 20 19 24 26 30 31 30 28 27 27 27 25 24 24 24 23 23 20 19 20 21 20 20 19 19 20 21
28 26 25 27 28 28 31 29 21 19 21 19 17 16 15 16 19 24 27 28 28 29 29 29 29 28 26 26 24 22 22 21 22 23 21 21 17 20 19 18 19 18 17
23 22 22 22 27 28 32 22 19 15 12 8 12 15 13 21 23 25 27 26 27 28 28 28 28 25 22 22 18 18 18 18 19 22 24 22 23 14 14 16 17 19 20
22 19 22 26 28 30 26 17 15 14 14 12 10 13 20 20 24 25 26 25 27 28 25 22 22 22 21 20 20 22 18 17 17 16 16 21 22 21 22 22 21 21 22
21 24 25 25 30 26 21 18 16 13 13 10 13 17 18 22 23 23 24 28 29 24 20 21 18 18 15 21 20 20 19 21 22 21 20 18 12 15 15 16 17 16 18
24 23 25 29 23 21 20 16 14 14 12 14 14 16 20 20 20 21 24 26 24 21 21 19 15 17 20 20 16 17 18 17 14 17 16 16 21 21 20 20 19 19 20
23 26 25 20 20 20 17 13 14 12 11 11 15 17 18 18 19 21 24 23 21 21 21 20 19 19 16 16 16 16 16 18 15 15 12 9 8 13 19 21 23 25 25
27 26 21 20 20 21 15 14 11 10 11 12 14 16 15 16 17 21 22 21 19 18 21 19 20 18 15 16 16 14 13 11 9 8 9 7 6 5 7 9 11 13 14
27 21 19 19 20 16 14 14 12 10 11 13 15 14 13 15 17 20 21 22 21 19 20 17 17 17 15 13 11 11 12 11 11 10 10 10 9 8 7 8 9 11 12
26 15 17 20 17 15 14 13 11 11 11 14 14 12 13 14 17 19 21 22 23 20 18 17 16 15 13 10 10 11 13 10 11 10 9 10 9 7 4 4 6 8 8
21 18 21 21 14 12 11 9 11 13 14 14 12 12 13 14 17 18 18 21 21 21 18 15 16 15 15 12 9 12 14 12 10 11 10 9 8 7 5 4 4 4 1
22 20 17 16 12 9 10 11 13 15 15 11 11 12 12 13 16 18 18 19 19 19 18 16 16 16 16 16 15 13 13 13 10 11 10 8 7 8 8 6 5 4 3
19 19 12 13 11 11 13 13 12 11 9 10 12 11 11 13 14 15 16 18 17 16 17 16 15 16 17 15 15 15 16 13 9 8 9 8 7 6 7 7 5 3 2
18 16 13 15 14 15 14 13 13 13 12 12 10 11 11 12 13 13 15 16 15 15 15 16 15 15 16 15 16 16 16 14 9 6 7 8 8 7 7 7 6 5 4
19 18 14 15 16 13 12 13 13 14 14 12 12 12 11 12 11 12 13 15 15 14 14 14 14 14 14 14 13 13 15 15 14 8 7 8 7 7 6 7 6 7 7
19 18 16 16 14 13 15 17 14 15 15 14 14 9 11 12 11 10 12 13 13 13 13 13 13 13 13 13 13 13 13 13 12 11 9 9 8 7 7 7 8 9 9
21 19 15 15 15 16 18 17 13 14 14 13 12 12 13 12 10 11 12 12 12 12 12 12 13 13 13 12 12 12 13 13 13 12 11 10 10 8 8 8 9 9 11
25 20 17 17 16 17 15 13 15 17 18 16 14 13 14 12 12 12 12 11 11 11 11 11 11 13 13 12 12 12 12 13 12 12 12 11 11 10 10 8 9 9 10
25 18 19 16 14 14 14 15 16 16 16 17 16 15 14 15 15 14 14 12 12 11 11 11 11 12 13 13 13 13 12 12 13 12 12 12 11 10 10 10 11 10 10
20 16 16 17 16 16 16 16 15 17 18 18 18 18 18 17 17 17 15 13 12 12 11 11 11 12 12 13 14 13 13 13 12 11 12 12 11 11 10 9 9 10 9
19 17 17 20 20 21 21 21 21 20 20 21 21 21 21 21 20 18 17 15 13 12 12 11 12 12 13 13 13 13 12 12 12 12 12 12 10 10 10 10 9 9 9
21 20 21 22 24 25 25 26 24 24 23 22 24 23 22 25 20 19 17 15 13 12 12 13 12 13 13 14 13 12 11 11 11 11 11 11 9 8 9 9 9 10 10

GFSGL_850_spd_018.txt.gz
Wind_Speed
15 16 17 18 23 28 25 22 22 25 22 24 26 28 27 25 16 15 16 21 22 23 25 27 28 28 31 34 36 36 35 31 34 42 38 38 36 29 23 22 23 23 25
14 15 17 22 25 20 20 25 25 29 23 21 23 24 22 22 16 15 18 22 24 25 28 31 31 32 37 36 32 31 33 31 31 33 35 34 33 27 21 25 26 27 24
13 16 21 24 21 21 24 27 30 30 23 18 20 18 19 14 12 16 22 22 24 26 31 32 35 35 35 34 32 32 32 30 25 24 30 29 28 24 25 25 25 25 23
16 20 23 22 21 24 25 26 31 27 21 16 20 20 18 15 17 21 19 21 25 30 33 34 34 33 32 31 30 31 29 27 27 27 26 27 22 21 21 24 23 23 25
19 23 21 20 20 22 24 27 31 23 20 19 21 17 15 18 20 15 20 25 31 33 33 32 32 31 26 26 26 28 29 29 27 27 26 27 24 21 21 23 19 20 20
22 21 21 21 19 23 25 31 26 20 20 18 15 18 14 16 12 22 25 30 31 30 31 32 30 27 24 21 23 22 21 23 27 25 26 27 28 25 22 19 19 18 19
21 20 20 19 22 24 28 25 22 20 18 18 15 13 11 13 22 22 28 27 26 28 30 26 24 23 21 20 17 21 22 23 20 19 21 22 26 24 24 26 16 13 17
19 21 19 20 23 28 26 22 21 20 20 15 14 9 15 20 21 26 25 24 26 27 24 21 22 21 19 18 25 25 25 23 21 21 22 23 22 18 23 24 23 21 22
21 20 19 22 27 26 22 22 21 16 16 18 12 16 17 20 23 22 21 22 24 24 21 19 19 19 18 20 21 21 20 18 16 16 17 18 20 24 20 18 20 22 20
19 20 23 25 25 22 21 22 15 14 17 14 14 14 19 20 19 19 20 22 24 23 22 20 19 18 17 18 20 22 20 22 21 19 17 16 17 20 23 19 20 17 16
21 24 27 24 21 20 21 18 15 16 16 13 14 17 19 18 17 17 20 20 22 22 22 22 19 18 18 18 17 16 19 20 16 14 12 11 10 10 11 18 23 24 24
25 27 27 21 18 19 19 16 15 14 13 13 15 16 16 15 16 17 19 19 20 21 21 20 19 19 20 18 16 14 16 17 15 14 13 12 11 10 9 9 11 13 15
25 25 24 16 19 21 17 16 15 14 14 14 16 16 14 13 15 17 19 17 20 20 20 18 17 19 19 15 12 14 16 14 13 12 12 12 12 11 11 10 10 11 12
24 24 21 18 20 21 16 14 14 13 15 15 16 15 13 13 14 16 17 18 19 19 19 18 17 17 16 15 13 13 14 14 13 13 13 12 10 8 8 7 7 8 9
21 21 20 19 18 18 13 11 10 12 15 16 15 13 12 12 13 15 15 17 19 19 18 17 15 16 16 16 14 14 15 13 10 12 12 11 10 10 10 10 9 5 1
21 19 20 18 14 14 12 11 12 14 16 14 12 12 12 13 13 13 14 16 17 17 16 16 16 17 17 17 18 17 17 14 10 11 12 12 11 12 12 10 8 7 7
18 19 19 18 14 13 13 15 16 13 15 14 13 13 13 12 12 12 13 15 16 15 14 14 15 16 16 16 16 17 18 17 14 10 11 11 11 10 11 10 9 7 5
19 19 19 18 15 17 17 18 17 15 15 15 14 12 12 11 11 12 13 14 14 14 13 13 13 14 15 15 16 16 16 16 14 10 10 11 10 10 9 9 9 9 8
20 20 19 19 16 19 19 16 17 17 17 17 17 14 14 12 12 12 12 13 14 13 13 13 12 12 12 13 14 14 15 16 15 13 12 11 10 9 8 9 8 9 9
19 19 21 20 17 19 18 17 18 19 18 18 18 16 13 14 14 12 12 13 13 14 13 13 13 12 12 12 12 13 13 13 14 14 13 11 12 11 10 9 10 10 10
25 21 22 22 20 18 17 17 18 18 16 18 17 15 16 16 14 14 12 13 13 13 13 13 13 12 12 12 12 12 12 13 14 14 14 13 12 11 10 10 10 10 10
20 23 24 21 19 20 19 16 16 16 17 20 20 20 16 18 17 15 16 14 14 14 13 13 13 13 14 12 12 12 12 12 13 13 13 12 12 12 11 10 9 9 9
22 23 21 19 19 20 18 17 17 17 18 19 20 20 20 20 17 17 17 16 16 15 15 14 13 13 14 13 13 13 12 12 13 12 12 11 11 11 11 11 10 9 8
23 21 20 19 18 18 21 21 20 20 21 21 20 22 22 23 22 20 18 18 17 17 16 15 14 13 13 13 14 14 13 12 12 12 12 11 11 10 10 9 9 9 8
23 22 20 19 19 20 23 24 25 26 26 27 27 24 25 26 26 24 22 20 21 19 17 16 14 14 13 13 14 14 13 11 11 11 11 11 11 10 9 8 8 8 7
22 21 19 19 19 20 23 26 28 29 30 29 30 30 28 26 27 26 25 24 22 20 17 16 15 14 14 13 13 13 12 10 10 10 9 9 9 9 8 8 7 8 9

GFSGL_850_spd_021.txt.gz
Wind_Speed
4 7 9 14 20 24 20 18 21 25 27 24 20 20 20 23 21 23 20 15 17 23 23 25 25 27 27 23 24 25 24 24 31 41 32 30 30 27 26 25 25 24 22
6 9 13 18 22 21 19 19 22 27 28 25 21 18 18 20 22 21 13 13 23 24 24 26 29 28 29 25 24 24 25 25 27 35 33 28 25 25 25 24 22 21 23
9 12 16 21 21 18 16 19 25 29 28 23 19 18 21 18 18 13 14 21 22 22 26 30 32 30 27 25 25 26 24 23 23 26 33 27 26 22 21 20 20 24 23
11 16 20 19 18 18 19 23 27 29 25 21 21 19 23 17 11 15 19 20 20 26 30 32 33 31 27 25 24 24 23 22 22 24 27 26 22 21 19 18 17 17 21
15 19 20 19 21 20 21 26 28 25 22 20 20 18 16 16 13 17 15 22 25 31 31 30 31 30 26 22 19 20 21 22 22 21 24 24 22 20 19 18 18 17 20
17 21 19 20 20 20 24 26 25 22 21 19 19 19 15 11 10 16 21 25 29 28 28 29 27 23 18 20 19 16 16 23 24 24 25 22 21 20 19 17 16 14 15
20 21 20 20 19 21 24 25 22 21 20 19 18 16 13 11 17 20 24 26 25 25 27 26 21 18 18 17 18 22 22 21 22 24 24 23 22 20 19 18 17 15 14
21 21 20 19 20 23 25 22 21 21 17 15 16 15 12 17 18 23 24 23 22 23 24 21 18 18 17 17 21 20 18 20 19 17 19 21 21 20 19 21 17 17 17
21 20 19 20 22 24 24 21 20 19 12 14 15 14 15 16 22 23 22 21 21 22 21 17 17 17 17 17 19 19 20 18 17 20 19 20 20 20 20 18 19 14 16
19 19 20 22 25 25 21 20 20 16 15 16 16 16 15 20 21 20 19 20 20 21 19 19 19 17 16 18 18 18 18 19 20 18 16 14 13 14 14 15 16 15 14
18 20 22 23 25 20 18 20 17 15 14 15 14 15 18 19 19 18 18 19 18 18 20 20 18 18 18 18 16 13 17 20 19 16 15 13 13 12 11 9 11 17 18
20 21 23 24 23 18 17 20 19 16 14 14 14 16 18 19 17 17 17 18 17 18 19 20 19 19 20 18 16 15 16 18 15 14 13 12 12 12 11 10 10 12 13
21 23 24 24 21 17 19 19 18 15 15 15 16 18 18 18 16 16 17 17 17 17 18 19 19 18 19 18 16 16 17 16 13 13 14 13 13 11 10 10 8 9 11
24 24 22 22 21 19 19 17 15 14 13 14 17 19 18 16 16 16 17 17 17 17 17 18 18 16 16 15 15 14 15 14 13 13 13 12 11 12 11 12 9 5 7
23 21 20 20 20 20 15 14 14 13 13 15 18 18 16 15 14 15 16 16 17 17 17 16 16 16 16 15 15 16 16 14 10 11 12 13 12 13 13 12 11 11 7
20 18 19 17 19 18 15 15 14 15 15 15 16 13 13 15 15 15 15 14 15 16 15 15 15 15 16 16 16 16 17 17 13 10 12 13 13 13 13 12 9 9 8
18 19 18 19 18 18 16 16 17 17 18 17 17 14 16 16 15 15 15 14 15 16 15 14 14 14 15 15 15 15 16 17 16 13 12 12 12 11 11 11 11 10 8
17 17 18 19 19 19 18 18 19 21 21 18 18 16 15 15 15 15 15 16 15 16 15 14 13 13 14 14 14 14 14 15 15 15 14 13 12 12 11 11 10 11 9
18 19 21 19 19 19 19 20 21 20 20 21 19 18 17 16 16 16 17 17 16 16 16 14 14 13 13 14 14 14 14 14 14 15 15 13 13 12 11 10 10 9 10
21 21 22 20 21 22 21 21 22 20 20 21 21 20 16 15 17 17 18 18 17 16 15 14 13 13 13 13 14 14 13 13 13 13 13 13 13 12 12 10 10 10 9
20 21 19 20 23 22 22 21 22 21 20 20 19 18 18 19 18 19 19 20 19 17 15 15 13 13 12 12 13 13 13 13 13 13 13 13 12 11 11 10 9 10 9
23 23 22 21 21 21 20 20 22 19 20 20 19 18 20 23 24 21 21 21 19 20 18 17 15 14 13 12 13 13 12 12 12 12 12 12 11 11 11 10 9 9 8
25 25 24 22 20 20 21 21 24 22 21 22 21 20 20 23 24 24 22 20 20 21 20 19 17 15 14 13 13 13 12 12 12 11 11 11 11 11 10 9 9 9 8
22 22 23 22 19 19 20 20 21 24 26 26 26 26 25 25 24 26 25 24 23 21 22 21 19 16 15 14 13 13 12 11 11 11 10 10 10 10 9 8 8 8 8
20 21 22 20 20 19 19 20 22 25 26 28 29 30 29 31 30 28 27 27 26 25 23 23 21 19 16 14 13 13 12 11 10 10 10 9 9 9 8 8 7 7 7
22 20 19 20 20 20 21 21 21 22 24 25 25 26 26 26 28 30 32 28 28 27 25 24 22 20 17 15 13 12 12 11 10 9 9 9 8 8 8 7 7 7 6

GFSGL_850_spd_024.txt.gz
Wind_Speed
6 7 5 4 9 11 10 11 11 14 17 19 19 18 17 18 19 20 21 19 15 16 17 18 20 23 26 26 26 27 29 30 36 41 34 31 30 29 28 26 25 26 27
9 6 4 10 9 11 12 12 13 15 18 20 18 17 16 17 18 20 16 12 13 16 18 18 22 26 27 26 26 27 29 30 31 36 33 30 28 28 27 26 25 24 24
8 7 7 10 12 13 13 13 14 17 19 18 17 17 17 18 19 14 9 10 14 15 15 19 23 23 23 23 25 26 27 26 25 29 32 28 27 25 25 23 23 21 22
9 8 11 13 14 14 14 15 15 18 19 17 17 16 15 14 13 10 9 10 11 14 17 19 19 19 20 22 22 21 21 22 24 26 27 26 23 23 23 22 21 19 19
11 11 13 14 15 15 14 14 16 18 16 16 16 15 15 12 11 9 8 12 15 17 17 17 18 21 28 20 18 19 20 20 20 23 26 25 24 23 21 21 21 21 20
13 12 15 20 15 13 13 15 17 17 16 16 15 15 13 8 15 12 16 16 17 16 16 17 17 18 16 22 20 20 18 21 24 24 24 26 26 24 22 20 20 19 20
12 16 17 16 14 13 14 16 17 16 16 15 14 12 11 9 14 18 18 21 16 14 15 16 17 16 20 18 19 20 22 21 21 23 25 23 22 22 21 21 21 20 19
16 17 14 12 13 14 15 16 16 16 16 15 14 10 8 11 16 18 21 18 14 14 14 15 16 17 17 20 18 20 20 20 20 20 21 24 23 23 22 21 21 22 20
15 13 13 15 15 15 16 16 15 15 14 13 13 11 10 10 17 20 20 16 13 14 14 14 16 15 18 17 19 20 19 18 17 20 22 21 18 17 17 18 19 18 19
15 15 16 15 15 16 16 15 13 13 13 12 13 12 14 14 19 19 18 15 15 14 14 14 17 21 21 19 18 17 18 18 20 20 17 16 16 17 18 16 13 16 17
16 16 15 14 15 16 15 12 13 13 13 13 16 15 15 17 17 19 17 16 13 14 14 14 14 20 21 19 18 14 18 20 19 18 16 14 13 14 14 14 13 12 16
16 16 15 14 15 14 13 13 13 13 12 12 15 16 13 16 17 17 15 15 16 16 14 14 18 20 19 18 15 17 17 16 15 15 14 14 14 15 14 13 14 14 14
17 17 14 14 14 13 14 15 14 13 13 12 13 13 13 14 11 16 14 14 15 15 14 16 17 17 17 15 16 16 15 13 12 12 13 14 15 15 14 16 13 11 11
18 15 14 14 15 15 15 13 11 12 12 12 13 14 14 13 12 10 10 11 12 12 14 17 16 15 15 15 13 12 12 14 12 12 13 14 14 14 15 15 15 12 7
16 15 14 13 14 15 14 13 11 13 13 12 13 13 15 15 12 14 13 12 10 13 17 14 11 11 11 10 10 11 11 13 12 11 11 13 13 13 14 14 13 12 11
16 14 12 14 14 16 14 14 16 15 17 18 16 17 17 15 16 16 16 15 15 15 15 11 11 11 11 10 10 10 10 12 14 12 11 12 13 13 13 13 12 11 11
16 16 14 15 15 16 17 17 17 16 19 20 20 18 18 17 16 17 16 16 17 15 12 11 11 11 11 10 9 10 10 12 14 13 12 11 12 12 12 12 11 11 11
18 18 17 15 17 19 20 19 19 20 20 19 20 19 18 18 16 16 16 16 14 15 14 11 12 11 11 10 10 10 11 12 12 13 12 12 11 11 11 11 11 11 11
19 16 18 20 21 23 23 23 23 23 22 16 14 19 19 16 18 17 16 20 16 15 13 13 13 11 11 10 10 11 12 11 11 12 11 12 11 10 10 10 10 10 10
16 18 19 18 20 20 19 25 24 23 23 18 17 16 15 18 19 16 17 19 20 18 15 14 13 12 11 10 10 10 10 9 9 10 11 11 10 9 10 9 9 9 8
17 18 20 21 19 21 22 23 23 22 23 19 19 18 16 17 19 18 19 20 23 20 18 16 14 14 12 11 11 10 9 9 9 10 10 10 10 8 9 9 8 9 9
24 25 26 26 25 24 23 23 23 22 23 20 19 19 19 19 20 22 23 23 24 23 20 19 18 15 14 12 11 11 10 10 9 9 9 10 9 7 8 8 9 8 8
26 27 26 26 27 26 25 23 22 21 22 26 24 22 21 23 23 22 22 22 23 23 21 22 23 22 19 18 16 14 13 10 10 11 10 9 8 6 7 7 7 7 7
21 26 25 24 25 24 23 23 22 20 22 21 23 24 23 23 25 27 29 29 26 26 27 27 25 24 23 21 18 15 14 13 12 12 9 9 8 7 6 6 5 7 6
26 25 24 25 24 23 22 22 22 20 19 19 21 23 25 25 26 27 28 29 30 31 30 30 29 25 24 23 20 17 15 13 12 11 10 9 8 7 7 6 5 5 6
26 21 21 22 22 21 21 21 21 21 21 22 23 24 26 27 28 27 27 26 27 30 31 32 30 27 25 23 22 19 16 13 12 11 10 9 8 7 7 6 6 4 5

GFSGL_850_spd_027.txt.gz
Wind_Speed
11 6 9 6 8 7 9 9 10 11 12 14 16 17 16 17 16 17 20 22 22 20 14 15 17 17 18 22 27 28 29 30 34 38 37 34 30 29 28 28 30 31 31
8 8 4 10 9 10 11 12 13 13 14 15 17 15 16 17 18 20 20 20 14 12 12 14 16 17 22 25 25 25 27 29 31 36 36 32 29 28 29 28 28 25 28
9 4 12 12 10 11 13 14 14 15 16 17 17 16 17 16 17 15 17 12 13 13 13 14 18 21 22 20 21 23 24 25 26 28 32 30 29 27 27 26 26 26 24
5 10 14 13 12 13 14 15 15 15 16 17 16 16 17 15 15 13 11 11 11 13 15 17 19 18 18 19 22 20 20 22 23 24 26 28 26 26 26 28 25 21 23
12 14 15 14 13 13 14 15 14 15 16 16 16 17 15 14 13 12 8 8 13 16 18 17 16 19 26 25 22 20 19 20 20 22 26 27 27 27 26 27 27 25 22
14 16 13 13 13 13 14 14 15 16 16 16 17 17 16 12 17 16 13 14 14 16 16 15 15 16 16 21 19 24 23 20 23 24 26 27 27 27 24 24 24 24 26
15 14 12 12 13 13 12 14 16 17 17 17 17 16 13 12 17 15 15 17 14 13 13 14 15 14 17 17 18 21 20 21 23 25 26 25 26 25 25 26 25 24 24
14 12 11 11 12 12 13 15 16 17 17 17 16 13 12 14 18 17 16 19 12 12 13 14 14 14 16 23 25 19 19 18 19 19 22 25 27 26 22 22 23 25 26
12 10 10 10 11 12 15 16 16 17 16 16 15 13 13 14 19 19 18 17 11 13 13 13 15 15 16 22 23 20 19 18 17 21 24 25 21 19 18 23 23 20 22
9 9 9 12 13 14 15 16 16 15 15 15 14 13 13 13 19 21 18 17 14 12 12 11 16 23 23 22 22 19 18 18 21 22 20 18 17 17 19 19 20 22 18
8 12 15 13 13 14 14 14 15 15 16 15 19 18 14 17 15 20 20 17 13 13 12 11 10 21 20 20 19 17 17 24 20 17 19 16 16 15 16 17 16 19 19
14 18 12 12 13 14 14 15 15 16 17 15 19 19 14 16 18 23 19 17 16 17 13 12 14 18 18 17 17 16 18 16 17 17 15 15 15 16 17 17 22 19 18
15 12 12 13 13 14 15 16 17 16 17 15 16 15 12 12 15 18 19 18 16 14 13 14 15 16 15 15 14 17 17 14 15 15 15 15 15 17 18 18 18 17 17
12 13 13 13 13 14 15 15 17 17 16 18 14 13 13 12 13 15 18 18 17 15 11 15 19 14 14 16 15 12 13 14 14 14 16 15 16 15 16 17 18 19 23
12 13 14 14 13 15 15 16 16 17 17 16 14 14 17 19 17 19 19 16 15 15 18 18 11 11 11 11 12 12 12 12 13 13 13 15 16 16 14 15 16 16 17
14 14 15 17 17 15 17 19 17 20 19 21 19 20 21 23 21 19 21 21 20 18 17 12 10 13 12 11 11 12 11 12 13 12 13 13 14 15 16 14 14 14 14
16 16 16 14 15 18 19 21 22 18 20 20 20 19 21 23 21 19 18 19 19 19 17 11 12 13 12 11 12 11 12 12 14 12 12 12 13 13 13 14 14 14 14
18 16 17 16 19 20 21 23 24 22 24 24 22 22 22 20 19 19 18 17 18 19 16 13 13 13 13 11 11 11 12 11 10 11 11 12 12 12 12 12 12 13 13
17 16 19 22 22 21 22 23 23 21 24 25 23 20 20 19 19 18 19 20 19 19 18 15 15 15 16 14 13 15 13 11 11 11 10 11 12 11 11 12 11 12 12
19 21 24 25 22 23 24 22 22 25 25 24 24 21 21 20 20 21 19 20 20 22 24 20 17 17 17 17 16 15 11 11 11 11 11 10 10 10 10 12 11 11 11
23 26 23 26 29 27 29 26 24 26 26 25 24 24 23 22 22 21 22 22 21 22 23 22 22 21 20 20 17 15 13 11 11 11 11 8 10 8 9 9 11 10 9
28 29 30 28 27 28 28 28 26 27 26 26 25 25 24 23 24 23 22 24 24 24 24 27 25 24 23 20 17 16 15 13 11 10 9 10 8 7 8 8 9 10 9
29 28 28 24 24 26 28 29 27 25 25 24 23 22 26 26 24 24 26 25 24 24 24 25 27 25 25 24 24 21 17 15 13 12 10 9 7 7 8 6 7 8 9
28 26 28 27 26 24 26 28 27 24 23 24 23 22 22 24 25 25 26 27 28 29 28 29 28 28 28 24 25 25 21 18 16 14 11 10 8 7 6 6 6 8 8
31 30 29 27 22 23 25 26 25 23 22 21 20 20 21 22 24 26 27 27 27 27 27 29 31 32 30 27 27 25 22 20 16 14 13 10 9 9 7 5 6 4 6
33 30 32 24 22 21 22 19 17 17 18 20 21 21 22 24 25 26 27 27 27 27 27 28 28 30 31 30 27 26 25 24 18 15 13 12 10 8 6 7 7 5 4

GFSGL_850_spd_030.txt.gz
Wind_Speed
24 22 17 13 11 8 4 10 12 14 15 12 14 16 16 15 16 20 22 28 20 26 23 22 13 11 14 17 19 22 23 24 29 33 34 32 32 32 39 33 33 34 31
21 20 16 13 9 8 10 11 13 16 16 15 16 17 16 16 18 20 21 16 20 16 13 12 13 14 17 20 22 23 26 29 31 31 29 30 31 33 29 29 29 30 30
22 19 15 10 10 14 11 14 16 15 16 16 18 18 17 17 17 17 18 17 13 13 15 14 15 16 20 21 22 25 29 26 24 28 33 34 29 27 28 28 29 29 29
20 17 11 12 14 13 14 17 16 16 17 18 19 18 17 19 15 18 13 13 15 11 14 15 17 18 20 22 27 30 25 23 26 27 28 29 27 27 27 28 28 29 30
20 14 15 11 15 17 16 15 15 17 18 20 18 16 16 19 16 18 17 18 18 16 14 17 16 18 22 24 23 24 25 28 29 23 25 28 28 28 28 28 29 29 30
19 16 18 17 16 14 13 16 17 16 16 17 17 18 19 19 20 20 19 18 16 17 14 16 17 15 17 20 20 20 25 29 22 25 30 31 32 29 28 27 31 31 31
16 17 12 15 16 12 13 11 14 17 18 19 19 18 20 22 21 19 17 17 17 11 14 15 16 13 19 21 25 27 27 19 19 22 27 24 24 26 31 34 30 26 28
14 14 13 10 8 13 14 16 14 16 18 18 19 18 19 18 19 20 18 18 18 13 13 16 15 15 22 25 24 27 24 20 14 17 23 27 28 30 21 22 24 28 28
10 13 10 10 11 13 16 12 16 18 18 19 19 20 18 18 21 21 18 18 19 15 16 12 14 18 23 24 26 25 23 21 12 19 26 22 18 18 18 23 26 26 28
10 4 7 12 13 18 13 18 19 18 17 17 19 16 17 18 20 18 19 21 19 17 13 14 16 18 22 24 25 23 22 20 23 22 17 18 16 17 17 17 19 23 23
3 1 7 14 16 14 17 17 17 16 17 20 24 24 22 22 25 22 20 20 20 19 17 16 11 20 22 22 21 19 18 21 18 20 21 18 17 17 18 16 15 20 26
2 10 12 15 17 14 17 17 17 19 17 19 22 24 22 20 21 21 21 18 17 18 18 17 15 18 18 17 16 15 15 16 18 23 17 19 19 19 19 18 19 20 23
6 11 15 15 14 14 16 18 21 17 22 22 21 22 21 18 16 18 18 17 19 20 17 15 13 16 15 14 13 15 16 18 18 23 19 21 18 19 19 18 19 18 20
10 15 14 13 14 18 19 14 16 19 24 23 19 20 21 20 14 17 17 18 19 19 19 14 17 19 11 13 13 14 16 16 17 19 23 18 18 19 20 17 18 21 19
12 12 13 16 17 17 17 14 17 19 20 23 22 22 22 20 19 20 21 22 18 17 22 23 22 13 13 14 12 13 15 16 17 18 22 19 18 20 17 16 17 19 17
13 14 15 16 17 16 15 20 24 22 21 20 22 22 24 25 25 23 23 21 21 24 26 25 21 12 14 16 14 12 15 16 18 21 15 17 18 20 17 15 17 16 18
14 16 16 16 16 17 20 24 25 24 25 24 24 22 23 24 22 23 22 21 20 20 24 22 17 12 15 17 14 12 16 16 20 15 17 15 17 16 16 15 14 16 17
20 20 18 19 17 24 26 22 23 25 27 26 22 23 25 23 22 19 20 20 21 20 21 21 17 16 16 17 15 13 18 20 19 14 17 11 14 16 14 15 15 14 15
22 23 24 23 26 30 29 25 25 28 25 27 26 27 25 24 20 18 18 22 23 23 21 21 19 16 15 19 20 18 20 20 15 13 12 12 14 13 12 12 17 13 11
25 27 27 28 29 33 30 26 32 30 30 25 26 28 25 24 21 20 21 21 21 20 21 23 25 23 21 20 22 22 22 19 13 13 14 16 13 14 9 11 12 16 12
28 31 32 32 33 32 31 32 30 30 31 28 27 26 25 25 30 23 24 23 22 21 20 21 22 23 21 24 26 26 23 19 16 16 15 13 12 13 6 9 10 11 15
34 35 35 33 32 32 30 27 27 29 27 29 27 24 24 24 28 27 24 22 24 25 25 24 24 25 25 24 26 27 24 20 18 16 15 13 13 10 6 9 7 9 11
32 30 33 35 36 37 33 26 24 25 26 26 25 22 23 23 24 29 23 23 21 20 21 23 25 28 27 26 25 26 26 23 21 18 16 14 13 10 8 8 6 7 10
36 37 38 39 36 36 29 23 19 22 22 22 21 19 18 18 16 17 21 22 21 20 21 22 23 24 26 30 29 27 26 27 24 22 19 16 14 11 9 8 7 6 7
36 35 35 35 30 27 23 20 18 16 13 11 11 12 13 14 15 16 18 20 22 23 24 25 26 25 24 23 28 30 27 24 24 23 18 15 12 12 10 9 8 5 4
31 28 29 32 32 31 30 21 18 17 16 17 19 19 20 22 22 23 24 25 24 23 21 23 24 23 23 22 21 24 30 27 25 21 19 16 13 11 9 7 6 6 4

GFSGL_850_spd_033.txt.gz
Wind_Speed
27 27 25 20 17 17 17 13 7 10 19 18 18 18 18 20 15 18 21 24 26 25 25 17 14 13 11 11 15 18 21 23 28 34 35 37 38 37 39 38 30 28 27
29 29 25 19 17 15 11 8 15 13 16 18 18 19 19 18 16 21 23 25 25 23 17 17 16 14 14 18 22 25 27 24 29 36 34 34 35 33 27 26 24 24 24
31 30 23 18 15 11 13 17 13 14 16 16 17 18 20 23 17 22 23 22 25 19 17 16 15 17 20 23 24 23 26 29 26 25 32 30 25 22 23 23 25 26 26
31 27 21 16 11 16 14 12 10 19 19 17 20 24 25 19 20 23 26 24 22 19 20 17 16 18 20 21 24 27 26 27 25 28 31 26 25 24 24 28 29 30 32
33 28 20 14 15 9 13 16 20 18 18 22 23 24 22 21 23 25 27 23 20 22 19 19 18 20 23 25 23 25 27 26 29 31 27 27 28 28 27 25 30 38 38
35 25 16 17 15 15 21 20 14 19 16 20 20 22 22 24 25 26 25 24 20 19 19 18 18 22 23 21 22 24 24 28 30 26 25 26 27 24 27 32 35 31 32
24 17 16 16 15 9 11 11 14 16 21 19 22 23 25 25 23 24 24 21 20 20 19 17 18 21 20 22 22 25 23 24 22 20 20 23 27 27 31 30 23 25 28
13 13 10 12 11 7 5 9 16 18 19 23 23 24 25 26 23 24 22 21 21 20 20 18 19 21 20 22 23 23 24 22 19 14 18 25 29 25 18 20 23 27 25
17 15 10 8 7 3 4 14 17 21 24 22 20 22 25 25 21 21 23 23 21 21 20 18 19 19 21 22 22 24 24 20 17 16 15 14 13 12 13 16 19 23 26
16 14 9 6 5 6 12 12 19 24 25 16 20 21 22 23 23 24 25 24 22 21 21 20 18 19 20 20 22 24 22 18 17 15 17 15 11 13 13 14 17 20 22
11 8 2 7 10 7 13 17 20 20 18 21 23 24 26 28 26 24 22 23 22 20 19 15 18 19 19 19 21 20 17 16 16 16 21 18 16 15 15 15 14 16 21
3 10 11 6 8 15 17 15 18 20 21 26 24 24 26 25 22 21 21 20 19 18 19 17 16 18 17 17 16 13 12 14 17 18 21 21 22 17 17 17 17 16 15
17 6 6 11 15 11 12 16 21 23 24 22 23 26 27 22 22 22 21 19 20 21 20 18 17 15 13 16 11 11 12 15 18 18 21 22 22 17 19 18 15 13 13
3 7 12 12 13 15 18 21 19 17 21 22 24 28 27 23 22 22 22 20 20 22 21 20 18 17 18 16 13 13 13 15 17 18 21 23 19 18 19 14 16 16 19
11 11 12 13 15 17 17 16 14 17 22 28 28 26 27 26 24 24 23 23 23 22 21 22 22 23 23 18 14 15 14 14 17 19 21 23 19 18 18 13 14 16 17
14 14 15 16 17 17 17 18 17 23 25 22 23 25 27 26 26 25 26 25 24 24 22 23 27 27 24 19 15 16 15 14 18 20 22 20 18 17 16 14 15 14 16
17 16 18 20 20 20 20 22 27 29 28 24 21 21 21 22 21 24 27 26 23 24 26 26 26 25 23 18 15 17 16 15 19 21 24 18 16 14 13 14 16 15 14
23 25 27 26 25 25 26 27 28 31 34 33 26 20 20 21 23 23 25 25 23 26 28 27 24 19 16 18 17 17 16 19 20 22 20 14 12 14 14 11 13 16 15
23 27 28 31 32 33 35 34 35 30 31 33 31 26 22 21 22 22 23 27 26 26 25 25 23 19 16 15 16 17 19 20 20 22 16 14 14 15 14 9 11 13 14
22 23 25 30 34 36 38 38 38 31 33 30 30 29 26 24 23 24 22 30 25 23 23 21 19 18 19 19 20 19 22 22 21 24 19 15 16 16 13 9 8 12 14
34 36 35 34 34 33 35 36 35 34 30 29 29 28 22 24 22 24 25 27 25 21 23 22 21 20 18 18 19 24 26 25 24 24 19 16 17 15 12 10 7 9 13
30 33 36 37 37 40 37 37 38 38 38 28 27 24 21 20 21 23 24 24 32 24 20 23 23 23 21 20 20 22 24 25 25 25 19 16 15 14 12 10 8 9 11
31 30 31 34 34 33 35 38 37 39 33 16 20 20 18 16 17 17 19 20 28 22 21 20 19 20 19 20 21 24 24 24 22 22 20 18 16 14 14 11 9 10 8
26 27 29 31 28 32 34 33 33 21 17 16 13 15 11 8 9 10 12 12 11 14 18 18 17 18 19 19 20 20 22 25 23 21 21 20 17 14 14 13 10 10 10
27 26 26 28 30 27 25 24 27 26 14 10 11 12 13 17 21 22 24 21 19 18 15 15 19 20 19 20 21 21 19 19 24 23 21 19 18 15 15 12 11 10 8
24 24 26 27 27 25 24 22 19 15 11 4 7 10 12 15 17 18 18 18 18 19 21 23 26 26 20 23 21 18 19 18 22 26 23 20 18 16 13 13 12 10 7

GFSGL_850_spd_036.txt.gz
Wind_Speed
33 32 30 27 24 22 19 18 17 16 14 19 15 14 19 23 22 23 25 22 24 25 28 28 22 19 19 16 14 14 17 21 26 31 30 34 32 32 31 27 24 23 22
36 34 32 29 26 25 21 19 21 20 21 12 13 17 20 21 22 25 25 23 25 28 26 23 20 19 17 17 19 21 23 22 25 31 31 29 30 28 24 23 21 21 22
36 34 33 29 28 23 24 27 25 20 13 10 15 17 18 22 23 25 21 24 26 26 25 21 23 19 20 19 21 22 22 26 25 27 29 30 31 26 25 24 23 24 23
35 37 36 36 29 27 28 25 15 11 10 9 14 16 22 21 24 22 22 25 26 24 23 21 22 22 23 20 21 25 27 25 25 27 30 32 30 28 24 24 26 29 34
35 36 33 25 22 26 22 14 14 12 8 8 14 17 22 20 26 24 24 25 26 25 22 23 22 23 23 22 24 24 24 25 27 28 31 30 29 27 25 27 31 34 27
38 36 25 18 18 14 12 12 12 14 14 7 17 22 21 25 23 26 24 25 25 25 23 23 22 22 22 22 22 21 23 24 26 28 28 27 26 26 29 31 31 26 30
35 29 23 23 22 22 16 13 10 1 7 16 20 20 25 24 24 25 23 24 24 22 24 24 22 23 22 22 22 21 22 23 24 24 25 24 27 29 28 23 21 23 25
24 19 18 19 15 13 11 5 9 13 13 10 20 25 23 21 21 23 23 23 23 24 24 24 23 23 22 23 22 22 22 22 22 20 19 21 21 21 20 19 22 21 25
24 22 20 21 20 6 2 15 18 8 15 20 22 23 19 19 19 20 21 23 24 24 23 23 22 23 22 21 22 22 22 21 19 17 15 15 16 15 15 18 19 22 28
28 27 23 17 4 17 18 8 10 15 18 18 16 16 21 23 23 21 22 24 24 22 22 22 21 21 20 21 22 21 22 18 16 15 12 14 13 16 15 14 16 19 21
14 14 12 12 16 11 10 12 16 16 15 17 20 21 24 21 22 24 22 24 22 22 22 21 20 20 20 20 20 20 19 16 14 15 15 16 17 20 16 15 15 16 19
9 14 15 11 8 9 13 16 14 15 18 21 23 26 23 23 25 25 21 22 21 23 23 21 20 21 19 18 17 18 16 15 14 15 18 18 20 24 20 19 17 15 15
14 11 6 6 10 13 13 14 16 18 22 24 23 24 24 25 26 23 22 22 23 26 23 22 22 22 19 15 16 16 16 15 14 15 18 19 20 23 21 19 14 13 15
3 6 9 12 13 14 15 17 21 22 22 20 22 26 29 31 25 22 23 24 24 32 25 22 23 23 22 20 19 18 16 15 16 16 18 20 22 23 20 16 17 17 18
10 11 12 14 16 17 19 21 22 20 20 21 24 26 27 31 30 25 25 26 25 23 24 22 25 26 25 24 21 19 17 14 17 16 18 20 23 21 19 15 14 17 15
15 16 17 18 19 22 24 25 23 24 23 22 25 25 25 26 26 25 26 25 24 27 27 26 28 27 26 25 24 21 19 14 17 17 17 20 23 20 17 14 13 15 15
18 19 21 23 25 27 27 29 33 34 31 30 28 26 25 26 24 23 23 25 25 25 32 30 28 26 25 25 25 22 21 14 15 17 17 19 22 16 13 13 13 14 15
19 20 22 25 28 30 32 34 36 39 42 43 34 31 27 27 24 23 21 25 27 27 34 31 28 26 24 22 21 21 20 17 17 16 16 18 19 16 14 12 13 14 14
22 24 26 29 32 34 36 37 37 37 39 40 38 32 28 24 22 24 25 25 28 28 32 34 27 24 22 21 19 18 18 19 17 17 17 19 19 17 14 13 13 12 13
29 29 30 32 34 36 36 37 37 39 37 38 37 34 27 23 24 23 23 23 22 26 27 32 26 22 19 17 18 19 19 19 20 23 19 20 19 17 14 13 11 12 11
29 30 30 30 29 30 32 33 33 33 34 38 38 35 31 27 25 22 23 22 23 24 25 26 26 22 21 20 16 18 19 20 21 21 20 20 19 17 13 14 11 11 11
26 26 26 27 29 29 28 28 29 32 36 35 34 35 30 23 21 22 20 19 19 20 22 22 25 20 22 21 20 19 19 20 19 19 19 19 18 15 13 13 11 11 10
24 25 25 26 27 27 28 28 31 30 32 31 33 28 15 16 17 15 13 14 17 14 14 18 20 21 17 17 17 19 20 21 20 18 18 19 18 17 14 14 12 12 9
22 23 24 25 26 25 25 26 25 27 18 12 11 4 5 6 8 8 10 11 11 11 10 11 16 20 15 16 17 18 19 18 17 19 19 19 19 17 16 15 13 11 9
21 21 23 24 25 25 24 23 23 24 22 22 18 16 12 5 7 10 14 17 19 18 21 24 20 17 17 19 19 18 19 22 20 18 17 21 19 16 17 16 13 12 11
21 21 21 22 22 22 23 23 23 23 23 24 23 21 19 18 16 14 14 14 14 14 15 16 16 19 22 27 27 23 24 18 20 20 18 19 22 20 17 16 14 14 13

GFSGL_850_spd_039.txt.gz
Wind_Speed
29 31 31 31 32 30 29 30 32 31 30 31 26 19 13 13 13 16 19 20 21 19 20 22 23 23 21 21 20 18 18 19 25 30 30 30 30 30 30 27 26 25 23
32 32 31 30 29 28 28 30 30 29 24 20 17 16 11 12 16 19 19 20 20 19 20 22 23 20 21 20 19 20 22 21 22 30 32 32 31 29 30 28 25 23 22
30 31 33 32 29 28 29 27 23 24 22 19 16 13 12 13 16 18 20 20 20 20 22 21 23 20 20 20 22 21 21 22 25 27 31 32 32 30 29 27 24 23 24
27 31 32 31 31 30 26 25 27 23 20 12 9 8 8 12 17 20 23 22 21 23 22 22 22 20 20 21 20 20 21 23 22 25 29 31 31 29 27 27 31 30 30
31 34 33 33 31 28 27 27 23 23 17 13 8 4 11 21 22 21 21 19 23 21 22 21 22 21 22 21 20 20 20 21 23 25 28 30 30 28 26 28 30 29 24
33 34 34 31 29 27 26 22 18 17 14 10 15 19 17 19 21 19 19 21 21 21 23 22 22 23 23 22 22 21 21 21 23 26 28 29 27 25 27 26 24 25 28
33 33 31 28 26 26 22 20 19 11 13 20 19 17 21 20 23 24 21 18 21 22 22 22 23 23 23 21 21 22 22 21 24 26 28 25 25 23 24 26 23 22 25
27 24 24 27 27 25 22 15 7 19 15 13 16 18 21 23 20 18 16 17 20 22 23 25 23 22 21 20 22 23 22 22 23 25 23 21 19 21 21 22 23 26 29
22 24 25 24 22 17 8 13 16 13 11 13 16 21 18 16 18 18 18 17 21 24 27 26 22 22 20 20 21 21 23 22 22 21 18 17 17 17 18 22 23 24 30
20 21 22 20 13 13 15 20 11 10 13 16 18 17 19 21 20 19 18 20 23 26 24 23 21 22 20 19 20 21 23 21 21 17 15 15 15 16 18 17 19 23 26
12 8 11 15 13 19 13 10 11 15 18 19 20 20 22 23 24 22 21 24 24 24 24 22 21 21 20 19 20 21 20 20 17 16 16 14 14 16 19 18 18 20 22
5 7 12 14 11 9 11 14 16 17 18 20 23 25 24 24 24 23 24 27 23 25 25 24 23 21 22 21 20 20 18 19 18 17 16 15 16 18 20 20 21 18 17
9 7 6 6 9 13 15 16 17 19 22 25 27 27 27 24 24 26 28 24 23 25 26 26 24 24 24 24 21 19 18 18 19 20 18 15 16 19 23 22 21 18 18
4 7 9 11 13 14 16 18 22 24 26 28 29 28 28 28 27 26 26 26 25 25 27 27 27 34 24 26 23 22 21 20 20 20 18 17 17 19 23 22 21 20 21
8 10 11 13 16 18 19 22 25 26 27 30 30 31 31 32 30 27 26 25 25 26 26 29 27 24 26 27 27 25 23 22 21 20 17 17 17 19 23 20 18 18 18
12 14 16 18 20 23 26 31 30 30 30 31 33 36 38 39 35 29 28 27 25 23 25 27 28 32 30 28 27 25 23 23 21 19 17 16 16 18 21 16 16 15 17
16 19 22 24 26 29 31 33 39 42 38 38 37 37 37 36 38 33 28 28 27 24 28 29 29 31 35 30 26 25 24 22 20 20 17 14 15 17 17 17 16 16 16
19 21 25 28 30 32 34 35 36 38 43 49 45 44 41 37 34 34 30 27 30 29 29 30 31 29 29 32 24 23 22 20 19 21 18 14 14 16 16 17 16 16 16
24 26 28 29 29 30 31 32 33 34 35 36 37 38 35 35 35 31 27 25 30 31 30 29 28 28 28 27 24 22 21 19 20 21 20 16 15 17 16 16 15 14 14
25 26 28 29 29 30 31 31 31 31 33 36 38 37 36 32 35 33 28 25 25 25 25 24 25 27 25 22 21 20 20 20 20 20 19 18 17 18 17 15 14 13 13
25 26 26 26 26 27 27 28 26 27 32 34 35 36 36 34 33 34 28 24 21 22 21 23 25 24 23 20 21 21 18 19 21 22 22 17 17 18 15 14 13 11 12
23 24 24 24 25 25 25 25 25 25 26 30 32 24 23 28 30 27 25 16 17 15 20 19 18 16 17 17 20 23 21 19 18 19 18 17 17 18 17 14 13 11 11
23 23 23 23 23 24 24 24 25 26 26 27 28 30 29 22 13 7 2 8 10 15 13 14 15 13 16 14 17 15 17 19 19 18 18 17 18 17 18 15 14 12 10
23 23 23 24 23 23 23 24 24 25 26 27 27 27 27 27 24 23 16 7 6 7 12 13 13 12 12 14 14 13 12 14 16 16 17 19 19 19 19 17 15 12 9
22 22 22 23 23 24 24 24 25 25 26 26 26 26 25 24 24 23 22 20 16 12 13 15 17 17 21 18 14 16 17 15 15 18 19 19 17 19 19 18 15 14 11
21 21 22 22 22 23 24 25 25 25 26 26 26 25 25 25 24 23 23 21 19 15 14 13 13 13 14 16 18 20 22 21 20 19 19 21 20 18 21 19 17 15 12

GFSGL_850_spd_042.txt.gz
Wind_Speed
29 31 35 33 30 26 26 28 27 26 31 33 27 23 13 10 9 11 9 12 15 18 15 15 16 17 19 18 18 17 18 20 24 26 25 26 27 26 27 27 26 26 26
22 25 29 27 27 29 29 26 26 28 31 23 21 15 13 16 22 9 15 16 18 18 17 16 17 17 20 18 19 19 21 21 23 27 28 29 28 27 27 28 26 24 24
21 23 26 30 30 26 23 24 25 26 26 26 22 19 21 21 8 11 18 19 21 22 17 19 19 20 20 18 20 20 21 22 22 26 29 28 29 28 29 28 26 27 26
24 26 29 28 26 25 23 26 26 27 27 20 20 19 8 11 12 15 18 22 25 21 20 22 20 22 19 19 20 20 19 21 22 24 26 27 28 28 28 29 30 27 27
27 27 27 25 27 27 26 25 25 25 22 25 21 17 19 20 17 23 22 21 22 22 22 23 22 21 20 20 21 20 20 21 21 22 24 26 28 28 27 27 27 29 28
24 25 23 26 27 26 25 28 27 25 26 20 22 18 19 21 17 16 21 24 24 23 23 22 23 22 22 21 22 22 22 21 20 21 23 26 26 26 25 24 25 26 23
19 20 21 24 23 23 23 22 19 15 10 15 18 19 17 13 15 21 25 25 23 22 21 22 23 24 24 22 22 23 22 22 21 21 24 24 26 23 23 24 24 24 26
12 14 16 19 21 22 18 14 10 10 15 19 15 11 13 15 20 20 20 21 21 22 21 23 25 27 29 20 22 22 22 22 21 22 24 24 22 21 20 21 25 27 28
7 10 13 16 18 17 15 6 12 23 15 11 11 13 17 18 18 20 22 21 21 20 20 24 26 28 25 22 22 21 21 22 21 22 23 21 19 18 18 21 24 25 30
6 10 14 17 16 11 15 19 20 15 12 13 15 18 20 22 21 22 22 22 23 23 23 24 27 28 25 23 22 21 22 21 20 21 20 18 17 16 17 18 21 23 24
7 6 5 8 11 13 16 14 13 12 16 18 20 20 22 24 25 24 22 23 25 26 27 26 25 26 26 25 23 23 22 19 20 20 19 17 16 15 16 16 18 20 23
3 1 6 8 9 9 9 11 14 17 19 20 23 26 26 26 25 24 24 24 27 29 29 26 25 24 25 26 26 25 23 20 20 19 19 18 16 15 16 17 19 19 19
4 4 4 6 8 11 13 15 16 18 22 25 27 30 31 29 25 26 27 27 27 28 29 28 25 24 26 28 29 26 27 21 21 21 21 19 16 16 17 19 21 19 19
3 4 6 9 11 13 15 17 20 22 25 28 30 32 33 34 32 29 30 29 29 27 27 28 26 26 27 29 30 30 27 23 23 23 22 20 17 16 17 19 22 19 20
6 9 11 14 17 19 21 23 25 26 27 31 33 34 37 40 40 38 38 37 37 29 26 26 27 27 27 29 28 26 27 25 25 25 23 22 19 17 16 17 19 18 19
10 12 15 18 21 24 28 32 31 33 34 33 33 32 37 37 40 40 38 36 36 36 29 27 28 26 28 28 27 30 28 23 25 25 24 23 20 16 15 15 16 17 18
15 18 21 24 26 28 30 32 38 38 35 35 35 34 31 32 33 34 36 37 32 31 35 29 29 28 29 29 27 27 31 22 22 23 24 24 20 17 15 13 14 16 16
18 20 22 23 25 26 28 29 30 34 39 42 38 38 37 34 32 29 31 31 32 31 33 32 30 29 29 27 25 25 24 23 21 22 24 22 20 18 15 12 13 15 16
20 21 22 23 24 25 26 27 28 29 31 34 38 39 40 40 37 33 27 24 26 28 31 25 27 26 26 23 22 24 23 21 20 21 20 21 21 19 15 12 13 13 15
20 21 22 23 24 24 25 26 27 28 29 31 31 32 37 42 41 35 30 31 26 28 24 22 23 22 20 20 22 23 21 20 21 22 20 21 21 19 15 13 13 12 13
21 21 22 22 23 24 24 25 25 26 28 29 29 29 29 31 33 34 29 15 14 21 25 22 17 17 18 20 20 21 19 19 19 19 20 19 19 19 18 15 14 11 11
21 21 22 23 23 23 24 24 25 26 27 28 29 29 28 28 28 29 29 29 21 8 3 8 13 15 15 16 15 16 17 19 20 19 19 20 20 21 18 17 16 12 10
21 21 21 22 22 23 23 23 24 25 27 27 28 29 29 28 28 27 27 26 25 24 18 7 4 6 10 12 12 12 12 14 17 20 18 17 19 19 18 18 17 14 11
21 21 21 22 22 22 23 24 24 25 26 27 28 28 28 28 28 28 27 26 24 22 19 18 10 7 11 12 12 11 12 11 10 13 16 18 19 19 19 19 18 15 12
20 20 21 21 22 23 23 23 24 25 25 26 27 28 28 28 28 28 27 26 25 23 20 16 15 10 11 12 13 16 15 13 14 12 11 13 16 17 19 21 19 18 15
20 20 20 21 21 22 24 25 25 25 26 27 27 27 28 28 28 28 28 27 25 24 21 18 15 13 11 12 12 12 13 15 18 16 17 16 16 18 17 20 21 19 16

GFSGL_850_spd_045.txt.gz
Wind_Speed
21 23 25 29 31 32 34 32 29 31 33 34 38 37 32 23 16 16 16 16 11 14 16 16 14 14 17 17 17 17 15 16 20 21 19 18 26 27 24 27 28 28 28
20 18 18 20 23 24 25 27 28 27 29 32 38 34 27 22 19 21 21 18 16 15 15 18 17 17 19 19 19 19 18 18 20 23 20 19 22 24 26 27 26 26 26
19 19 20 20 22 25 27 27 25 22 26 31 31 28 22 22 19 24 27 15 17 19 19 21 21 20 22 20 20 21 21 23 24 22 23 20 21 22 22 23 23 23 22
21 20 22 23 26 25 23 18 17 19 23 27 28 28 25 21 23 28 20 19 22 23 22 24 23 23 24 21 21 21 22 24 22 21 21 21 19 18 21 20 19 18 20
14 17 19 19 17 16 14 15 16 19 22 26 23 22 18 23 26 24 24 20 21 22 23 25 25 24 24 24 23 23 23 24 20 20 21 20 19 18 18 18 19 19 20
8 10 11 11 11 12 13 16 16 18 19 15 13 15 24 23 21 19 16 19 21 24 27 27 26 25 26 26 25 25 24 23 24 20 21 21 20 19 20 17 17 18 19
5 5 5 7 9 12 13 14 15 16 16 11 15 20 20 19 15 15 17 21 25 27 26 25 25 25 25 28 28 28 27 23 24 23 23 21 21 18 17 16 16 17 20
4 2 1 4 8 10 13 15 13 7 10 15 18 16 15 12 13 17 19 21 24 25 24 24 25 25 25 27 29 34 24 23 24 24 25 24 23 23 20 16 17 18 20
6 4 3 3 8 10 12 9 10 14 18 17 13 12 15 15 17 19 21 25 26 26 25 24 23 24 27 28 30 28 28 25 24 23 25 25 23 21 18 16 16 17 21
8 7 6 4 3 3 7 11 15 16 13 11 12 15 18 22 21 21 23 27 30 29 27 26 25 26 27 26 30 31 29 26 23 22 23 23 21 19 18 17 15 16 18
11 9 7 3 4 8 9 10 8 9 12 15 17 18 20 21 24 25 26 27 28 28 28 29 29 26 25 27 29 31 31 25 24 23 22 21 19 17 16 14 14 15 17
6 3 2 3 4 3 5 7 10 13 16 18 21 24 25 25 26 27 26 25 26 29 31 32 31 28 24 25 27 30 28 27 27 27 24 23 20 18 15 15 15 17 17
2 2 1 1 4 6 9 11 14 16 20 23 26 30 32 32 33 30 28 28 28 31 35 35 33 30 27 27 29 29 29 30 32 29 26 23 20 17 17 18 18 19 20
2 1 3 5 8 10 13 16 18 20 23 25 27 29 33 33 28 26 28 30 32 34 36 35 36 31 28 29 29 30 29 31 31 33 27 22 20 19 18 18 18 15 16
2 4 7 10 13 15 17 19 20 20 21 23 23 25 29 34 33 32 34 36 32 33 33 35 34 35 33 30 29 28 26 25 29 30 30 25 23 20 20 18 18 16 14
5 8 11 14 16 18 20 20 21 21 21 21 21 23 23 25 31 34 34 34 34 32 32 32 33 33 34 29 28 26 24 24 24 31 31 26 24 22 18 17 18 16 13
10 12 15 17 18 20 21 23 24 24 24 24 24 26 26 27 29 32 34 33 29 29 28 30 30 32 32 31 26 26 23 23 21 20 27 26 25 23 21 18 16 15 13
12 14 15 17 18 19 21 22 24 25 27 26 26 26 27 29 29 31 36 32 21 19 22 24 26 27 32 29 23 22 22 21 21 20 23 25 23 23 21 20 16 14 12
13 14 16 17 18 19 21 22 23 24 26 28 29 28 30 30 30 27 27 32 31 25 20 21 26 24 27 19 20 22 20 19 20 20 23 23 21 22 23 18 16 15 13
14 16 16 17 18 19 20 22 23 24 25 27 28 30 32 33 33 32 28 26 28 28 28 21 19 16 23 19 19 17 18 18 19 21 22 22 20 21 23 20 18 15 12
15 16 17 17 18 19 20 21 22 23 25 26 27 27 28 29 29 28 28 27 26 26 26 25 20 8 4 10 14 14 14 14 16 19 21 20 19 21 22 21 19 16 14
15 16 16 17 18 18 19 20 21 22 23 25 26 26 26 25 26 27 26 27 26 25 23 22 20 19 11 8 9 10 13 13 13 17 20 19 19 19 21 21 20 20 16
15 15 16 16 17 18 19 19 20 21 22 23 24 25 26 26 26 27 26 27 26 25 23 22 20 17 16 10 3 4 8 10 10 9 15 21 18 20 21 22 20 20 18
15 15 15 16 17 17 18 19 19 20 21 22 23 24 25 26 27 27 27 27 26 25 24 22 20 18 16 15 10 5 7 9 11 11 9 12 21 19 20 20 20 19 18
14 15 16 16 17 17 17 18 19 19 21 22 23 24 25 26 27 28 28 28 27 26 25 22 20 19 17 14 12 9 8 10 10 10 11 11 13 19 22 22 22 20 20
15 15 15 16 16 17 18 18 19 20 21 23 24 25 26 27 28 28 29 29 28 27 25 23 21 19 17 15 12 11 9 9 8 11 12 13 14 14 16 19 21 25 21

GFSGL_850_spd_048.txt.gz
Wind_Speed
18 17 17 17 18 19 23 24 27 28 30 25 29 34 35 34 34 26 24 21 15 19 19 14 16 16 16 16 15 16 18 18 23 22 20 21 21 21 21 21 22 23 23
14 14 13 13 16 17 19 21 22 25 25 28 31 32 37 36 32 26 22 21 23 28 14 16 18 17 19 19 19 19 19 20 22 25 24 23 22 22 22 22 21 21 22
11 13 15 17 18 19 20 22 21 20 21 22 27 29 32 29 27 25 25 20 25 19 18 18 20 20 21 23 22 22 21 22 22 24 26 23 23 22 23 22 21 21 20
11 14 16 17 16 17 17 15 15 15 16 18 22 22 22 26 25 18 18 27 27 21 22 22 23 24 25 25 24 26 23 23 23 24 25 24 23 22 21 22 22 20 21
10 11 10 9 8 9 8 8 9 12 14 15 14 15 19 21 19 23 27 29 24 25 20 22 23 26 28 28 27 26 24 23 23 25 25 24 24 23 21 21 23 21 20
3 3 2 2 1 2 3 4 5 7 7 8 12 12 15 19 23 27 26 22 20 19 21 22 23 27 29 30 31 32 32 29 27 27 27 24 25 23 21 21 21 20 22
3 2 3 2 2 2 3 4 6 7 8 7 9 13 17 22 22 20 16 17 19 20 22 22 23 22 26 27 27 29 33 35 35 31 28 25 25 22 22 21 20 20 22
8 8 7 5 4 4 3 4 4 3 5 10 12 16 15 14 12 12 16 21 21 21 22 23 24 24 23 25 24 26 27 27 28 28 29 25 23 21 20 19 19 20 20
10 11 10 9 7 7 4 2 3 6 9 12 7 7 8 10 16 16 20 23 21 24 24 25 26 25 24 28 28 29 29 30 30 29 32 27 28 28 27 22 19 18 21
13 13 12 11 9 7 2 4 8 9 4 4 6 8 13 16 18 19 20 24 26 28 28 28 29 30 29 30 31 32 32 31 26 27 24 25 26 26 25 24 18 19 19
14 12 10 7 3 2 4 4 2 3 7 10 13 14 16 18 19 22 22 25 27 28 29 29 28 29 33 30 31 34 36 30 27 30 25 21 18 18 18 18 17 18 19
9 7 5 4 3 1 0 3 6 7 10 11 13 15 13 15 18 21 25 25 27 31 34 33 33 33 35 36 32 34 34 31 29 30 28 23 21 19 18 18 19 20 19
7 7 6 4 2 1 2 5 5 6 8 10 11 13 14 17 17 20 23 28 30 33 35 35 39 40 39 35 39 36 32 32 31 33 30 29 24 20 17 17 18 20 20
10 8 5 3 0 3 4 5 6 9 12 13 13 13 15 17 16 20 28 31 34 36 34 33 36 36 38 39 32 32 33 32 32 32 33 29 23 20 18 18 18 17 17
7 5 2 1 2 3 5 8 9 12 13 14 15 17 19 19 19 24 26 29 32 35 37 38 33 33 34 32 32 29 33 31 29 28 27 30 27 21 21 17 18 16 17
5 3 1 3 5 5 5 5 13 11 12 14 16 17 18 21 23 25 26 28 30 31 26 24 28 31 30 30 30 30 31 28 24 23 24 26 29 25 21 17 17 17 16
2 1 3 4 5 6 7 7 6 10 17 18 18 19 20 22 24 26 28 28 27 27 21 21 23 25 27 25 27 27 28 27 25 22 24 24 26 26 23 18 17 17 15
1 3 4 5 6 7 8 9 9 10 11 11 15 20 21 22 24 24 25 25 23 21 21 23 23 24 26 28 27 28 27 21 20 21 21 22 24 25 23 20 19 18 15
2 4 6 7 8 9 10 10 10 11 11 13 14 14 20 23 24 22 21 18 20 21 21 22 23 24 25 25 22 23 18 17 16 17 20 19 20 25 22 19 18 17 16
4 6 7 8 9 10 11 11 11 12 13 13 14 15 20 25 21 18 18 17 18 19 21 22 23 24 24 24 17 9 15 15 15 16 19 18 21 24 20 18 19 18 16
4 7 8 8 9 11 12 12 13 13 14 14 13 16 22 23 17 17 18 17 18 19 21 22 23 24 24 22 22 10 4 12 13 15 17 18 21 22 20 18 20 19 16
6 7 8 9 10 11 13 13 14 14 14 15 16 17 22 19 17 17 18 18 19 20 20 21 23 22 22 23 19 18 11 5 9 12 15 17 19 20 19 18 20 19 16
8 8 9 10 11 12 13 14 14 15 15 17 18 19 19 19 20 18 20 20 21 23 22 23 24 23 21 20 19 15 15 10 10 11 9 13 18 19 19 19 20 20 18
9 9 10 11 12 12 13 14 14 16 17 17 18 18 19 20 20 20 21 22 24 24 24 25 25 23 23 20 18 17 14 17 11 9 12 11 13 18 18 20 19 19 17
10 10 11 11 12 13 14 14 15 15 16 18 18 18 19 20 20 21 22 24 26 26 27 26 25 24 23 21 18 17 15 14 12 10 10 12 11 14 19 20 20 19 19
11 12 12 13 13 14 14 15 15 16 17 18 19 19 20 21 21 23 25 26 26 29 27 26 25 24 23 22 18 17 16 14 12 10 10 10 10 12 15 19 21 21 21

GFSGL_850_spd_051.txt.gz
Wind_Speed
23 22 23 25 20 19 17 21 25 23 24 28 29 29 32 32 34 35 30 31 28 23 16 16 20 14 17 19 20 21 20 20 23 24 22 21 21 21 23 24 22 24 27
18 18 17 17 17 17 19 22 25 19 19 22 24 25 27 32 37 27 29 27 21 17 19 19 18 16 20 21 24 24 24 23 23 28 26 25 24 23 25 25 25 25 26
16 15 15 20 18 20 20 21 19 19 20 21 22 22 26 29 26 22 23 20 19 17 22 19 18 21 23 24 23 26 25 25 26 27 29 26 26 25 25 26 25 24 26
13 12 18 19 17 14 13 13 13 13 15 15 15 16 16 16 16 20 20 20 23 22 25 25 24 24 22 24 25 27 29 29 29 31 31 28 28 27 25 26 26 26 23
19 18 14 10 7 7 7 8 9 8 8 8 8 8 8 9 11 14 18 19 20 23 26 23 22 18 21 27 29 31 31 31 31 29 27 29 29 28 25 25 25 25 26
11 9 8 8 9 8 7 7 6 4 3 1 1 3 2 7 10 14 16 20 23 22 20 16 17 22 25 27 30 32 35 41 41 34 33 32 33 29 28 27 24 23 27
14 13 11 9 7 7 7 8 8 7 5 3 2 2 6 10 14 18 20 19 14 15 17 19 21 22 25 26 29 32 34 33 36 42 40 39 35 31 28 26 22 24 25
14 13 11 10 11 11 10 8 6 5 4 2 4 8 11 10 10 10 12 15 17 18 20 21 23 26 28 30 31 32 31 31 31 30 34 35 30 30 27 23 21 21 23
15 14 14 13 13 12 10 9 7 4 3 6 4 4 4 4 12 15 15 19 20 21 21 23 25 29 31 32 34 36 36 36 33 32 35 36 38 33 31 26 24 21 26
16 15 14 13 12 12 8 3 1 2 2 2 1 2 6 7 11 17 19 21 24 24 23 24 27 31 34 34 37 40 40 38 33 31 32 35 32 36 39 36 33 25 23
17 15 12 11 9 5 1 3 4 2 1 2 5 5 7 7 8 17 22 24 25 31 35 35 33 31 33 35 36 35 39 40 38 36 34 31 32 26 23 24 23 19 20
13 11 9 6 5 6 6 4 2 0 2 3 7 7 6 6 11 19 23 26 28 31 34 36 38 39 41 42 43 45 44 40 40 39 37 36 32 28 29 24 23 21 19
12 11 10 9 8 7 5 2 1 1 3 5 7 7 7 11 10 17 24 26 28 30 32 35 37 39 40 39 36 35 34 36 39 39 38 35 31 31 28 28 25 21 22
13 12 11 9 7 5 3 2 2 4 4 6 6 8 10 12 11 21 26 28 29 30 32 35 36 34 32 30 31 33 32 33 34 34 36 34 29 25 30 32 25 22 21
13 12 10 8 7 4 3 3 4 8 8 8 10 12 14 15 17 21 24 26 27 28 31 30 28 28 29 29 29 32 31 30 31 31 37 31 27 25 27 27 25 22 20
12 11 10 7 6 5 3 5 8 10 10 11 12 12 15 18 19 21 23 24 24 25 24 23 27 27 28 30 31 34 27 29 29 28 30 24 25 23 24 27 28 22 18
10 9 8 6 5 4 2 2 2 11 14 16 17 16 18 18 19 22 23 23 20 19 17 20 23 26 28 28 28 30 35 33 25 27 26 22 22 22 22 28 26 23 19
8 7 5 4 3 2 4 5 5 6 6 6 12 18 20 20 20 22 22 19 16 16 17 20 22 25 26 28 28 29 32 32 27 27 22 21 20 22 24 27 27 24 19
4 4 4 4 5 6 6 5 6 6 7 8 9 10 14 23 20 17 18 14 16 17 18 20 21 24 26 27 27 28 28 25 12 12 16 17 18 20 23 25 26 24 19
6 5 5 4 5 5 5 5 5 6 7 8 9 11 14 20 19 14 15 16 16 18 19 20 21 23 25 25 26 27 27 25 22 14 13 15 16 18 21 24 25 21 20
5 5 5 5 5 6 7 7 7 7 8 9 9 13 20 21 14 15 15 16 17 19 20 21 23 24 24 24 24 25 25 23 19 11 4 12 15 19 21 24 22 19 20
6 6 6 7 7 8 9 9 9 8 8 9 11 12 19 14 13 15 15 17 19 18 20 22 23 23 23 22 23 24 23 22 18 16 8 5 11 17 19 22 20 20 22
6 7 7 8 9 11 9 9 8 9 9 10 11 12 12 13 14 15 16 18 19 20 21 22 23 24 24 22 22 21 23 21 20 17 18 13 8 12 18 21 19 21 21
7 8 9 10 11 11 9 11 9 11 11 11 11 12 13 14 15 16 18 18 20 22 23 23 24 27 24 24 24 22 22 21 20 19 15 15 14 9 15 19 19 21 20
9 10 10 9 9 9 10 10 11 11 11 11 12 13 14 15 15 16 18 19 22 23 23 28 26 23 25 26 25 23 20 20 19 18 16 15 14 15 11 19 20 20 20
12 12 11 10 9 10 11 11 11 11 12 12 13 14 14 15 16 17 18 20 21 25 27 24 24 24 24 24 22 20 20 19 19 17 16 15 12 10 9 15 19 20 19

GFSGL_850_spd_057.txt.gz
Wind_Speed
47 46 48 47 45 39 33 32 25 29 28 30 26 20 20 25 26 25 27 27 31 32 32 27 23 18 16 21 23 21 22 25 31 33 30 30 30 30 32 31 34 30 32
46 49 47 44 41 41 30 30 32 32 29 27 19 17 16 19 21 21 23 26 26 25 23 20 16 15 19 20 21 22 24 25 30 35 35 36 36 34 34 35 35 35 34
31 31 34 38 31 38 41 36 31 26 23 21 19 19 17 16 18 19 20 19 17 15 14 13 13 15 18 19 18 21 26 29 32 35 38 36 36 34 37 39 38 37 38
22 23 20 23 25 24 28 28 24 21 20 20 20 20 18 18 17 15 11 11 12 11 10 11 13 16 21 20 19 23 26 27 27 30 34 37 34 33 34 38 39 37 38
26 23 23 27 27 23 21 22 22 21 19 19 18 18 18 16 12 10 10 10 8 8 10 13 16 17 12 13 17 19 21 24 27 32 36 39 42 41 39 38 41 37 34
22 23 25 28 27 21 20 20 19 18 18 18 17 14 12 10 10 11 10 7 7 9 11 12 9 10 13 15 18 20 23 27 31 35 39 40 44 43 41 41 39 37 35
22 23 24 25 23 20 19 20 18 18 18 16 14 13 12 11 9 7 6 7 9 9 8 7 9 11 16 21 24 26 27 28 29 32 37 39 41 41 40 42 40 38 37
21 23 23 22 21 21 20 19 19 17 15 14 12 9 7 7 7 7 7 7 7 8 9 13 16 19 22 27 30 34 36 37 40 42 42 44 41 38 39 42 41 37 33
20 21 21 20 21 20 19 19 16 15 13 11 9 10 12 10 8 7 8 7 8 10 13 15 18 20 24 26 30 34 37 39 38 39 42 43 44 44 37 38 40 38 36
23 23 22 23 22 21 18 16 16 12 10 11 13 12 11 9 9 9 9 10 11 12 15 17 19 21 23 25 27 31 35 35 35 37 37 37 36 37 42 40 37 40 36
27 26 26 23 21 19 17 16 13 17 17 17 16 13 12 10 11 12 12 13 15 17 18 20 22 23 24 24 23 24 26 30 32 31 33 34 34 36 30 32 32 39 32
29 27 25 23 22 18 16 18 19 20 18 19 17 14 12 12 12 13 14 16 17 18 21 23 23 22 22 22 23 24 26 28 29 31 34 32 32 34 30 31 27 26 29
28 27 25 22 20 19 20 22 22 20 18 16 14 13 13 13 13 14 15 17 18 19 21 21 21 21 21 22 24 26 26 27 28 28 31 36 33 31 30 30 27 26 28
28 25 23 22 22 23 23 23 21 19 18 16 16 15 14 14 15 15 16 17 18 19 19 19 20 20 22 23 25 26 26 26 28 30 30 32 32 30 29 29 27 29 28
25 25 26 28 29 28 26 22 20 17 15 14 13 13 13 14 15 15 17 18 18 19 19 20 20 22 24 25 26 28 28 29 30 30 31 32 33 28 29 24 30 29 31
27 27 27 26 24 22 20 19 15 13 13 12 13 13 12 14 13 14 16 16 16 18 18 18 19 21 23 26 28 30 31 31 31 30 31 31 34 29 23 21 19 13 13
27 26 24 22 19 16 14 11 10 8 8 6 8 9 10 12 11 13 14 14 15 16 15 17 19 22 25 26 27 30 32 32 31 31 31 30 33 29 17 19 24 12 14
24 21 22 19 16 12 9 7 4 7 8 8 10 12 14 14 13 14 16 17 16 15 16 18 20 23 25 26 28 30 31 31 31 31 30 29 29 32 16 24 21 15 13
17 17 15 12 9 5 5 7 9 9 11 11 11 11 15 15 16 18 20 17 17 18 19 20 22 23 24 25 28 29 29 29 30 30 28 28 27 29 17 10 11 11 12
13 9 6 11 11 6 7 9 12 12 11 11 12 14 16 18 21 21 16 16 17 19 20 22 24 24 24 26 28 29 29 30 28 28 27 26 25 24 21 11 8 12 12
13 13 11 7 5 6 8 10 12 13 12 13 14 16 18 19 18 16 14 15 19 21 22 25 25 25 26 26 26 27 29 29 27 27 26 25 23 21 20 14 8 8 14
5 3 2 3 6 9 10 11 13 13 14 15 15 16 17 19 18 17 18 20 22 22 24 25 26 27 26 24 26 29 26 25 27 27 26 23 22 20 19 15 10 8 10
1 1 4 6 9 10 11 12 13 14 15 15 17 18 17 16 17 19 20 22 22 24 24 26 26 25 23 25 23 23 25 25 24 23 24 25 23 21 18 16 12 9 7
2 3 6 9 11 11 12 13 13 15 15 16 17 17 18 18 20 21 23 24 24 25 27 25 22 23 22 21 21 20 20 21 21 21 22 23 22 19 17 16 12 9 9
6 7 9 10 11 12 12 13 14 14 16 17 18 19 20 21 23 24 23 25 26 26 25 20 21 21 21 20 20 19 19 19 19 20 21 22 21 18 16 16 13 10 8
8 9 10 10 10 11 13 15 16 17 18 19 20 21 23 24 23 24 26 25 24 23 22 22 21 19 19 20 20 20 19 18 18 16 18 19 20 18 16 15 12 11 10

GFSGL_850_spd_060.txt.gz
Wind_Speed
52 51 50 46 43 44 41 35 40 37 34 39 35 35 37 33 28 25 23 26 25 27 29 29 26 25 22 19 18 20 25 26 29 29 29 29 29 28 31 32 33 36 37
49 43 38 36 43 41 37 45 34 30 27 28 28 28 22 20 22 23 24 24 26 24 24 24 23 19 18 17 18 21 22 21 27 30 32 34 33 32 34 35 36 40 41
40 42 44 37 33 43 41 43 33 39 27 30 30 31 22 19 16 19 22 22 20 20 19 18 18 16 15 16 16 18 20 20 25 32 36 37 35 30 31 33 34 35 38
41 40 40 41 41 37 43 31 40 42 38 34 33 26 23 21 21 21 21 19 19 19 18 16 13 13 12 14 18 19 18 19 21 25 29 33 34 34 34 37 40 39 40
43 43 38 37 41 42 40 38 40 35 38 33 25 23 23 23 21 21 19 18 18 17 14 12 11 12 16 15 13 13 17 20 24 28 33 36 38 37 37 38 38 39 41
35 39 36 33 28 30 34 33 36 36 30 27 25 24 23 21 20 19 17 17 15 12 12 13 14 17 16 17 17 18 21 24 27 29 32 34 37 38 42 44 43 41 43
34 33 31 31 30 28 32 32 30 26 27 25 23 21 19 17 17 16 15 14 14 14 15 16 16 16 17 18 19 22 24 26 29 33 37 40 42 42 41 43 40 39 44
29 30 30 32 35 34 31 28 27 25 23 22 20 18 18 17 17 16 15 16 16 16 15 14 14 16 19 23 26 28 29 29 30 32 34 37 38 38 36 40 41 46 46
28 28 29 30 32 31 29 28 26 24 23 21 21 20 19 18 17 18 18 15 13 12 13 14 17 19 21 23 25 26 28 28 27 28 29 30 31 30 26 28 33 29 34
29 28 28 31 32 29 26 25 23 22 22 21 20 18 16 18 19 16 14 13 12 12 13 15 16 16 18 21 24 25 27 28 30 31 32 32 32 31 26 23 24 26 28
24 25 28 28 26 24 24 23 23 23 21 20 20 20 19 16 16 15 14 12 12 12 13 13 14 16 18 20 22 23 25 28 29 31 33 34 34 34 30 29 26 25 31
24 24 24 23 24 23 21 22 22 22 22 22 22 23 21 19 17 16 14 13 13 13 13 14 15 17 18 20 21 22 24 26 28 29 30 32 33 33 31 30 29 27 25
22 22 23 22 20 19 20 21 22 22 22 23 22 21 20 19 16 15 14 14 14 14 15 16 16 16 18 18 19 21 22 23 25 27 28 30 31 32 33 33 29 27 24
22 22 21 21 22 21 21 21 21 22 22 21 20 20 19 17 16 14 13 14 15 16 15 15 16 17 16 18 19 20 20 22 23 25 27 29 31 31 33 33 29 26 22
22 24 25 25 24 22 21 21 22 21 18 17 17 15 15 15 15 15 15 16 16 16 15 15 15 16 17 19 20 21 22 23 25 26 27 28 30 30 32 34 26 19 22
26 25 24 24 24 24 24 24 21 17 16 14 13 13 13 14 16 16 16 16 16 16 15 16 17 19 20 21 22 24 25 26 26 27 27 27 29 29 31 33 21 17 24
24 24 24 24 26 24 21 16 15 15 13 10 9 12 13 15 13 12 13 12 14 16 16 17 18 20 21 22 24 25 27 27 27 27 27 27 27 27 27 29 22 16 25
25 25 26 25 21 16 12 11 9 3 6 12 12 12 15 16 16 15 15 16 17 17 18 18 19 20 22 23 24 26 28 28 27 27 26 26 24 26 25 26 23 17 17
26 25 21 18 15 12 10 8 14 15 11 12 12 13 16 17 17 17 20 21 19 18 18 19 20 22 23 24 25 26 27 27 27 28 26 25 23 25 22 22 24 15 11
17 14 14 14 14 14 14 13 10 9 9 9 12 14 15 16 18 20 21 19 18 18 20 21 22 23 25 25 25 25 27 27 27 26 25 24 22 22 22 21 21 19 8
11 11 10 10 10 8 7 7 7 8 9 11 12 14 17 18 19 19 19 19 19 20 22 23 24 25 25 25 25 25 26 26 24 25 26 24 22 22 21 21 20 18 11
9 9 7 6 4 3 4 6 7 9 11 12 13 14 16 18 19 20 20 20 20 21 22 24 25 26 26 24 24 26 24 24 23 23 23 22 22 21 21 20 18 17 12
6 5 3 2 3 5 6 6 8 10 12 14 15 16 17 17 17 19 20 20 22 24 25 26 28 28 24 22 22 22 24 22 21 21 23 23 22 21 20 20 18 17 13
4 3 2 4 5 6 7 7 8 10 12 12 13 15 17 18 19 20 21 23 25 26 26 28 27 25 22 22 20 20 21 21 21 21 22 23 23 21 20 20 17 16 15
5 4 4 5 6 6 7 8 10 11 13 15 16 17 18 19 21 22 24 24 25 27 26 25 23 22 22 21 20 20 21 21 19 18 19 20 21 20 20 19 17 16 15
5 6 7 7 7 8 10 11 12 13 14 15 15 16 19 21 21 22 25 27 27 26 24 23 21 20 19 19 19 19 19 18 16 15 18 20 21 20 19 19 17 16 14

GFSGL_850_spd_063.txt.gz
Wind_Speed
53 51 50 50 48 46 46 46 44 42 41 36 36 33 33 35 35 37 38 33 30 26 24 26 27 27 23 24 25 24 22 21 24 29 31 28 25 26 28 29 31 32 32
53 52 48 45 42 40 45 44 45 45 44 35 39 35 37 39 38 35 27 23 23 26 27 26 25 22 23 23 20 19 18 20 23 26 25 26 27 28 30 32 32 31 33
51 50 47 44 37 35 45 42 42 41 44 42 38 51 31 29 31 23 20 22 24 24 25 21 21 22 20 19 18 19 21 21 23 23 25 27 29 27 29 31 33 35 35
49 51 50 49 43 44 38 38 49 47 41 37 34 37 33 31 22 22 20 22 24 24 21 19 20 20 18 18 18 21 21 25 18 20 24 27 29 30 32 35 39 39 41
44 46 49 46 46 50 47 46 43 43 42 37 35 36 31 28 24 24 24 24 25 22 22 22 20 18 19 20 22 23 24 21 22 24 26 29 32 35 36 37 41 46 49
39 43 44 46 46 49 47 43 45 44 42 38 33 31 33 27 24 25 27 26 24 22 21 20 21 20 18 20 23 20 20 21 23 26 29 32 35 37 39 40 41 44 49
31 34 40 44 44 44 42 41 40 42 41 31 29 31 26 25 26 26 24 23 21 21 21 21 19 19 21 20 19 19 20 23 26 30 33 34 35 33 35 37 36 37 40
33 34 37 40 42 42 40 38 34 33 30 30 30 25 24 23 24 24 23 22 21 19 18 17 19 18 18 19 20 22 23 25 27 28 29 29 29 30 31 32 33 38 41
32 32 35 36 38 37 33 29 29 30 28 25 24 23 22 22 21 21 20 18 18 19 18 18 17 17 19 20 23 23 24 25 25 25 25 25 26 26 26 29 32 33 37
26 25 27 28 28 30 30 32 29 27 27 25 24 21 22 22 21 19 18 16 16 15 15 15 16 18 19 21 22 23 24 24 24 24 24 24 25 25 25 24 26 29 32
25 24 23 26 28 28 30 30 29 28 26 25 25 23 21 19 19 17 16 15 14 13 14 16 17 18 19 21 22 21 22 22 23 24 25 26 26 26 25 25 24 26 32
21 21 23 27 27 29 28 27 26 26 26 25 24 22 20 19 17 18 17 15 14 15 15 16 16 18 19 20 19 19 20 22 23 24 26 26 28 28 28 29 28 28 30
21 24 23 25 25 25 24 26 26 24 23 23 23 22 22 22 20 18 17 15 14 14 15 15 17 18 17 16 17 19 21 22 23 25 27 28 29 30 30 31 31 32 33
21 22 23 23 24 24 22 20 21 23 22 20 21 22 22 21 19 17 16 14 14 14 15 15 15 16 17 18 19 19 20 21 23 25 27 28 29 29 30 30 32 34 33
20 21 23 24 24 24 22 21 19 18 18 18 19 19 19 19 17 14 13 13 14 15 15 16 16 17 18 18 19 19 20 21 23 24 26 27 28 29 29 28 28 31 28
20 23 24 25 25 24 24 23 22 21 21 19 17 17 18 16 16 16 13 16 19 17 15 15 16 17 18 18 19 20 21 22 24 25 25 26 28 29 29 28 26 27 28
20 23 25 27 27 26 26 26 27 22 18 16 14 14 15 15 12 11 14 13 11 12 13 14 16 16 17 18 19 21 23 24 24 25 26 26 27 28 27 28 27 26 27
27 29 29 29 28 27 26 24 18 13 10 9 11 11 14 14 15 13 12 10 12 14 15 15 16 17 18 20 22 23 24 24 24 25 26 26 25 26 27 26 24 24 25
27 27 26 25 22 19 15 11 10 10 10 10 11 11 9 8 9 10 12 14 14 14 15 15 17 20 21 22 23 24 24 24 24 25 26 25 24 25 25 24 24 21 22
18 16 15 14 13 11 9 8 9 10 10 9 8 8 9 11 12 14 15 15 15 16 17 19 19 21 22 24 24 24 25 24 24 25 24 24 23 22 24 22 22 23 21
13 12 9 7 6 6 7 7 6 6 6 6 6 7 10 12 14 15 16 17 18 18 18 19 21 23 24 25 26 26 25 24 23 23 23 22 22 22 22 22 21 20 20
8 9 8 7 6 4 3 3 3 4 5 6 7 8 10 13 14 16 16 17 17 19 20 22 23 25 27 27 26 25 25 24 22 21 22 22 23 22 22 21 20 19 18
9 8 7 5 3 2 1 2 3 4 5 7 8 10 11 12 13 15 16 17 19 21 23 25 27 28 28 26 24 24 25 23 22 22 22 22 23 22 21 21 20 19 17
7 6 5 5 4 4 4 4 5 6 6 8 9 11 13 15 16 18 19 21 22 24 25 26 26 27 26 24 22 22 22 22 22 21 21 22 22 21 21 21 20 19 18
8 7 7 6 6 5 6 7 8 9 10 11 12 14 15 16 17 19 21 22 23 24 24 24 24 24 24 23 21 20 20 20 20 20 19 20 21 20 20 20 19 19 17
9 8 8 7 7 7 8 9 10 11 12 13 15 16 18 19 20 20 21 23 25 26 26 25 23 22 22 20 19 18 18 19 19 17 18 20 21 21 21 20 19 20 18

GFSGL_850_spd_069.txt.gz
Wind_Speed
33 35 36 37 38 39 42 43 46 47 48 50 51 49 45 42 41 41 43 41 43 43 39 33 32 37 36 34 29 27 27 24 24 22 20 19 20 22 24 25 27 25 25
37 36 36 39 39 40 40 39 38 39 38 37 38 39 40 39 40 42 43 41 35 38 31 28 30 34 32 32 30 27 27 25 24 23 21 21 22 23 25 23 20 22 23
40 41 40 38 43 44 44 43 42 43 43 40 37 36 37 40 41 40 39 43 33 36 31 31 28 27 28 25 25 28 24 21 22 24 22 21 22 25 20 17 18 21 22
33 37 41 43 46 42 42 43 42 41 41 39 40 36 40 47 40 39 37 36 37 34 29 22 23 27 26 24 26 22 23 25 24 22 20 21 23 16 17 19 22 24 25
28 30 33 33 38 44 47 43 40 44 44 42 34 36 39 37 33 29 26 31 31 32 26 24 26 26 27 25 24 24 24 25 23 20 20 21 17 16 18 21 24 25 25
26 26 28 28 29 32 35 41 44 44 44 43 43 39 35 36 32 32 32 34 31 31 30 27 29 29 29 26 23 24 23 21 21 20 19 17 18 20 21 21 23 22 17
29 29 28 28 28 28 28 30 33 39 42 44 43 43 42 39 34 36 38 30 30 31 31 31 31 29 24 22 23 21 20 19 18 16 16 18 19 20 21 22 22 23 23
34 31 30 30 28 27 27 29 30 32 35 35 35 37 40 39 39 35 30 28 29 32 29 29 27 25 22 21 20 19 17 16 15 16 17 18 18 19 20 21 23 25 27
36 35 33 32 29 29 29 29 27 27 25 26 30 30 32 32 30 31 29 30 30 28 25 24 23 21 19 17 15 14 14 15 15 16 17 17 17 19 18 20 21 25 27
36 33 32 30 29 30 29 25 25 25 25 27 28 28 26 27 29 30 29 29 29 29 27 23 21 18 15 13 13 13 13 14 14 15 15 15 16 15 18 20 23 25 25
32 29 28 26 26 25 21 21 23 25 25 25 26 26 25 25 27 24 24 25 25 25 19 19 17 15 12 12 13 13 13 14 13 14 14 15 15 17 18 20 22 24 26
25 22 20 19 18 17 18 19 20 21 23 25 25 26 26 26 24 23 21 16 16 14 15 14 11 11 11 12 12 12 12 12 12 13 15 16 18 20 20 21 23 25 27
15 15 17 18 16 13 15 19 21 21 24 27 29 31 31 29 25 22 18 15 15 13 11 9 9 9 10 9 10 10 11 12 13 16 19 19 19 19 21 23 25 26 28
14 16 18 17 14 15 16 17 18 20 23 25 28 28 25 22 19 16 16 16 13 10 8 7 6 6 8 9 11 13 14 16 19 19 18 18 19 21 24 25 26 27 29
16 16 13 11 12 14 15 14 14 14 14 19 20 19 20 20 19 18 16 14 12 8 5 4 6 9 12 14 15 15 18 18 17 17 18 21 24 24 24 25 25 26 28
14 15 14 15 16 17 18 22 21 18 16 14 14 16 20 19 19 16 12 9 7 6 7 9 12 13 13 15 17 16 16 17 18 20 23 23 24 24 24 25 25 24 27
14 15 18 19 23 24 25 24 24 19 16 12 14 14 13 14 11 9 8 6 5 7 10 12 13 13 14 14 14 16 18 20 22 22 23 23 23 24 25 24 23 23 24
17 18 20 23 24 25 23 20 17 19 23 23 17 13 11 8 6 2 3 5 5 7 8 9 9 10 11 13 15 17 19 20 21 22 23 23 24 24 23 22 21 22 23
12 16 17 18 18 20 21 21 19 18 18 17 15 10 6 4 3 3 1 4 6 7 8 8 9 11 13 15 17 19 20 21 23 24 24 24 23 22 22 22 21 22 24
19 20 21 23 23 22 19 18 17 15 14 12 10 7 4 2 2 3 4 5 6 6 7 8 10 12 14 17 19 21 21 20 22 22 22 23 21 20 20 20 19 20 19
24 23 20 20 18 16 15 13 12 10 9 9 7 5 3 3 2 3 5 6 6 7 8 10 12 15 18 20 22 22 24 25 25 25 23 21 20 20 19 18 17 18 19
18 18 16 16 14 13 13 11 11 10 10 8 6 4 2 2 3 4 5 6 8 10 12 15 17 19 22 24 25 26 26 25 24 22 21 20 19 17 17 17 17 16 18
16 15 16 15 13 11 10 9 8 7 7 6 4 2 1 3 4 6 7 9 11 13 15 17 19 20 21 22 23 23 24 23 22 20 19 19 18 17 16 17 16 16 17
15 13 13 12 11 9 8 7 6 5 3 2 1 2 3 4 6 7 9 11 13 14 16 17 18 19 20 20 20 19 20 20 19 18 17 18 19 19 18 17 17 18 20
11 10 9 9 8 8 7 5 4 4 3 3 3 4 5 6 7 8 10 12 13 15 16 17 18 18 18 18 18 18 18 17 16 15 16 18 19 19 18 19 20 20 19
10 9 9 8 8 7 6 6 5 5 4 4 4 4 5 6 8 10 11 13 14 15 15 16 16 17 18 17 17 15 14 13 13 13 15 18 19 18 18 20 20 21 20

GFSGL_850_spd_072.txt.gz
Wind_Speed
35 34 34 35 37 39 43 44 44 42 42 44 48 45 41 42 41 38 38 37 36 37 35 40 41 39 41 38 35 35 40 35 32 24 24 24 24 23 25 24 26 28 24
36 37 37 36 37 40 44 46 47 51 46 45 43 42 44 46 47 42 40 39 40 36 36 42 40 30 31 35 30 42 45 35 31 30 29 26 23 23 26 27 25 23 20
35 38 39 39 41 43 45 46 43 43 41 40 41 44 47 53 58 57 52 46 35 37 37 38 38 37 37 39 40 42 36 31 30 29 24 23 23 27 24 23 23 18 17
34 37 40 43 44 44 44 44 46 45 43 45 48 50 49 50 50 42 44 43 45 49 49 50 48 40 42 50 43 35 30 32 29 26 23 24 23 22 20 16 13 14 15
34 35 38 40 41 41 41 41 42 43 44 42 42 44 43 44 44 42 42 46 44 44 38 38 38 39 36 32 33 32 32 32 32 25 25 23 21 19 16 11 13 14 16
33 31 30 32 33 37 39 40 37 38 38 36 37 37 37 42 39 40 44 36 35 33 33 35 35 37 34 32 32 32 34 34 29 26 23 20 17 14 13 13 12 12 13
32 30 31 31 32 32 32 32 34 35 34 36 34 33 35 35 39 35 32 31 33 34 34 39 35 37 38 36 36 32 29 28 24 22 20 18 16 15 15 15 14 13 14
31 32 32 32 31 29 28 29 29 29 30 32 34 34 36 39 36 33 34 33 36 36 38 35 35 37 37 36 32 31 26 23 21 19 17 17 17 18 17 17 16 17 17
32 35 34 32 31 29 28 26 26 27 29 29 30 29 30 27 27 28 30 33 34 32 33 34 34 35 33 28 24 20 19 17 15 14 16 17 16 17 18 17 15 12 16
34 33 31 30 29 29 27 29 29 25 21 21 25 25 26 28 28 28 28 27 29 32 31 30 27 27 25 22 20 18 16 14 13 15 15 15 15 16 16 17 16 15 14
22 24 24 26 26 28 32 28 24 19 19 23 24 25 26 26 25 25 26 25 29 32 32 31 27 24 21 18 13 12 11 9 11 13 13 13 14 15 16 17 17 19 18
25 28 28 28 27 28 25 22 20 21 20 21 23 25 24 22 22 22 19 20 23 27 26 23 21 18 13 8 8 9 7 9 11 12 12 13 14 16 18 20 21 21 21
15 18 20 20 19 21 21 23 23 23 24 23 23 24 22 20 20 16 17 17 19 17 17 16 11 7 8 10 7 6 7 9 11 12 13 17 21 22 21 21 22 25 26
13 16 18 18 21 20 20 18 20 20 23 23 24 25 25 24 22 22 20 19 18 15 12 9 9 9 6 4 6 10 11 13 15 18 18 18 19 18 20 22 26 25 25
15 16 18 18 20 21 20 19 20 18 17 17 21 23 24 23 22 19 18 16 14 12 13 11 9 9 9 9 10 12 14 14 14 15 14 15 16 19 20 20 22 21 20
12 14 15 16 16 16 17 19 15 12 12 14 18 19 21 18 20 18 14 12 12 11 10 7 7 8 8 8 8 11 11 11 11 13 14 16 16 16 16 16 18 17 19
12 13 14 15 15 17 19 20 25 21 18 16 18 15 13 16 16 15 13 10 8 5 4 5 6 6 7 6 6 7 8 13 15 12 12 13 14 15 17 17 17 18 19
2 8 15 19 19 20 21 22 25 25 27 25 19 18 17 17 14 11 8 5 4 3 3 3 3 4 4 4 5 5 6 8 10 11 12 13 15 16 17 17 18 19 20
11 14 14 17 18 21 22 23 26 25 26 26 23 19 15 12 10 9 8 5 5 5 4 3 2 0 1 3 7 8 10 10 13 14 14 15 16 16 18 18 19 19 20
19 20 20 23 24 25 25 24 23 22 21 20 18 16 13 9 7 5 4 4 4 4 4 2 2 2 4 6 8 10 11 13 14 15 16 17 17 16 17 18 18 19 19
25 24 24 24 23 22 21 20 19 17 16 14 14 12 11 7 5 4 3 1 1 1 2 3 4 7 8 9 10 12 13 14 14 15 15 15 15 15 16 16 17 18 19
20 20 19 20 18 17 17 16 15 14 12 11 10 8 6 3 2 2 1 2 4 6 7 8 7 8 10 12 12 12 13 14 13 13 14 14 14 14 15 16 17 17 17
18 17 17 17 16 15 14 14 12 11 10 8 6 5 4 3 2 2 3 4 6 8 10 11 12 13 13 15 14 13 12 12 12 12 13 13 13 13 14 16 16 17 17
13 13 13 13 12 12 11 10 9 8 7 7 5 4 3 3 3 4 5 7 8 10 11 11 12 13 13 14 14 14 14 14 15 15 13 12 13 14 15 16 16 17 18
11 11 11 11 10 11 10 8 7 6 6 5 6 5 4 4 4 4 6 7 8 10 11 12 12 13 14 14 15 15 16 15 14 14 13 13 14 15 16 16 16 17 18
10 10 10 10 10 9 9 7 7 6 5 5 4 3 3 4 5 6 8 9 10 11 12 13 13 14 14 15 15 14 13 13 12 12 12 13 15 14 14 16 17 18 19

GFSGL_850_spd_075.txt.gz
Wind_Speed
32 30 29 31 31 33 33 35 35 35 39 43 48 51 62 62 58 53 52 48 49 44 41 41 39 36 35 34 37 31 34 36 36 35 40 36 31 30 31 28 29 30 29
35 35 34 32 32 35 38 38 38 41 39 45 42 47 51 54 58 54 51 51 48 42 40 38 40 40 40 38 37 34 32 31 26 37 45 37 41 32 32 28 28 25 24
34 36 39 39 39 41 42 42 40 39 41 40 41 39 41 46 46 49 49 47 44 44 44 42 41 43 44 43 37 33 33 34 41 40 47 45 42 35 31 31 30 29 27
34 35 37 43 44 43 40 39 40 42 42 43 43 43 45 43 44 45 44 45 45 44 45 44 46 49 44 43 46 47 53 55 45 45 43 43 37 36 34 30 30 27 20
35 37 41 43 42 37 39 40 40 43 44 45 45 46 47 47 48 48 47 48 47 48 50 50 49 48 48 49 51 51 45 49 48 52 42 42 35 34 31 29 24 18 19
37 43 38 35 38 40 41 42 41 42 45 42 45 46 47 48 49 51 51 52 53 50 48 50 52 48 45 42 38 45 48 48 51 47 45 44 38 32 26 22 23 22 18
37 38 36 36 38 41 40 38 42 44 42 45 46 45 45 44 46 47 48 46 43 41 45 42 44 42 41 39 41 43 44 42 43 45 45 39 28 22 23 22 20 19 17
35 36 35 36 37 35 37 39 41 40 42 43 44 43 41 40 40 42 41 36 36 42 40 39 40 41 44 44 41 42 39 37 33 31 32 28 23 20 19 17 15 17 17
33 37 39 38 38 35 37 39 38 38 38 39 37 37 39 38 39 38 37 37 37 41 43 44 43 41 39 36 36 34 31 27 25 21 16 12 12 13 18 15 15 14 15
32 36 33 34 35 35 35 34 36 36 34 33 36 37 37 38 38 38 37 38 39 42 42 38 35 30 29 28 24 25 25 22 16 16 10 11 16 17 17 15 15 15 14
24 27 29 32 35 35 33 31 30 36 38 37 34 32 33 34 33 33 33 32 31 33 32 30 25 22 24 25 23 21 17 9 6 5 6 11 10 11 13 13 13 16 17
18 19 23 26 31 31 31 39 39 36 35 34 33 32 30 28 31 29 27 23 23 23 24 22 22 23 21 18 14 9 2 4 6 8 9 8 8 9 11 14 18 22 22
15 22 26 29 29 30 31 32 31 32 34 33 31 29 26 26 25 20 20 18 15 17 20 22 22 19 17 13 7 5 4 7 8 8 9 8 11 16 20 20 20 19 20
9 13 19 23 26 25 26 26 28 31 31 30 28 25 26 23 20 18 16 17 20 23 25 22 19 13 9 8 8 9 9 9 11 12 14 15 16 16 16 15 17 19 22
4 5 10 16 19 22 19 17 18 20 22 24 20 23 25 23 20 19 21 24 24 22 18 15 11 8 8 7 7 7 7 8 10 13 13 12 12 11 13 15 16 16 18
7 3 6 8 11 16 18 18 14 8 5 6 7 15 19 22 26 23 20 18 16 14 12 11 11 10 6 3 2 3 7 7 9 10 10 11 11 12 13 14 15 16 17
12 11 5 9 12 14 15 14 20 19 16 19 18 17 18 21 20 18 16 16 16 14 14 12 10 8 5 4 4 5 5 10 12 8 8 10 11 13 15 15 16 16 18
13 8 6 5 12 16 20 24 27 30 31 31 24 23 22 20 18 17 16 12 12 10 9 8 6 4 2 2 2 1 3 6 8 9 10 11 13 14 16 16 17 17 19
18 19 19 20 21 19 22 25 27 29 30 29 26 22 17 15 15 16 14 11 11 10 8 7 7 5 4 1 3 5 7 7 9 10 11 12 13 15 16 16 18 19 20
24 25 26 28 28 25 25 25 26 27 26 24 22 19 14 11 11 12 11 9 9 10 8 5 3 1 1 2 5 6 7 8 9 10 12 13 13 14 14 15 15 17 18
25 23 22 23 23 22 23 22 20 21 21 20 19 15 11 10 10 8 8 7 6 5 4 2 3 4 4 4 4 5 7 7 8 10 11 11 13 13 14 14 15 16 17
18 18 18 19 18 19 19 17 16 16 15 14 13 10 7 7 7 6 5 4 3 2 2 2 2 3 4 5 6 6 7 7 8 8 10 11 11 12 12 13 14 16 17
17 17 17 17 16 16 16 17 15 14 13 11 10 8 6 6 6 7 5 5 4 5 5 4 4 5 6 8 8 7 7 7 9 10 10 10 11 11 12 14 15 16 17
15 15 15 15 13 14 13 13 12 12 11 10 9 9 7 7 7 6 5 4 3 4 5 7 7 8 9 10 10 10 10 11 12 13 12 10 10 11 12 14 15 17 18
14 14 14 13 13 12 11 11 11 10 9 8 8 8 7 6 6 5 5 5 7 7 7 8 8 9 10 11 12 12 13 13 12 12 12 11 11 12 13 14 15 17 19
13 13 13 12 12 11 10 10 9 9 8 7 7 6 5 5 4 5 7 7 8 9 9 9 10 11 11 12 12 13 13 12 12 11 11 11 11 11 12 15 17 18 18

GFSGL_850_spd_078.txt.gz
Wind_Speed
34 32 29 34 36 41 42 41 39 39 41 42 53 63 63 62 56 51 53 54 57 56 50 48 46 45 42 45 43 40 40 38 43 42 38 37 37 33 34 28 35 36 35
35 35 33 30 31 33 39 39 38 39 42 41 40 47 53 56 62 60 56 54 56 57 52 51 54 52 52 47 45 45 44 44 45 43 41 41 35 34 39 37 37 41 37
34 36 37 37 38 38 38 38 37 38 39 40 41 48 50 51 59 62 62 61 58 53 49 46 46 47 47 46 46 47 47 48 46 44 40 41 41 46 48 47 44 39 37
34 36 40 43 43 41 40 40 38 38 40 39 40 41 42 44 47 54 55 53 53 58 54 49 49 47 44 44 45 47 48 48 42 49 51 49 48 44 43 42 43 42 41
33 37 42 42 42 41 42 42 42 43 42 42 44 45 46 47 48 49 51 53 54 54 53 51 49 50 52 47 49 47 49 46 47 49 51 50 47 42 44 41 43 43 37
35 38 40 39 41 42 43 42 42 45 46 47 47 47 47 50 49 47 48 48 47 46 47 48 49 51 52 54 52 52 52 50 59 51 53 51 49 49 45 43 43 34 25
34 39 40 40 41 44 44 43 46 47 45 49 49 49 51 51 51 51 51 50 46 46 50 52 54 54 52 52 52 52 55 55 52 53 45 40 39 38 38 33 26 24 20
33 37 39 40 43 42 41 45 46 46 46 47 49 48 48 50 48 48 47 46 48 50 51 52 52 53 51 46 45 47 50 46 39 44 39 35 30 28 25 21 20 21 19
23 30 38 39 39 39 40 44 45 42 43 46 44 43 46 45 44 44 41 43 45 49 51 47 44 43 43 43 45 41 37 32 28 26 19 19 20 19 17 15 12 5 16
21 21 20 38 39 41 42 41 39 39 40 38 38 41 42 44 45 43 41 42 42 44 44 46 44 47 48 46 38 31 27 22 20 19 19 18 14 10 5 2 9 13 16
20 22 23 17 36 38 38 37 35 34 35 38 39 40 41 42 43 42 42 43 44 45 48 47 41 41 38 30 21 20 20 21 17 15 11 5 4 2 4 9 12 14 15
24 23 22 17 21 30 33 35 36 37 43 43 44 41 42 41 40 41 42 38 37 38 37 33 29 26 18 17 20 19 18 14 11 8 5 5 5 7 9 14 18 17 20
23 20 21 20 14 18 28 34 37 38 38 39 37 39 36 35 36 37 36 40 35 24 25 23 22 22 24 22 19 16 12 9 6 5 7 9 8 12 13 13 17 18 18
32 28 19 13 12 11 16 21 25 30 32 36 37 36 34 29 26 23 19 16 20 18 25 25 25 23 19 19 12 8 7 7 6 5 5 5 7 8 9 11 13 15 19
20 23 23 16 9 4 7 10 15 18 22 26 27 25 27 20 13 17 17 19 22 27 28 23 20 17 16 14 13 7 6 4 2 0 2 4 5 8 10 12 14 15 16
14 16 16 13 9 7 14 14 13 9 9 8 6 13 12 22 21 14 22 24 25 20 21 21 18 15 16 14 10 6 3 2 3 3 5 6 7 9 12 13 15 15 16
9 9 9 7 9 12 19 28 33 29 27 25 22 22 25 27 26 26 24 26 22 17 19 20 18 14 12 9 7 4 0 2 2 4 6 8 10 12 13 14 14 14 15
14 15 15 14 16 15 21 24 32 34 41 39 33 32 29 27 26 22 21 21 20 16 15 15 14 11 9 6 4 2 1 4 6 7 8 9 9 9 10 12 14 15 17
22 23 23 24 26 27 29 29 32 32 36 34 31 28 26 24 23 20 16 17 17 16 14 12 10 9 6 3 1 1 3 5 6 5 6 8 10 12 10 10 12 13 14
24 22 22 22 22 24 25 26 28 30 30 28 21 20 17 14 16 16 14 13 13 12 10 8 6 4 2 1 1 2 2 4 5 7 8 8 7 8 8 9 10 12 13
22 22 24 23 22 22 21 22 23 23 23 20 19 14 12 12 13 12 12 11 10 8 7 5 2 1 1 2 3 4 4 5 5 4 4 6 8 7 6 8 9 11 13
18 17 18 20 19 20 21 20 20 20 17 17 16 13 10 11 10 9 7 6 4 2 3 3 2 3 2 2 1 1 2 2 4 6 7 7 6 5 5 8 10 11 13
16 16 17 18 17 16 17 17 16 16 14 13 11 10 9 8 6 5 5 5 5 5 4 1 1 2 3 2 3 2 3 5 7 8 9 9 6 4 6 8 9 12 13
13 13 14 14 13 14 14 15 15 13 11 11 9 9 9 8 7 7 5 4 3 3 5 4 4 4 4 4 5 5 8 8 8 9 9 8 8 6 6 8 9 11 14
12 12 13 13 13 13 12 12 11 9 8 8 8 8 7 4 3 4 5 6 6 6 6 5 5 6 7 7 8 7 6 7 8 8 8 8 8 7 6 7 10 14 16
12 12 12 11 11 10 9 9 8 7 7 6 6 5 3 3 4 5 6 6 5 4 5 6 7 7 7 8 8 8 9 9 9 8 7 7 7 7 8 10 13 14 15

GFSGL_850_spd_081.txt.gz
Wind_Speed
29 30 32 36 36 36 37 35 35 34 39 46 50 57 59 60 55 52 50 51 49 50 50 49 48 47 46 43 42 40 41 41 44 47 46 44 42 46 45 42 38 38 33
29 30 31 29 35 39 40 39 36 37 38 39 43 52 58 64 61 62 58 55 55 55 55 54 55 54 53 50 47 48 48 49 50 50 51 49 47 46 47 44 40 40 38
29 32 33 34 34 36 40 42 41 39 40 38 40 44 50 53 59 67 67 63 60 60 56 58 59 59 57 55 54 54 55 53 50 51 50 49 47 47 45 44 47 43 45
28 32 35 37 37 36 35 36 40 42 43 43 44 44 45 47 48 55 64 66 64 64 65 61 60 60 60 58 56 53 51 49 49 50 50 47 45 44 40 45 49 44 48
29 31 36 38 38 38 38 38 38 41 43 44 45 46 45 47 49 48 50 55 57 58 60 62 61 61 61 59 56 54 52 53 47 44 47 45 47 46 50 51 50 47 43
31 32 33 36 39 42 43 43 42 43 44 44 47 47 48 48 48 48 47 48 50 52 54 56 57 56 54 53 53 52 52 53 53 51 49 48 53 52 50 49 43 40 38
8 35 36 37 39 41 44 44 46 47 47 50 49 48 50 50 49 49 47 47 48 51 52 54 55 55 54 52 49 50 54 54 53 51 52 52 54 53 51 48 44 41 38
11 9 11 27 41 43 44 46 46 47 48 50 51 53 52 54 52 51 49 48 49 51 50 52 52 50 48 48 49 51 53 55 54 50 50 51 49 50 44 37 33 31 29
18 17 17 11 17 31 47 46 46 47 48 49 49 50 52 53 54 52 48 49 50 51 53 53 51 50 49 52 51 50 49 49 49 49 44 33 30 27 25 23 27 25 19
26 24 24 24 23 22 32 48 47 46 46 46 46 46 47 48 49 50 50 49 51 55 57 59 58 57 53 53 54 51 48 45 38 28 21 23 21 20 20 18 17 12 10
24 28 29 28 26 24 25 36 43 46 44 43 44 45 45 45 45 44 45 46 48 49 50 51 53 55 55 52 50 48 42 34 24 22 22 21 18 16 11 7 4 5 7
22 23 26 29 28 25 23 24 32 38 41 42 43 44 44 45 45 45 46 44 47 48 52 52 45 45 44 31 21 22 28 30 28 23 22 16 13 9 7 5 6 10 14
22 23 22 23 24 25 22 17 18 21 32 41 43 43 41 35 36 40 42 44 46 44 41 36 31 20 18 22 27 28 25 21 19 17 13 11 6 3 2 6 8 11 13
20 21 21 21 21 20 19 14 10 10 12 19 28 31 32 28 24 19 25 24 23 26 29 26 26 29 30 28 23 19 17 15 12 13 10 7 5 4 5 6 8 10 12
17 18 18 20 20 20 18 14 13 11 9 6 8 12 11 17 10 6 7 10 20 26 31 29 25 23 25 24 19 17 14 12 12 10 8 4 3 4 4 6 8 9 10
11 14 15 15 16 17 19 20 21 16 17 13 11 10 17 15 17 20 24 28 25 27 27 26 23 23 22 20 18 16 13 8 7 5 3 2 2 3 4 6 7 8 9
11 12 12 13 14 16 20 25 30 33 32 31 30 36 32 34 26 34 31 29 24 21 24 25 23 20 19 16 12 9 8 7 4 4 1 1 3 5 5 7 8 9 11
17 17 17 17 17 18 22 27 30 34 37 33 30 30 30 23 25 21 24 26 26 22 22 21 17 15 14 12 10 7 5 4 3 2 2 3 5 7 8 9 9 10 12
19 20 18 19 20 22 24 27 28 30 30 28 23 23 21 23 18 17 13 20 22 21 18 16 14 12 11 8 7 4 3 2 2 3 5 6 8 9 7 7 7 8 8
19 19 17 17 17 19 21 22 22 23 23 21 20 18 15 14 17 16 16 17 18 18 14 12 10 7 5 4 2 1 1 2 4 5 7 7 5 5 6 5 6 7 8
17 17 17 18 18 17 16 17 17 17 17 17 18 14 11 12 15 14 13 13 12 11 9 6 5 3 2 1 0 1 2 4 4 3 4 4 5 5 4 5 5 7 8
14 15 15 16 15 15 15 14 13 13 13 12 13 11 8 10 10 9 8 7 6 5 4 3 3 2 1 1 1 2 2 2 2 3 5 5 5 4 4 5 6 6 8
12 12 13 13 13 13 13 13 13 12 11 11 9 8 7 8 8 8 7 8 7 5 4 3 2 2 2 1 1 2 3 4 4 4 4 5 5 5 5 5 5 5 6
9 10 11 10 10 10 10 10 10 9 9 9 9 8 8 9 9 9 7 6 7 6 5 4 3 3 1 1 3 4 3 4 5 5 5 5 5 5 4 3 2 4 8
9 9 9 9 9 9 9 8 8 7 7 6 6 6 6 6 7 8 7 5 4 5 4 4 4 3 3 3 3 4 4 5 5 5 5 4 4 5 5 4 6 9 10
11 10 10 9 8 7 6 6 6 5 5 4 3 4 4 5 6 6 5 6 6 6 6 6 6 7 7 7 6 7 7 6 5 5 5 4 4 5 6 7 7 7 9

GFSGL_850_spd_084.txt.gz
Wind_Speed
25 25 28 33 36 38 37 36 36 36 36 39 45 51 53 50 48 49 48 47 46 45 45 47 48 49 48 46 47 44 43 43 42 44 43 43 39 39 41 43 44 45 43
23 24 26 28 33 35 37 36 34 36 36 37 40 48 56 55 54 54 55 55 54 53 51 51 52 50 50 49 48 50 48 50 48 47 48 49 49 48 47 45 44 44 46
24 23 25 29 29 32 35 37 37 37 38 38 39 42 47 53 58 59 60 59 56 57 56 56 57 55 57 58 57 57 56 56 55 52 52 52 54 53 46 46 45 44 43
29 29 26 27 29 31 31 34 35 39 41 42 42 43 44 46 49 54 58 62 65 66 66 65 62 60 62 61 60 62 60 58 58 56 55 54 52 50 45 43 47 45 45
27 32 33 31 29 30 33 33 34 36 38 40 42 44 45 47 47 48 51 56 58 59 62 65 66 67 66 64 62 63 60 58 59 56 56 48 44 50 48 48 46 47 48
13 24 31 32 36 38 37 36 37 37 39 41 43 45 47 48 49 49 48 50 52 54 55 57 61 62 64 65 63 60 60 58 57 53 53 47 47 51 53 50 47 48 47
9 1 15 24 22 28 37 40 41 43 43 44 44 44 48 49 48 48 48 49 50 52 53 53 54 55 55 57 56 55 55 55 55 53 56 56 55 55 56 54 48 48 53
10 6 4 5 11 19 27 34 42 47 48 48 49 48 48 49 48 47 47 47 49 51 51 50 50 49 49 48 48 50 51 52 55 57 60 61 64 59 49 45 47 44 43
17 17 15 13 13 14 16 22 31 39 48 52 53 51 53 50 49 49 48 48 49 50 50 48 50 49 47 46 46 47 50 53 55 57 60 63 60 56 52 43 37 36 31
23 24 23 21 17 16 18 22 23 28 39 47 52 54 51 51 49 47 48 50 53 52 54 55 56 53 50 51 51 54 55 57 61 59 54 53 49 45 37 27 25 27 28
19 20 22 24 24 21 19 20 24 26 28 35 42 48 49 50 49 49 50 50 51 52 53 53 53 61 61 58 54 55 56 54 45 33 25 23 23 21 21 20 24 20 20
18 21 23 23 23 24 22 19 18 24 26 25 33 38 41 43 46 46 48 49 50 50 53 52 52 55 54 53 50 49 50 42 35 29 24 18 14 12 11 8 4 7 6
17 19 21 22 22 22 21 20 17 16 20 21 19 23 25 24 25 34 46 47 49 51 47 35 30 30 28 25 21 22 27 27 26 22 20 17 13 11 11 6 5 2 4
14 15 17 20 21 21 22 20 20 18 18 17 11 8 8 10 11 11 14 18 26 22 26 24 26 19 17 23 25 23 24 19 18 18 18 14 12 7 6 5 4 4 7
12 12 14 16 18 20 23 24 25 24 19 16 12 6 4 8 9 8 5 10 13 18 18 22 24 29 30 27 23 21 17 19 15 14 12 11 6 6 3 2 2 5 5
10 10 11 12 14 17 21 24 23 24 25 26 24 21 23 21 18 19 16 20 28 24 27 25 24 22 28 25 22 22 17 13 14 10 10 7 4 3 2 2 3 3 4
11 12 12 12 14 16 19 22 27 28 29 32 29 26 26 25 24 23 22 17 19 20 24 28 24 21 21 20 17 14 16 13 10 7 5 4 2 2 0 2 4 4 4
15 14 14 15 16 17 18 20 21 24 27 25 21 21 19 18 19 17 17 17 20 21 21 23 22 18 15 14 13 9 9 7 5 4 3 3 1 1 2 3 3 4 5
15 15 14 14 14 15 16 18 20 21 23 22 18 17 15 13 13 14 13 18 20 20 15 17 16 13 11 7 6 6 5 5 4 3 2 3 4 4 3 3 3 5 5
12 12 12 13 13 13 13 15 16 16 16 17 16 16 12 9 12 15 14 15 15 14 12 11 9 8 7 5 5 5 4 3 3 3 3 4 3 4 4 4 6 5 5
9 9 9 9 10 11 11 11 13 13 13 14 14 12 9 9 12 12 11 11 10 9 8 6 6 5 4 3 3 2 2 2 2 2 3 5 5 4 4 4 4 5 7
6 7 7 8 8 8 8 8 8 9 10 10 10 9 7 6 8 7 7 6 6 5 4 4 4 3 2 3 3 3 3 3 2 2 2 2 2 2 3 4 4 4 5
4 4 5 6 5 5 6 7 6 7 7 7 7 6 5 7 7 7 7 7 5 4 4 3 3 3 3 2 3 2 2 2 2 3 3 3 2 2 3 3 4 4 3
2 3 3 4 4 4 4 4 5 5 6 7 7 8 8 8 7 7 6 6 6 6 5 4 3 3 3 3 3 4 5 4 3 3 3 3 3 4 3 4 4 4 6
4 4 4 4 5 5 5 5 5 5 5 5 5 6 6 6 6 5 4 4 4 3 2 1 2 2 3 4 5 5 5 6 5 4 3 3 4 2 2 3 5 6 5
5 4 4 4 4 4 4 3 3 3 2 2 3 5 5 4 3 3 3 4 4 5 5 5 4 4 4 4 4 5 6 5 4 4 4 3 3 3 4 6 6 6 7

GFSGL_850_spd_087.txt.gz
Wind_Speed
25 25 26 26 29 30 30 30 28 31 31 35 37 40 43 46 46 46 43 42 45 45 47 50 49 45 43 41 41 46 46 40 39 48 49 48 44 47 41 38 37 38 40
23 24 25 24 26 30 34 33 32 31 32 33 33 35 40 46 49 50 50 50 50 50 50 51 51 48 49 47 51 50 51 51 54 54 54 53 51 53 50 48 48 46 47
22 22 24 25 27 27 29 32 33 32 33 34 36 38 38 39 44 50 52 52 52 52 51 53 53 51 53 54 53 54 56 58 56 55 57 56 57 55 54 54 50 50 49
21 23 24 24 25 26 25 27 29 33 35 35 37 39 40 41 44 46 51 56 58 58 58 58 58 60 62 59 58 58 58 58 57 57 59 62 60 59 57 56 56 55 54
16 16 19 19 22 24 26 25 27 30 32 33 35 38 42 43 46 47 49 53 56 59 61 63 63 63 64 63 61 64 63 62 61 54 52 50 49 49 56 57 54 54 53
11 14 15 16 18 21 26 30 31 33 35 37 40 41 42 44 45 47 49 49 51 53 56 58 60 60 62 63 62 62 62 59 60 55 52 49 51 49 50 53 50 52 52
9 9 10 10 12 17 22 25 26 29 34 40 43 45 46 47 46 47 48 49 50 52 52 52 53 53 53 54 55 54 54 57 60 61 56 56 54 50 50 48 50 52 54
10 7 3 1 5 8 11 17 25 27 32 36 38 42 47 50 50 49 47 47 49 51 53 53 53 52 52 50 50 51 49 49 52 55 60 62 62 56 55 53 53 54 56
14 14 13 11 8 7 8 12 15 17 21 29 33 42 44 46 45 44 48 49 50 51 51 50 52 52 49 45 45 47 48 48 47 50 52 57 60 60 62 64 64 57 53
14 15 15 14 13 13 13 13 13 15 19 20 24 30 31 43 45 46 46 46 47 48 52 55 52 54 52 50 52 52 53 53 52 54 54 56 60 61 62 64 61 45 44
14 15 17 17 16 15 14 14 15 16 16 14 16 18 28 35 41 46 48 47 48 49 50 54 57 60 54 59 60 58 57 57 55 55 50 42 31 27 26 24 23 25 29
12 14 15 16 18 18 17 15 13 13 14 14 11 13 17 22 27 34 42 47 49 47 38 47 52 58 59 56 56 58 55 55 48 38 26 16 13 12 12 11 11 9 6
9 11 13 15 16 14 14 14 15 14 14 13 13 12 11 14 19 22 25 26 32 33 31 25 16 32 37 39 33 20 22 20 21 20 22 20 14 12 10 8 8 7 5
6 6 8 12 14 13 13 15 15 16 16 14 13 13 12 12 15 15 15 14 10 5 3 2 3 4 9 11 11 14 14 14 14 13 12 12 13 12 8 6 5 5 4
7 8 9 12 14 17 19 21 22 22 18 18 20 17 16 18 18 13 12 12 11 11 13 13 17 21 24 25 21 24 23 21 18 17 16 12 11 8 8 6 4 4 4
9 9 10 12 13 16 19 21 20 20 21 23 23 21 21 17 15 17 16 15 14 13 18 21 24 24 25 23 21 17 19 16 14 11 10 8 8 7 7 8 9 7 5
12 12 12 13 13 15 17 18 21 20 21 22 22 20 18 17 15 15 15 11 11 11 21 24 24 22 22 20 17 16 15 13 8 6 6 5 6 7 6 5 4 5 4
15 15 14 14 14 15 15 16 16 16 19 20 19 18 17 17 16 14 13 11 15 17 19 19 19 18 17 15 13 11 10 7 7 8 6 7 7 6 7 6 5 5 5
14 15 14 14 14 14 13 14 14 15 16 17 15 14 15 12 11 11 10 12 16 16 14 14 13 13 12 10 9 7 6 6 7 6 6 8 8 7 6 6 6 6 6
12 12 10 11 10 10 10 10 11 12 12 12 13 15 12 7 7 10 10 11 12 12 11 10 9 8 7 6 6 6 6 6 6 5 7 7 7 7 5 5 5 5 6
8 8 7 7 7 8 8 9 9 9 10 10 12 11 10 8 9 9 9 8 8 7 6 6 6 6 5 5 5 5 5 5 5 6 6 5 6 5 4 5 5 6 6
6 6 5 5 6 6 7 7 7 8 9 9 9 8 8 7 7 7 7 7 7 7 7 7 7 6 6 5 5 5 5 5 4 4 4 4 4 4 4 5 5 6 6
5 5 5 5 5 5 5 6 6 7 7 7 8 7 7 7 7 7 8 8 7 6 6 6 5 4 4 3 3 3 4 4 4 4 4 4 4 3 4 5 6 7 8
4 4 4 4 4 5 5 6 7 7 7 8 8 7 7 8 7 7 6 6 6 6 7 7 6 6 5 5 5 5 5 5 5 5 5 5 5 5 5 5 5 6 8
5 5 5 5 4 5 6 6 6 6 6 6 7 7 7 7 7 6 6 6 6 6 6 6 6 6 6 6 6 6 6 7 6 6 6 6 6 5 5 5 5 7 8
6 5 5 5 5 5 4 4 5 5 5 6 6 6 6 6 6 6 6 7 7 7 6 6 6 6 6 7 7 7 8 8 8 7 6 6 6 6 5 6 7 7 8

GFSGL_850_spd_090.txt.gz
Wind_Speed
21 19 18 19 20 22 20 20 20 20 20 23 24 28 30 32 34 36 39 39 42 41 44 45 50 50 44 43 45 48 47 45 48 47 44 43 43 37 43 49 47 45 44
17 16 17 17 17 21 22 22 21 20 20 22 24 29 32 35 37 38 39 41 43 44 44 43 43 47 49 48 49 48 47 49 49 51 52 51 51 47 49 50 52 51 50
14 14 15 16 16 18 19 22 23 23 23 23 25 26 28 31 34 37 40 42 45 47 46 46 47 47 48 50 51 54 53 53 54 54 55 56 54 56 56 55 53 55 56
14 15 16 15 14 14 17 17 20 24 25 28 28 29 30 32 34 35 36 40 45 50 52 52 53 54 54 54 54 54 53 54 55 56 57 59 56 57 57 58 59 61 60
9 9 10 10 13 14 17 20 19 18 21 23 27 29 31 34 36 36 38 41 42 44 46 50 54 56 57 56 55 58 58 59 61 56 53 55 57 53 55 61 58 61 58
15 14 14 14 11 13 16 19 20 20 20 22 25 29 33 34 35 36 38 41 44 45 47 49 51 54 57 58 59 60 59 56 60 58 55 51 54 54 52 52 56 52 50
11 9 10 10 13 15 18 20 22 26 23 26 27 27 32 33 36 39 40 43 45 47 48 48 48 49 50 52 54 54 55 56 59 61 57 58 56 55 55 55 56 57 54
13 9 6 4 6 8 11 12 15 19 21 26 28 30 33 34 37 37 36 36 40 43 44 45 47 46 46 48 49 52 52 50 50 51 57 59 63 54 52 54 54 52 53
14 12 11 9 6 3 3 9 12 14 16 18 22 27 28 29 36 42 42 38 41 42 40 42 44 46 46 48 50 51 52 51 51 49 52 55 58 56 60 65 59 48 47
13 13 12 10 9 7 5 4 4 4 5 8 13 19 21 25 31 34 39 39 40 44 48 49 50 54 54 53 52 56 60 57 55 58 57 57 57 59 62 58 55 55 47
11 11 10 10 10 10 9 7 6 6 5 5 5 8 11 14 18 25 30 31 32 32 36 37 42 50 52 53 55 55 52 51 48 45 39 27 29 26 25 24 28 24 26
10 11 13 13 11 8 6 6 5 5 5 5 5 6 8 11 14 17 20 20 20 22 21 24 28 32 37 41 36 34 34 29 29 25 17 12 1 9 9 5 4 3 6
9 10 12 16 16 12 10 9 7 8 8 8 9 10 11 12 13 15 14 12 9 7 4 6 11 16 17 14 7 6 4 5 10 14 15 17 15 13 12 13 14 12 12
8 8 8 9 12 12 12 12 12 13 13 13 13 14 14 15 17 17 15 14 13 11 9 8 8 10 13 15 12 14 14 15 15 17 18 15 16 13 11 12 10 10 8
5 6 7 8 11 13 16 19 19 19 18 18 20 19 20 23 23 19 17 17 16 14 12 14 17 20 21 22 22 20 20 19 17 19 16 15 16 13 13 11 10 9 10
7 9 9 9 12 13 15 17 18 19 20 21 21 21 22 20 17 17 17 16 14 12 15 21 24 23 24 23 21 20 19 17 16 14 13 13 12 11 11 11 10 9 9
11 11 11 11 10 11 12 13 15 16 15 17 17 17 16 15 12 13 13 11 14 13 20 23 23 22 22 20 18 16 15 14 11 10 10 10 11 10 7 8 9 10 10
12 12 11 10 10 11 11 12 11 11 12 15 15 14 14 13 12 13 12 10 14 16 19 19 19 17 17 16 14 13 11 10 10 9 8 9 9 9 8 9 10 10 10
10 10 9 10 10 10 9 9 10 10 11 13 12 13 13 12 10 10 9 11 15 16 16 15 14 13 12 11 11 10 10 9 9 9 9 9 10 9 10 11 11 11 10
7 8 6 6 7 6 6 7 8 8 8 9 9 13 11 6 6 10 11 12 12 13 12 11 11 11 11 11 10 10 10 9 9 9 9 9 9 9 9 9 9 9 10
6 5 5 4 4 4 5 6 7 7 8 8 9 9 8 7 9 9 9 9 10 10 10 10 10 10 9 9 9 8 8 7 7 8 8 8 8 8 8 8 8 8 9
3 3 2 2 3 3 4 5 6 7 8 8 8 8 8 7 8 9 9 10 10 10 9 9 8 8 8 7 7 7 7 7 7 7 7 7 7 7 8 8 8 7 7
4 3 3 3 3 4 4 4 5 6 7 8 8 8 8 9 9 9 9 9 9 9 8 8 8 8 7 7 7 7 7 7 7 8 7 7 6 6 6 6 6 7 7
4 3 3 3 4 4 4 5 6 7 7 7 7 7 8 8 8 9 8 8 8 8 8 8 8 7 7 7 7 7 7 7 8 8 7 7 6 6 5 6 6 7 8
5 5 5 5 5 5 5 6 6 6 6 6 6 7 7 7 7 7 6 6 7 8 8 8 8 8 9 8 8 8 8 8 8 8 8 7 6 6 6 6 6 7 8
6 5 5 5 5 5 5 5 5 6 6 6 6 7 8 8 8 8 9 9 9 9 9 9 9 9 9 10 10 10 10 10 10 9 8 8 7 7 7 7 7 7 8

GFSGL_850_spd_093.txt.gz
Wind_Speed
28 22 21 18 18 21 18 16 16 14 16 21 22 24 23 22 23 26 33 39 40 42 42 39 41 43 45 42 39 39 43 38 41 47 43 41 40 44 44 43 41 42 41
26 21 18 16 15 17 17 15 14 14 14 16 19 21 23 25 25 28 32 38 38 41 40 44 44 44 48 45 46 48 46 49 48 53 47 45 48 48 48 48 48 50 51
21 17 15 14 13 14 15 16 16 15 14 15 16 19 21 25 28 29 31 34 34 37 39 40 43 43 44 44 47 46 48 50 49 53 55 47 45 47 54 57 56 56 57
13 13 11 10 9 10 13 12 15 16 16 18 19 19 20 22 25 27 31 34 36 38 39 40 42 45 47 46 47 48 48 50 47 45 51 54 46 48 45 47 47 50 55
13 11 8 8 8 10 13 14 14 13 16 18 21 22 23 24 27 28 29 31 33 34 36 38 40 42 45 47 49 51 45 43 44 44 45 47 46 45 45 49 50 56 56
14 13 13 11 11 14 16 16 15 16 20 16 19 21 23 25 27 27 29 32 33 34 36 37 39 40 42 45 47 48 48 46 48 50 51 51 53 56 53 49 49 46 47
16 11 12 11 10 12 13 14 14 17 18 19 22 24 22 24 26 29 33 34 35 38 38 40 42 43 42 43 43 44 45 46 49 54 58 59 57 57 58 54 52 53 55
13 12 9 8 7 8 9 10 12 13 16 19 20 20 24 25 29 31 32 31 32 34 34 33 36 36 39 42 43 45 47 45 46 50 56 61 56 52 49 49 53 56 55
12 10 9 9 9 5 5 6 8 8 9 11 12 14 17 21 26 30 32 32 33 35 37 40 45 48 46 45 45 46 47 48 49 48 51 55 55 57 58 60 61 50 49
13 13 9 11 10 6 4 3 2 3 4 5 7 9 12 13 18 21 24 24 22 23 26 30 36 40 44 45 46 48 45 41 42 45 45 49 47 47 50 48 47 44 45
10 9 9 11 10 7 6 4 3 2 2 2 1 2 4 8 10 13 15 16 14 15 18 21 26 32 36 37 40 42 42 38 33 31 29 30 31 29 26 26 23 22 21
8 9 11 12 11 8 6 5 4 4 5 5 5 5 5 7 8 10 10 8 7 9 9 8 11 17 19 19 20 20 19 16 15 15 15 6 3 6 7 6 5 2 3
8 10 13 14 12 10 9 10 9 9 9 10 10 10 12 12 13 15 14 13 12 9 8 9 11 12 11 9 11 7 3 3 7 8 10 12 10 12 11 12 13 13 12
10 12 14 16 16 15 15 15 14 15 15 15 15 17 18 18 19 18 17 17 17 15 13 11 12 13 14 16 15 15 16 14 13 14 15 14 13 10 9 11 9 8 10
10 12 13 15 16 18 20 20 21 21 19 18 19 18 17 19 20 17 16 16 16 15 14 14 16 18 19 20 21 21 20 18 18 17 15 13 12 10 9 9 7 8 10
10 12 13 13 15 16 18 19 20 18 17 18 18 16 16 16 14 13 14 14 13 11 12 17 20 20 20 19 18 17 16 15 14 12 10 8 7 7 8 9 9 9 11
12 12 12 12 13 14 14 15 14 14 13 13 13 13 15 15 13 14 14 12 11 9 13 16 17 17 16 15 14 13 12 11 9 8 9 9 9 9 9 10 10 9 10
12 12 11 12 11 11 11 11 10 9 9 9 10 11 11 11 11 10 8 7 6 8 12 13 13 12 11 10 10 10 9 8 8 9 9 10 10 10 10 11 11 10 10
10 10 10 10 9 9 8 8 7 7 7 7 8 7 8 8 7 5 5 3 6 7 8 8 8 8 9 9 9 9 9 9 9 9 10 10 10 10 10 10 10 10 10
8 8 7 6 6 5 4 4 4 5 4 4 4 5 6 5 2 3 3 5 6 7 8 7 7 7 8 8 8 8 9 8 9 9 9 9 10 9 9 9 9 10 10
6 5 4 4 3 2 2 2 3 2 2 2 2 2 3 2 2 3 4 5 6 7 7 7 7 6 6 7 7 7 7 7 8 8 8 8 8 8 8 8 8 9 9
3 3 3 2 1 1 1 1 2 2 2 2 3 4 5 3 4 5 6 6 7 7 6 6 5 5 5 5 5 6 6 6 6 6 6 6 6 6 7 7 7 7 8
3 2 2 2 2 1 2 2 2 3 3 4 5 5 4 4 5 5 6 6 6 5 5 5 4 5 5 5 5 5 5 5 6 6 6 5 5 5 5 5 5 6 7
2 1 0 0 1 1 2 3 3 3 4 4 4 3 4 4 4 4 4 4 5 5 5 5 5 5 6 6 6 6 6 7 6 6 6 5 4 4 3 4 4 5 7
2 2 1 1 2 2 2 2 2 2 2 2 2 3 3 3 3 4 4 4 4 5 5 5 6 7 7 8 8 8 7 8 8 8 7 6 5 4 3 4 4 6 7
2 2 1 2 2 2 2 2 2 2 3 3 3 3 4 5 5 5 5 5 6 6 7 7 7 8 9 9 9 10 10 9 9 9 8 7 6 5 5 5 5 5 6

GFSGL_850_spd_096.txt.gz
Wind_Speed
31 29 26 24 25 22 18 20 19 18 19 19 21 21 22 25 31 31 29 34 39 38 37 36 39 32 34 32 34 35 40 37 37 39 37 37 35 34 33 37 37 41 42
28 26 22 21 23 25 23 22 19 20 17 19 18 20 19 23 25 25 27 34 36 29 35 40 42 43 38 40 41 44 46 42 44 49 50 49 43 46 45 45 48 45 45
23 22 21 19 20 22 21 18 18 17 16 17 19 20 22 23 24 25 23 24 28 34 37 37 39 41 45 45 44 44 46 48 51 50 46 40 46 43 40 42 45 42 44
22 18 21 20 18 20 17 16 18 18 17 18 19 19 20 21 23 24 24 26 30 31 33 37 40 43 46 43 42 42 37 36 35 38 41 40 37 42 39 41 40 42 47
22 20 18 15 15 15 15 13 12 15 16 17 18 18 18 18 19 24 27 28 30 32 34 36 37 39 41 40 38 39 36 38 40 40 41 44 43 40 41 41 43 44 45
23 23 22 20 17 17 19 19 19 17 16 15 15 15 16 22 27 26 24 24 26 28 30 31 32 34 36 38 40 42 43 44 44 45 45 44 48 47 45 43 44 43 47
19 18 18 19 18 15 13 14 15 17 18 20 21 20 21 23 25 25 26 28 29 30 32 33 34 35 37 40 40 40 40 41 44 48 51 48 47 47 45 46 46 46 48
22 20 15 13 14 13 12 12 11 13 14 15 16 17 18 22 25 26 26 25 26 27 33 34 34 35 35 37 39 40 40 40 41 42 45 54 58 57 56 55 51 50 51
23 22 17 14 10 9 7 8 8 9 10 11 12 14 14 16 21 24 24 23 23 25 29 32 35 38 41 41 41 40 39 38 43 43 44 47 49 50 50 49 49 49 52
19 18 15 12 9 6 6 1 2 4 4 5 6 6 7 8 10 12 14 12 14 16 19 21 25 29 32 36 37 37 36 36 37 37 37 38 39 40 42 39 38 35 31
12 13 11 9 7 4 4 6 7 7 7 6 4 2 1 4 5 5 7 7 8 9 10 10 10 13 17 19 21 21 21 23 23 22 21 20 20 17 17 13 11 10 13
12 11 12 11 10 8 7 8 8 8 7 7 6 6 7 8 8 8 7 5 4 2 1 4 7 9 10 8 5 6 6 6 6 7 6 5 4 8 9 11 9 8 5
11 13 14 12 11 12 10 10 11 11 10 10 10 10 11 11 12 13 14 14 13 11 12 12 12 11 11 11 13 10 9 9 8 7 8 8 9 9 9 10 10 10 9
11 12 14 14 15 15 15 13 14 14 14 13 13 14 14 14 14 14 14 15 16 17 16 15 15 16 16 15 14 15 14 13 12 12 11 10 8 7 7 7 7 5 6
11 12 14 15 17 18 18 19 18 18 15 15 15 13 13 15 17 15 15 16 17 16 14 13 14 14 15 16 16 15 14 14 13 12 10 9 8 8 8 7 7 7 7
10 11 12 12 11 13 16 18 18 16 16 16 15 15 16 15 13 14 16 15 13 11 10 12 14 14 14 13 13 12 11 10 9 8 8 8 8 8 8 8 9 8 8
11 11 11 10 10 11 12 10 11 15 14 13 13 13 13 12 12 14 13 10 8 7 10 12 12 12 11 10 9 9 10 8 7 7 7 6 6 6 7 7 8 8 8
13 12 11 11 11 12 12 11 10 9 9 11 12 11 11 10 10 8 8 5 7 8 10 11 11 11 10 9 9 9 8 8 8 8 7 7 7 7 7 7 7 6 6
9 8 9 9 9 9 8 8 8 7 7 7 7 7 8 8 7 5 5 5 8 9 9 9 9 9 9 9 9 8 8 8 7 7 7 7 6 6 6 6 7 6 6
6 6 6 6 6 5 5 5 5 4 4 4 4 4 5 5 3 4 5 6 6 7 8 8 8 7 7 7 7 7 7 6 6 6 6 5 5 5 5 5 5 5 5
3 3 3 3 3 4 4 4 4 3 4 4 5 5 4 5 5 6 6 6 6 7 7 6 6 6 5 5 5 5 5 5 5 5 5 5 4 4 4 4 4 5 5
3 3 3 3 2 2 2 2 2 3 3 4 5 5 5 5 5 5 5 5 5 5 4 4 4 4 4 4 4 4 4 4 4 4 4 4 4 4 4 4 4 5 5
3 2 2 2 2 2 2 2 3 3 3 3 3 3 4 4 4 4 4 4 3 3 3 3 3 3 3 4 4 4 4 4 4 5 5 4 4 4 4 4 4 4 4
2 3 2 2 2 3 4 4 3 3 3 4 4 4 3 3 3 3 3 3 3 3 3 3 3 4 4 5 5 5 5 5 5 5 6 6 5 5 5 5 5 6 5
3 3 3 3 3 3 3 2 2 2 2 2 2 2 2 3 3 4 4 5 4 5 5 5 5 6 6 6 6 6 6 7 7 7 7 7 7 6 7 6 6 5 7
2 2 2 2 2 2 2 2 2 2 2 2 3 3 4 4 5 5 6 6 6 7 7 7 8 8 8 8 8 8 8 8 8 9 9 8 8 7 7 7 8 6 7

GFSGL_850_spd_099.txt.gz
Wind_Speed
33 33 29 22 20 20 22 19 19 20 21 23 22 21 28 31 37 36 34 35 34 34 36 40 37 32 30 32 34 37 38 34 34 31 27 31 27 25 23 25 29 37 44
29 31 26 23 21 24 22 20 22 20 18 20 22 21 21 23 30 32 38 34 33 37 35 35 38 38 40 29 29 26 29 31 32 37 38 46 49 47 46 49 50 54 46
29 26 23 22 22 24 21 20 20 19 19 19 19 23 22 21 22 21 25 36 32 30 34 31 27 32 38 37 35 29 32 36 40 44 49 46 49 52 49 48 44 44 47
25 25 20 19 19 23 20 19 16 16 16 16 16 15 18 19 19 19 21 25 25 25 26 27 29 32 33 35 32 40 38 42 44 47 52 45 42 46 39 39 39 39 42
26 26 23 19 18 17 21 18 19 21 17 16 17 16 13 15 21 21 20 21 23 22 22 27 34 34 32 34 37 40 42 41 40 42 44 42 40 36 36 37 37 39 38
22 26 23 22 21 25 21 23 20 21 22 19 19 19 21 22 22 23 25 27 26 28 29 30 30 30 32 35 37 37 37 39 39 39 38 37 41 39 37 36 36 35 36
19 19 20 22 23 24 23 22 23 22 21 20 20 20 21 24 23 24 24 23 23 22 24 25 26 29 32 33 33 33 31 34 39 43 48 49 46 40 36 33 35 40 45
24 19 15 14 18 23 24 24 24 22 23 24 23 22 21 22 22 22 25 27 29 32 33 31 32 33 36 37 36 34 35 38 39 39 39 41 42 43 43 43 47 49 48
29 22 20 17 13 14 19 16 19 18 16 16 16 17 15 15 18 20 22 23 24 25 26 28 31 34 36 36 35 32 31 31 33 34 35 35 36 36 37 36 36 37 38
23 19 20 16 18 14 17 18 16 15 12 12 8 6 5 2 3 5 9 10 12 13 12 13 16 19 21 24 25 24 24 25 25 25 26 26 25 24 24 22 20 20 18
16 16 11 16 11 17 14 16 13 12 7 10 9 7 7 6 4 4 6 9 9 8 6 5 6 10 14 15 15 16 15 14 13 11 11 11 11 12 11 10 8 7 7
11 11 12 12 10 11 12 10 10 8 7 7 8 7 6 9 8 9 7 4 6 5 4 1 2 2 3 2 1 4 5 3 1 1 2 4 6 7 9 9 9 9 8
10 11 15 16 13 14 11 13 12 10 11 13 14 11 10 12 15 16 15 14 12 11 11 11 11 10 10 10 11 8 6 6 5 4 6 8 8 8 8 8 9 9 9
12 16 17 15 15 15 16 14 15 15 13 14 13 13 14 13 13 12 11 14 15 15 15 13 12 12 11 11 10 11 11 11 11 11 11 10 9 8 8 8 9 8 8
13 13 14 16 19 20 20 18 19 17 15 16 14 13 15 17 17 15 13 13 13 13 11 11 11 12 13 13 12 12 11 11 11 11 10 9 9 10 10 9 8 8 7
11 11 12 11 12 14 17 18 20 17 15 15 15 15 17 17 16 13 12 11 10 9 10 11 12 12 13 12 12 11 10 10 10 9 9 9 9 9 9 9 9 10 9
11 10 9 9 10 9 9 8 12 15 14 12 13 13 13 14 12 11 9 7 6 6 9 10 11 12 11 11 10 10 10 10 9 9 8 9 8 9 8 8 8 8 8
11 10 9 9 9 9 9 9 9 8 9 12 11 10 9 8 7 5 6 5 8 8 10 10 10 10 11 9 9 9 8 9 9 9 9 9 9 8 8 9 8 7 8
7 9 9 8 8 9 9 9 9 8 8 8 7 7 6 5 5 4 2 6 9 9 9 10 10 9 8 8 8 9 9 9 9 8 8 8 9 9 8 8 8 11 10
7 7 7 6 6 7 7 8 8 8 7 6 6 6 7 5 7 7 7 8 8 9 9 8 8 7 7 8 8 7 7 7 8 8 9 9 8 8 8 7 9 9 9
7 8 8 7 7 7 7 7 6 6 6 5 5 5 5 6 7 7 7 8 8 8 7 6 5 5 6 6 6 6 5 6 6 8 8 7 9 8 8 8 8 8 9
6 6 6 5 5 5 6 5 5 5 5 5 5 6 8 8 7 7 6 5 6 6 5 5 4 5 4 5 5 5 6 6 6 6 6 7 8 8 7 8 9 8 8
5 4 4 4 5 6 5 5 5 5 5 5 5 5 5 5 5 6 5 4 4 4 3 3 3 4 4 5 5 5 5 6 7 7 7 6 6 8 5 7 7 8 7
4 5 4 4 3 4 4 5 7 5 5 4 4 4 4 4 4 4 3 3 3 4 4 4 5 4 5 6 6 7 7 7 7 8 8 7 6 6 4 5 5 8 9
4 4 3 3 2 3 4 3 3 3 3 2 2 2 2 2 3 3 4 5 4 5 6 6 6 7 7 7 7 7 7 7 8 8 8 8 7 8 7 8 8 8 7
3 2 2 2 2 2 1 1 1 1 1 1 1 2 2 3 4 3 6 6 6 7 7 8 8 8 7 9 8 8 8 9 9 10 10 10 8 8 7 8 7 9 7

GFSGL_850_spd_102.txt.gz
Wind_Speed
21 21 36 29 30 26 26 22 20 16 18 21 24 27 29 27 25 27 29 31 26 35 33 36 36 35 33 33 31 32 32 27 24 27 25 19 20 20 24 26 26 27 29
15 27 34 22 28 26 22 22 20 18 16 16 21 24 24 31 31 34 33 30 29 34 33 32 33 31 30 29 29 36 35 35 35 37 39 36 37 36 37 38 41 45 44
16 22 31 23 24 24 20 19 20 20 18 15 19 21 24 24 30 34 34 31 33 32 33 33 29 32 36 35 34 30 30 32 29 29 33 35 37 38 41 41 41 42 42
14 18 27 31 25 22 21 23 19 20 17 16 16 17 20 20 24 28 32 34 36 36 31 28 30 33 28 25 29 35 36 26 27 30 33 34 38 38 36 34 37 39 39
17 24 23 22 23 21 21 18 19 18 17 17 17 14 13 21 24 22 24 22 21 26 28 24 22 21 20 28 26 25 29 31 33 37 42 42 41 41 39 32 34 33 33
17 21 24 23 22 23 26 19 22 24 25 22 24 27 24 23 22 22 21 20 18 20 20 21 21 23 30 30 31 30 29 31 33 34 34 34 26 27 28 27 27 26 31
18 16 18 20 22 21 24 23 25 25 23 23 27 24 23 25 25 23 20 20 22 24 26 22 23 26 27 28 29 32 31 35 37 40 43 44 45 47 48 43 43 42 42
31 26 19 14 16 16 17 20 23 24 25 26 22 23 23 23 22 21 20 22 24 25 24 23 26 27 28 28 28 31 31 32 32 33 34 32 32 33 33 34 34 34 31
31 31 27 24 21 18 14 11 14 19 23 25 22 21 22 23 25 26 25 26 30 29 30 31 29 27 28 31 29 25 24 25 28 29 29 29 29 30 29 27 24 22 21
26 25 22 22 21 23 23 20 14 17 16 15 14 12 10 9 8 11 17 14 14 14 14 12 16 20 22 20 20 20 18 14 16 16 14 14 13 13 14 13 10 11 10
19 18 17 16 19 17 15 14 12 13 13 13 17 16 13 9 9 1 3 2 6 3 5 2 4 1 5 7 7 7 8 6 4 4 3 4 5 6 7 6 5 5 5
16 16 15 16 14 14 12 10 7 11 13 8 12 9 16 16 13 8 8 7 7 9 8 7 9 10 10 9 7 10 10 7 6 4 3 3 3 4 5 6 6 7 7
18 17 17 15 15 13 11 11 12 12 15 12 12 13 15 15 16 15 14 14 12 12 13 12 13 13 13 13 14 10 8 8 7 7 8 9 9 9 8 8 7 7 8
18 21 21 19 16 14 14 15 14 16 13 14 17 17 17 17 14 14 15 16 17 18 17 15 15 16 15 15 14 13 13 12 12 13 13 11 10 10 9 8 9 7 7
13 16 19 20 22 19 18 19 18 16 12 13 16 16 17 17 17 15 14 14 13 13 12 11 12 14 15 14 13 12 11 10 10 10 9 8 8 9 9 8 7 6 7
13 13 14 14 14 16 18 20 19 15 13 14 16 15 18 18 16 13 11 10 10 8 11 13 15 14 14 12 10 10 8 8 7 6 6 7 8 7 6 6 7 7 8
11 10 9 9 8 11 12 12 13 15 14 13 13 13 13 13 13 14 11 8 9 7 10 12 13 11 10 8 7 6 7 7 5 4 5 6 6 6 6 6 5 5 7
10 10 9 9 10 10 9 9 9 8 11 13 12 11 10 9 9 9 7 5 7 8 10 11 11 10 8 8 6 6 6 5 4 4 4 5 5 5 4 7 8 7 5
7 9 10 10 10 10 9 9 8 6 4 4 5 7 8 5 5 4 4 5 8 9 8 8 7 7 7 5 6 7 6 6 7 6 5 5 5 6 6 6 3 4 4
9 8 8 7 7 7 6 6 5 3 3 3 4 7 6 3 4 4 5 6 5 6 5 4 4 5 5 5 3 4 2 2 3 3 3 5 4 4 4 4 6 6 8
7 7 6 5 5 5 5 5 5 4 8 7 7 6 7 4 5 4 4 5 5 5 4 2 3 3 4 4 1 2 0 1 1 1 2 5 6 6 4 7 3 2 6
3 5 6 5 5 4 5 3 3 3 4 5 7 6 6 5 4 3 4 4 3 2 3 2 1 2 2 2 0 2 3 3 2 0 1 1 3 3 1 1 7 5 6
4 2 3 1 6 3 1 3 6 3 2 2 1 2 2 1 3 0 2 2 3 2 1 1 2 3 3 3 5 4 4 4 5 5 3 2 2 4 3 3 3 7 9
3 2 5 8 2 1 3 6 6 3 2 1 2 3 2 2 3 5 4 1 3 4 4 4 3 2 3 5 6 6 5 5 5 6 6 7 6 6 4 5 6 7 5
3 2 2 2 1 1 2 1 1 1 1 1 1 1 2 2 3 5 7 5 2 4 5 6 5 6 5 7 6 6 7 7 7 8 8 8 8 6 5 5 5 8 5
3 3 3 3 3 3 3 2 3 3 2 2 2 2 2 4 6 4 7 7 5 4 5 8 8 6 7 9 9 8 8 8 9 9 9 9 10 10 10 9 9 9 6

GFSGL_850_spd_105.txt.gz
Wind_Speed
20 30 32 30 33 31 33 33 29 25 22 24 24 23 19 16 13 16 23 34 36 35 37 36 30 30 33 33 33 29 32 32 27 28 20 14 17 18 18 21 22 24 26
17 20 21 21 34 30 31 31 26 22 20 22 25 24 22 21 16 23 25 24 28 31 33 32 31 34 34 33 36 39 37 39 35 32 28 28 24 24 28 27 24 26 30
13 14 20 26 27 27 30 26 21 18 16 18 24 26 28 27 25 25 27 29 33 31 29 33 34 35 35 35 32 31 28 31 32 33 35 33 32 29 27 30 33 34 35
5 14 16 24 24 23 21 17 18 20 20 18 16 23 23 24 25 32 31 32 32 31 33 31 35 34 34 30 34 32 29 28 27 28 32 32 31 30 29 30 34 27 26
8 10 15 18 18 22 19 19 19 19 19 16 14 17 20 24 23 25 28 31 33 32 31 33 32 28 25 29 30 30 29 31 36 33 28 29 32 31 35 30 27 24 24
13 11 7 14 19 21 24 24 21 21 18 19 20 21 22 24 25 22 25 24 29 26 28 30 30 27 21 21 24 25 25 23 22 27 32 33 33 32 30 27 18 21 28
23 21 16 10 20 24 23 26 27 28 23 24 23 24 25 21 22 21 20 22 23 23 23 21 23 24 24 26 27 25 29 30 32 31 32 31 29 26 28 33 37 36 40
30 28 26 21 14 16 17 18 20 26 24 27 24 23 21 24 23 23 24 23 23 24 25 25 25 30 31 33 34 35 32 31 32 32 34 35 36 36 36 29 26 24 23
28 26 27 28 26 21 18 15 18 17 18 17 15 13 14 15 20 24 27 29 28 26 24 23 22 25 29 27 27 28 24 24 25 24 22 22 21 24 25 24 20 18 17
21 22 21 20 24 26 28 26 24 20 19 15 13 10 7 8 8 12 13 18 20 18 16 18 24 23 25 24 20 24 24 18 13 14 10 8 6 4 4 6 8 10 11
19 16 16 14 19 19 21 18 21 18 18 18 16 15 14 12 10 10 10 9 9 10 8 7 5 5 3 2 3 7 11 11 10 8 6 3 3 3 2 2 2 3 3
16 14 14 13 14 14 12 14 15 14 14 14 13 15 15 12 8 7 7 8 13 12 11 9 8 4 1 7 9 9 9 9 9 8 7 7 6 6 6 6 6 6 5
20 19 17 14 12 11 11 12 11 13 12 14 15 17 18 18 15 12 11 8 6 11 13 14 10 8 10 12 13 11 12 11 9 9 10 10 10 10 9 9 7 6 5
18 21 21 18 16 15 15 15 14 16 14 15 17 18 18 17 14 14 15 15 15 14 14 16 14 15 15 15 13 13 14 13 12 12 12 12 11 9 7 6 5 4 3
14 15 17 19 20 18 18 20 18 18 15 16 17 17 17 17 14 13 12 12 13 13 12 13 13 13 13 12 12 12 11 10 9 8 9 8 6 5 6 5 4 2 1
10 11 12 13 14 17 18 18 19 16 15 15 15 14 18 16 13 12 11 12 12 10 11 12 12 11 11 10 9 9 7 6 7 5 5 5 4 3 4 5 3 3 3
11 9 7 7 10 12 12 13 15 16 14 13 13 14 14 13 12 9 7 7 8 7 8 10 9 8 8 7 7 6 5 5 4 4 3 3 2 3 4 5 5 4 4
12 13 10 10 9 7 7 8 8 9 11 11 11 11 9 9 8 5 6 5 7 7 7 8 8 7 5 5 6 5 4 3 3 4 4 3 3 2 2 4 4 4 3
8 9 9 9 7 7 6 4 4 3 3 3 4 3 6 4 2 2 2 3 5 6 6 5 4 4 4 3 2 4 3 3 4 4 4 4 3 2 2 3 1 2 1
10 5 4 3 3 3 3 1 2 3 3 3 5 2 1 2 3 4 4 4 4 4 4 3 3 3 3 3 3 1 1 2 1 1 2 3 2 0 2 3 2 3 3
6 7 6 5 2 0 1 1 3 4 5 5 4 2 1 2 2 3 4 3 3 2 2 2 4 4 4 2 2 3 2 3 3 1 1 2 2 2 1 1 1 5 9
3 3 5 6 3 3 1 0 2 5 4 3 2 1 2 3 1 1 3 4 4 3 2 1 0 2 2 2 3 2 1 1 1 2 3 4 4 3 3 5 5 5 6
3 4 3 4 2 1 3 2 3 2 2 3 3 2 3 4 3 3 3 1 1 1 2 3 3 3 2 2 2 2 3 2 1 1 3 5 6 4 5 6 7 7 7
4 4 3 2 4 3 1 2 3 3 3 2 2 3 3 3 3 2 3 5 3 2 2 3 3 4 5 4 4 4 4 4 4 4 4 4 6 6 6 7 9 9 8
5 5 4 4 4 2 2 3 3 4 4 4 5 5 5 6 8 8 6 4 5 6 5 5 6 5 5 5 6 6 5 5 5 6 7 8 8 8 8 10 8 7 6
6 6 7 6 6 6 6 5 5 5 6 6 6 7 7 7 8 9 9 5 5 6 7 8 7 7 7 8 8 7 6 6 7 7 8 8 8 9 10 9 9 10 10

GFSGL_850_spd_111.txt.gz
Wind_Speed
7 6 12 22 26 26 35 38 36 36 34 32 26 26 28 29 32 33 29 28 25 24 29 37 28 33 39 44 46 38 31 29 27 27 29 29 29 24 23 22 22 21 21
11 5 3 10 14 22 26 30 29 32 32 31 29 26 27 27 30 27 27 23 24 24 28 34 32 35 36 50 43 42 35 32 28 26 24 28 25 26 23 22 23 25 24
17 11 7 5 11 15 14 23 27 29 31 33 32 29 28 26 26 26 23 21 22 23 26 32 34 37 33 40 46 40 35 32 29 27 27 23 23 24 27 30 30 28 20
20 16 12 8 5 10 18 19 21 28 32 33 34 31 26 24 24 23 21 19 18 18 22 33 32 34 39 44 42 36 35 31 32 32 31 30 30 28 32 29 29 28 24
24 19 16 14 9 8 13 17 22 28 29 32 31 25 20 20 22 23 21 18 19 19 16 24 33 34 27 29 35 41 34 33 34 38 35 30 29 31 32 31 31 26 26
34 28 23 20 17 11 8 8 20 29 29 34 25 25 20 22 25 24 24 23 21 22 24 22 21 22 22 24 26 28 31 32 36 37 32 36 32 30 25 24 24 26 26
34 35 31 26 23 20 15 8 11 12 23 24 29 24 20 20 21 23 22 24 25 27 27 27 29 28 29 33 33 29 32 30 29 28 29 31 30 28 28 27 27 29 30
30 30 31 32 30 27 23 17 13 6 4 8 16 19 23 23 21 22 23 23 25 25 27 29 26 31 34 30 31 31 30 29 30 28 29 29 27 26 27 27 28 28 29
28 27 27 27 28 28 30 27 24 20 15 12 8 3 9 15 23 25 25 25 26 25 24 27 27 27 28 27 26 28 30 28 25 27 29 32 31 30 29 28 27 26 26
25 23 21 21 22 24 24 24 23 23 21 19 17 16 16 5 4 4 20 23 27 25 23 21 25 23 22 23 24 26 27 24 24 27 27 30 32 31 31 28 26 23 24
23 20 19 19 20 20 18 18 19 19 18 18 18 16 15 17 16 11 7 8 9 15 14 12 12 14 17 16 15 18 20 21 17 14 11 8 7 8 8 9 10 12 12
23 22 22 22 20 18 16 15 15 16 17 19 18 18 16 17 17 13 13 12 15 11 12 13 14 8 6 7 10 13 10 9 12 11 8 7 6 6 6 3 2 4 8
21 24 24 22 22 20 17 17 16 15 16 17 17 19 20 19 14 11 12 9 10 11 15 14 12 8 8 9 8 8 8 8 9 10 9 8 6 7 7 7 6 4 3
19 20 22 23 22 20 18 18 17 18 17 15 15 17 17 17 17 16 14 14 12 12 13 10 12 11 13 14 12 10 10 8 7 11 12 12 11 10 7 7 6 5 3
17 18 19 19 20 19 17 16 16 16 15 14 14 13 14 15 15 13 12 12 11 11 9 11 13 12 13 14 14 13 12 11 11 12 11 7 6 6 5 3 2 1 2
16 16 16 16 17 16 15 14 13 13 10 9 10 11 11 10 9 10 9 8 9 8 6 9 11 10 10 11 9 9 8 7 7 7 6 5 5 4 4 3 0 1 1
15 15 15 14 14 14 14 12 12 10 8 7 7 6 6 7 7 7 7 8 7 6 5 7 8 8 8 7 5 5 5 5 4 3 3 3 2 2 2 2 2 1 1
14 13 14 14 13 12 12 12 12 10 8 6 4 5 5 5 5 4 4 5 3 4 6 6 6 6 5 4 5 5 4 4 4 3 3 3 4 3 2 2 1 1 1
15 13 13 13 13 12 12 12 13 13 11 9 7 7 7 7 6 6 5 3 4 4 5 5 6 5 5 5 5 4 4 3 3 2 2 2 3 2 2 1 2 2 2
13 13 13 13 13 12 12 12 13 12 10 8 8 9 9 8 6 5 4 4 4 4 4 3 3 3 3 3 3 3 2 2 1 1 1 1 2 2 1 1 2 2 3
13 14 14 14 13 11 11 11 12 12 12 10 10 10 10 9 7 6 4 3 3 3 3 2 2 2 2 2 2 2 2 2 1 1 1 1 2 2 3 3 4 5 6
13 14 14 14 13 12 10 11 11 10 10 11 12 12 11 10 8 7 6 5 4 3 2 2 2 2 2 2 3 3 3 2 2 3 4 3 3 4 5 6 6 7 8
14 14 14 13 12 11 11 10 10 9 9 9 10 11 11 10 9 7 6 5 4 4 3 3 2 3 3 3 3 3 3 3 3 3 4 4 5 5 6 7 9 9 10
13 13 12 12 11 11 11 11 10 10 10 9 9 9 10 10 10 9 8 7 6 4 4 4 4 4 4 4 4 5 5 4 4 5 6 5 6 7 7 7 8 9 9
12 12 12 11 10 9 8 9 9 12 12 12 11 10 10 10 10 10 10 9 7 5 4 3 4 5 5 6 7 7 7 6 6 6 7 7 7 8 8 8 9 10 10
12 12 12 11 10 10 10 10 9 11 11 12 12 11 11 11 11 12 11 11 9 8 6 5 6 6 6 6 7 9 10 8 8 8 8 8 9 9 9 9 10 10 10

GFSGL_850_spd_114.txt.gz
Wind_Speed
7 5 6 11 16 23 29 32 35 38 41 39 36 33 31 31 30 34 35 35 35 34 33 34 35 30 31 32 43 46 45 38 34 34 32 37 31 28 26 29 30 25 22
14 8 6 4 8 11 18 22 24 29 33 34 32 31 31 31 30 33 34 34 35 33 30 27 27 27 26 32 41 42 40 40 37 33 30 33 38 36 25 22 24 25 24
15 11 8 6 0 7 14 17 24 22 25 27 27 28 30 33 31 30 32 33 32 29 26 27 25 25 29 32 37 39 41 44 39 33 29 27 27 34 30 25 21 23 32
22 18 15 11 10 4 4 12 16 18 16 19 23 27 30 34 32 31 30 28 27 24 23 23 25 24 23 33 35 38 43 41 34 30 29 31 29 27 29 30 28 29 29
28 24 22 17 14 10 6 6 8 13 17 20 22 27 28 34 34 30 28 26 23 21 21 19 21 20 25 26 35 32 41 43 40 34 32 33 34 34 35 33 32 34 37
35 33 28 25 21 17 14 11 7 9 14 22 23 27 30 32 29 22 25 26 21 20 20 20 16 16 25 32 35 34 43 39 39 40 34 38 38 40 41 36 34 39 29
30 31 33 32 31 28 21 19 16 8 5 6 8 22 24 20 24 23 26 24 22 22 20 19 21 21 18 24 30 34 32 37 37 35 39 40 41 43 40 33 31 37 38
28 28 29 30 31 31 29 27 23 19 15 12 8 5 4 8 14 21 27 22 22 23 23 25 26 23 24 24 24 26 27 31 37 43 43 42 41 38 33 34 33 32 33
28 28 28 26 27 28 29 28 27 24 22 21 19 15 9 12 16 10 16 17 21 22 23 23 25 27 30 29 29 32 32 32 34 34 36 35 32 32 33 33 32 33 32
30 27 24 24 25 25 25 25 24 23 22 19 20 19 17 17 17 14 7 3 8 11 15 18 21 23 25 30 29 29 27 24 25 27 29 31 32 31 30 29 30 31 34
28 26 25 24 23 23 21 21 22 22 21 22 23 23 22 22 21 19 19 14 11 4 3 3 4 9 13 22 22 22 21 20 18 15 15 15 16 19 23 24 24 24 24
25 26 27 26 25 22 21 20 20 19 20 22 24 25 24 22 20 20 21 20 15 11 12 13 13 8 4 4 7 11 12 13 11 12 12 13 13 13 11 11 11 11 11
22 24 25 25 24 23 23 22 22 21 22 22 22 23 24 23 24 23 20 18 15 13 15 16 13 8 9 13 14 14 13 11 11 11 12 12 10 11 10 10 9 9 10
21 23 23 23 23 23 22 22 21 22 22 22 21 21 20 20 21 21 20 18 16 15 12 11 10 9 11 10 11 12 12 11 12 12 13 13 11 12 11 11 8 8 6
21 22 22 22 22 21 20 20 19 19 18 18 18 18 18 18 18 16 15 14 14 13 10 9 9 11 12 12 13 14 13 12 13 13 13 12 12 11 11 10 7 5 5
21 21 21 20 20 18 18 17 16 14 13 14 13 13 13 12 12 12 12 12 11 9 6 7 9 10 11 11 11 12 11 11 12 10 9 8 7 6 5 5 6 5 6
20 19 18 18 18 18 17 16 16 15 13 12 12 12 12 12 11 11 11 11 9 7 5 7 9 9 10 9 9 9 8 8 7 6 5 5 5 5 5 6 6 6 7
17 18 18 18 17 16 17 18 18 17 14 11 10 11 11 9 9 9 7 7 4 4 6 7 7 8 7 8 8 7 7 8 6 7 6 6 7 6 5 5 5 4 4
16 16 16 16 16 15 15 16 16 16 15 13 11 11 11 10 9 8 6 4 5 5 6 5 6 6 6 6 6 6 6 5 6 6 6 6 6 5 4 4 3 3 3
14 15 15 16 15 14 14 14 15 15 14 14 13 13 12 10 7 6 6 5 4 4 4 4 4 4 4 4 4 5 4 4 5 5 5 6 6 5 5 4 4 3 3
14 15 15 15 15 14 13 13 13 13 13 14 15 14 13 11 9 7 5 4 4 3 3 2 2 2 2 3 3 3 2 2 3 3 4 4 4 4 4 3 3 4 4
14 14 14 14 13 12 11 12 11 11 11 12 12 13 13 12 9 7 5 4 2 2 3 2 2 1 1 1 1 1 1 1 2 1 1 2 2 1 2 2 3 3 3
14 14 14 13 13 11 10 10 10 9 10 10 10 11 11 12 11 9 8 6 4 3 2 1 1 1 1 1 1 1 1 1 1 0 0 0 1 1 2 2 3 3 3
13 13 13 13 13 12 10 8 9 9 10 10 9 9 10 9 10 10 9 8 6 4 3 3 3 2 2 3 3 2 2 2 2 2 2 2 2 3 3 3 2 3 4
13 13 13 13 12 12 10 8 8 9 11 12 11 10 9 9 9 9 9 9 6 5 3 2 3 3 4 4 4 4 3 2 2 3 3 4 4 4 4 4 4 5 5
13 15 16 14 12 11 11 10 11 12 12 11 12 12 10 10 10 9 9 7 7 5 5 4 4 5 5 6 6 7 6 5 4 4 5 5 5 5 5 5 5 5 5

GFSGL_850_spd_117.txt.gz
Wind_Speed
9 7 2 4 8 14 18 25 31 24 31 34 33 32 33 34 33 33 36 35 36 35 37 36 36 34 35 35 35 39 38 39 39 27 37 39 37 46 38 36 32 32 29
13 10 7 4 1 5 8 13 21 24 19 21 24 28 34 32 33 33 34 37 36 37 36 35 35 35 37 33 33 34 34 32 41 36 34 32 39 37 35 34 32 34 36
17 14 11 9 4 3 5 7 12 16 20 20 20 22 25 28 31 31 32 36 34 35 34 33 34 36 30 29 28 30 29 29 38 39 35 33 36 36 39 39 33 31 35
23 20 18 16 13 10 5 4 6 7 13 19 20 18 15 18 22 27 30 34 35 34 34 33 32 28 28 27 27 26 28 31 35 40 37 34 36 38 37 44 34 29 30
32 28 26 21 18 15 10 8 5 1 7 8 11 16 17 19 22 26 29 35 41 35 27 28 25 26 25 26 28 29 34 35 39 39 36 33 33 33 34 40 43 38 32
32 34 31 29 25 22 19 16 10 9 6 6 7 10 13 18 23 26 29 28 28 28 19 24 24 23 21 21 19 23 25 29 37 39 40 36 35 36 32 35 41 36 34
30 30 31 32 31 30 25 21 20 18 13 10 7 5 8 13 19 26 28 28 23 25 20 22 24 23 20 19 16 30 35 35 36 38 41 40 37 35 32 39 40 41 43
28 29 28 29 30 29 29 28 26 24 22 19 17 15 13 12 11 12 20 27 20 23 28 26 28 25 25 22 20 21 32 34 35 37 40 39 38 36 34 42 42 45 45
32 29 27 26 26 26 27 28 28 26 25 24 21 20 19 20 17 13 10 10 11 13 14 21 26 24 27 23 23 26 31 32 33 39 38 38 42 42 40 41 41 43 46
31 29 27 25 23 24 24 25 25 25 25 23 23 25 24 24 25 21 14 6 3 5 6 7 14 21 20 23 26 26 26 29 29 33 35 40 41 40 41 40 38 38 42
27 26 25 24 23 22 20 20 20 20 20 22 23 24 24 23 23 23 21 19 15 10 7 8 10 10 6 12 16 20 20 21 18 21 21 22 26 29 28 31 30 29 31
24 23 23 22 21 20 19 19 19 19 20 22 23 24 25 25 25 24 22 20 17 16 17 16 14 14 10 5 2 6 8 9 10 8 10 10 12 13 15 16 19 23 23
19 22 22 21 21 21 20 20 20 21 22 23 24 24 23 22 21 21 20 20 20 18 19 17 14 13 12 13 14 11 8 8 9 11 12 12 12 16 16 14 14 14 16
19 19 22 22 23 22 21 21 21 21 21 21 21 20 19 19 19 19 17 16 15 16 15 13 12 12 13 12 11 12 11 10 10 12 12 14 12 13 15 14 13 14 13
18 20 20 20 20 20 21 21 19 18 18 18 18 17 18 19 19 17 15 14 13 13 11 10 11 13 13 15 15 15 15 14 13 14 11 11 10 7 10 11 12 12 13
20 20 20 19 17 17 16 16 15 14 14 15 15 15 13 12 12 13 13 12 10 9 6 8 10 12 13 13 13 13 12 12 13 11 10 9 9 8 9 11 11 10 11
18 18 18 18 18 17 17 17 15 14 13 13 12 12 12 12 11 10 11 11 10 7 5 8 10 10 10 10 9 9 9 9 9 7 7 7 6 8 9 11 12 12 14
15 16 16 17 17 16 17 17 16 16 15 14 13 13 12 10 9 9 8 7 4 5 7 8 8 8 8 8 8 8 9 9 8 9 8 8 8 8 9 9 9 9 9
14 14 15 15 14 14 14 15 15 15 15 14 13 11 11 10 9 7 6 4 5 5 6 6 7 7 7 6 6 7 7 6 7 7 7 7 7 6 7 7 8 8 7
13 13 13 13 13 13 13 13 13 13 14 15 15 14 12 9 6 6 6 5 4 4 4 4 3 3 3 4 4 4 5 5 6 6 6 7 7 7 6 6 6 6 6
13 12 12 12 12 12 12 11 12 12 13 13 14 14 14 13 10 8 7 5 4 3 3 2 2 2 2 2 2 2 3 3 4 5 5 5 6 5 5 5 4 5 5
12 12 12 12 12 11 10 10 10 10 11 11 12 12 13 13 11 9 8 6 4 3 2 1 1 1 1 1 1 1 2 2 3 3 4 4 4 3 3 3 3 3 3
13 12 12 12 12 11 11 10 8 9 9 10 10 11 11 11 11 9 8 6 5 4 3 2 1 0 0 0 1 1 2 2 3 4 4 4 3 3 3 2 2 1 2
13 13 12 13 13 12 12 10 8 8 9 9 11 11 10 9 9 9 9 8 6 5 3 2 2 1 1 1 1 1 2 2 3 3 3 3 3 3 3 2 2 2 2
15 14 14 14 13 12 11 11 11 9 8 11 12 12 11 10 9 9 9 8 7 6 5 3 3 3 2 2 2 2 2 3 3 3 4 4 4 4 4 3 3 3 3
17 16 15 16 15 14 13 12 11 11 11 11 11 13 11 10 10 10 8 7 6 6 6 5 5 5 4 4 3 3 3 3 5 5 4 4 5 4 4 4 4 4 3

GFSGL_850_spd_120.txt.gz
Wind_Speed
19 15 9 6 6 9 16 20 26 26 27 23 23 24 26 27 29 33 35 29 35 38 36 35 35 35 37 37 33 34 35 34 37 36 29 35 41 40 37 40 47 42 32
22 20 17 11 7 2 2 7 12 20 23 20 13 16 21 22 27 29 33 36 39 37 39 40 37 37 37 37 36 37 36 36 38 37 37 39 41 39 37 39 47 46 37
23 20 17 15 11 8 4 1 2 6 12 18 14 16 14 15 23 28 33 35 37 37 40 41 37 39 38 37 37 37 30 33 33 34 37 38 37 36 33 36 45 47 46
27 25 23 20 16 13 10 7 4 2 5 11 15 19 18 20 22 26 29 31 32 34 35 39 39 40 39 37 38 34 32 32 29 30 34 37 37 35 32 37 39 42 39
33 32 32 27 22 19 15 12 9 6 5 2 3 8 14 22 25 26 26 26 28 30 31 37 41 44 39 33 29 29 29 31 30 32 34 35 35 36 37 40 42 43 44
31 33 32 30 28 26 24 21 17 15 13 8 6 4 6 10 16 21 24 23 26 29 31 33 35 29 27 27 27 27 28 28 31 31 33 38 39 38 39 42 42 37 40
29 31 31 30 30 31 28 26 26 24 20 18 16 14 11 9 9 14 19 20 22 25 29 30 31 29 28 27 27 25 27 29 31 34 32 33 36 37 37 38 38 42 45
31 29 27 28 28 27 27 28 28 27 26 24 22 20 18 16 12 9 7 4 9 16 21 24 30 31 31 29 30 27 26 26 34 39 38 36 37 35 38 35 37 37 41
31 29 28 25 25 24 25 25 25 23 23 24 23 22 22 22 21 16 12 8 4 2 7 11 13 17 27 30 31 32 29 28 30 36 41 39 38 38 36 37 38 37 43
28 27 26 25 24 23 22 21 21 21 22 22 22 22 22 22 21 22 20 16 12 10 7 4 8 9 14 17 24 22 25 26 27 27 34 37 38 39 40 41 44 44 47
25 24 24 23 22 21 21 20 19 19 18 19 21 21 22 22 22 21 20 19 20 17 15 14 14 13 10 10 9 14 14 18 18 17 18 24 29 32 33 36 36 39 44
19 21 22 21 20 20 19 19 19 19 20 20 20 21 21 21 21 21 21 20 18 17 18 19 19 15 13 12 7 4 3 5 5 7 7 6 9 13 13 19 21 26 28
16 17 18 20 21 21 21 21 21 21 21 21 21 21 21 20 19 20 19 18 18 17 17 15 13 12 11 11 12 10 8 7 6 4 6 8 10 10 9 7 7 9 11
17 18 18 19 19 20 20 20 21 22 20 19 20 20 19 19 19 18 17 15 14 13 12 12 12 12 12 12 10 11 11 11 10 11 12 13 12 12 13 12 12 12 12
17 18 19 18 18 18 18 22 20 19 18 18 18 17 18 18 18 17 17 15 13 12 11 8 8 9 10 12 13 13 12 11 12 13 13 12 11 11 12 12 12 14 18
15 15 16 15 15 14 13 11 18 16 16 16 15 14 13 13 14 14 13 12 11 9 8 7 8 9 9 10 10 10 9 9 10 9 8 9 10 11 12 12 12 13 15
13 15 13 13 12 13 13 12 12 13 17 16 16 16 15 14 13 12 11 10 9 8 7 8 8 8 8 8 8 7 6 6 6 6 6 7 7 7 8 9 9 10 10
14 14 13 13 12 12 12 12 12 13 14 15 16 17 16 15 13 11 10 9 9 8 7 8 8 8 8 7 6 6 6 5 5 6 6 6 7 7 8 9 9 9 11
14 12 13 12 12 13 12 12 12 12 12 13 14 15 14 13 13 12 10 9 9 9 9 8 7 7 7 6 6 6 4 5 5 5 6 6 6 6 7 7 7 9 9
12 13 13 11 12 11 11 11 11 11 12 12 13 14 17 13 13 12 11 9 9 8 7 8 7 7 5 5 5 4 5 5 5 6 6 6 6 6 6 6 6 6 6
11 11 12 10 11 11 11 11 11 11 11 11 11 13 16 12 12 11 10 9 8 7 7 6 6 5 4 4 4 3 2 3 3 4 4 4 5 4 5 5 5 5 5
10 11 11 11 11 11 12 11 11 10 10 10 10 12 15 10 9 9 9 9 8 7 6 5 5 4 4 4 2 1 0 1 2 2 2 2 3 3 3 4 4 4 4
10 11 11 11 11 11 11 11 11 10 10 10 9 10 9 9 8 8 8 9 8 8 7 5 5 4 4 3 3 3 3 3 3 3 2 2 2 2 2 2 3 3 3
11 11 11 11 11 11 11 11 11 11 11 11 10 10 10 9 8 8 9 8 8 8 7 6 6 5 5 5 4 4 4 4 4 3 3 2 1 1 2 2 1 3 2
11 11 11 11 12 12 12 12 12 12 11 11 12 11 10 10 9 9 9 8 10 7 8 7 6 6 5 5 5 5 5 4 4 4 4 4 3 3 3 2 2 1 2
12 12 12 12 12 13 13 13 13 13 13 12 11 10 10 10 10 10 9 9 7 7 8 8 8 7 7 6 6 6 5 5 5 5 4 4 4 3 3 3 3 1 2

GFSGL_850_spd_123.txt.gz
Wind_Speed
29 23 21 20 16 17 17 22 23 20 20 22 15 13 15 19 23 27 31 31 34 35 28 30 37 39 36 36 35 36 36 37 34 39 28 33 34 36 30 31 33 35 38
30 29 27 21 11 16 7 11 11 11 15 17 14 13 11 13 14 20 24 26 29 32 33 38 43 46 39 41 40 38 36 37 31 34 41 39 38 35 35 33 34 35 37
31 28 27 28 26 22 17 13 10 5 5 6 8 16 15 12 14 19 21 22 27 30 33 40 43 41 41 43 42 41 40 40 39 35 42 33 34 35 32 31 32 32 36
27 29 32 33 30 28 22 19 16 13 9 4 5 10 10 11 16 20 21 21 24 27 29 33 37 39 42 42 42 41 41 39 37 31 36 34 34 31 30 30 34 36 39
34 36 40 38 35 31 25 24 22 19 17 13 8 4 2 8 14 18 20 20 25 28 29 32 34 35 36 36 41 40 38 37 37 31 32 33 32 33 32 30 32 36 38
34 37 37 38 35 34 32 30 25 21 20 17 16 14 10 9 9 13 15 18 21 25 29 29 29 31 34 33 35 32 32 35 32 32 34 36 36 35 32 32 32 36 39
35 35 36 36 34 33 28 28 29 27 23 21 20 18 18 15 13 10 11 11 14 16 18 22 25 29 30 31 33 33 33 34 35 34 35 34 36 29 32 33 36 39 42
37 36 32 29 27 26 27 29 29 26 26 25 24 23 21 19 16 14 12 11 11 10 11 13 15 20 24 30 31 34 35 36 37 36 38 40 38 37 35 33 31 38 42
33 31 31 28 27 27 28 27 25 24 25 26 25 24 23 21 20 19 16 14 14 14 14 14 13 13 17 20 23 24 28 29 35 36 35 38 41 41 40 36 37 37 42
29 30 28 27 27 27 26 24 22 22 22 22 22 23 23 23 21 20 20 19 18 16 15 14 14 14 13 12 12 14 18 20 19 24 23 26 34 37 36 38 40 42 44
28 27 26 26 25 24 22 21 20 19 19 20 21 21 23 23 23 22 22 22 21 20 19 18 19 19 17 15 11 8 7 9 13 14 13 15 16 22 26 32 35 37 40
20 21 22 21 24 24 22 20 19 19 20 20 19 20 21 22 23 23 22 21 19 19 19 19 18 18 16 13 12 11 8 6 3 4 5 7 8 8 10 13 16 22 27
18 19 19 20 19 19 21 22 22 21 20 20 20 21 20 19 19 19 19 18 17 17 16 15 13 13 13 13 13 10 8 8 8 8 9 9 9 7 5 4 2 3 9
18 19 18 19 20 19 17 19 20 23 21 20 21 20 20 19 19 19 18 18 16 15 14 14 13 12 12 12 10 11 12 11 11 12 11 10 9 9 9 9 8 7 3
16 17 18 17 18 17 17 21 20 23 23 21 20 18 19 21 21 18 18 18 18 16 15 14 13 12 12 12 12 11 10 9 10 10 9 8 8 7 8 9 11 12 14
16 17 17 17 17 16 15 14 20 23 26 25 22 19 17 18 19 19 16 13 12 13 13 13 14 15 15 15 14 13 10 9 9 9 9 8 8 8 8 8 10 13 16
14 14 13 14 14 14 15 14 15 15 19 24 27 25 20 20 19 16 14 14 19 12 12 13 14 14 13 12 12 12 12 11 10 9 8 8 8 7 6 7 9 10 12
15 15 15 14 15 15 15 15 15 16 17 17 19 24 23 20 21 19 13 11 12 13 12 12 11 11 11 11 10 10 9 8 9 9 9 9 7 6 7 8 7 6 5
13 13 15 13 13 15 15 15 15 16 16 17 17 18 20 16 18 18 17 12 11 10 10 10 10 10 9 9 10 8 10 10 10 8 8 8 8 7 8 7 5 8 7
12 14 15 13 13 14 15 15 15 15 15 16 16 19 26 18 15 15 14 13 11 10 9 9 9 8 8 8 9 7 6 6 6 7 7 6 7 6 6 6 6 5 5
12 12 14 13 13 14 14 15 15 16 15 15 15 21 23 17 13 13 13 13 11 10 10 8 9 9 8 8 6 7 5 5 4 5 4 7 5 6 5 5 6 5 4
12 13 13 14 14 14 15 15 15 15 15 15 15 15 19 15 13 12 12 13 11 10 8 8 7 7 8 7 7 5 5 4 4 4 5 5 4 4 4 3 3 3 4
12 14 14 14 14 15 15 14 15 15 15 16 16 15 15 14 14 12 12 12 10 11 12 8 7 5 7 7 7 6 4 4 3 2 5 5 1 4 2 2 2 1 1
14 14 14 15 15 16 15 16 15 16 17 16 15 15 15 14 14 13 13 13 13 10 12 8 10 12 8 7 7 7 6 6 5 4 2 4 2 2 1 2 3 2 2
16 16 16 16 16 16 17 16 16 16 17 16 16 16 15 15 14 13 12 13 14 12 10 12 11 7 10 9 8 8 8 6 5 4 3 2 3 3 1 1 5 2 2
16 17 18 18 18 18 18 18 17 17 17 17 16 16 15 14 14 14 13 13 12 11 12 10 12 14 9 5 10 8 8 7 5 5 3 2 1 2 2 2 1 2 1

GFSGL_850_spd_126.txt.gz
Wind_Speed
24 27 32 24 9 7 10 17 12 9 14 14 7 9 10 12 14 21 25 30 27 34 32 35 36 31 30 35 36 31 30 30 32 37 35 29 25 31 30 30 31 30 29
40 38 36 34 31 26 20 17 14 20 14 6 4 10 11 11 13 16 21 27 29 31 33 35 32 34 30 26 27 35 30 33 29 40 38 34 36 32 33 36 33 31 32
48 45 39 38 38 31 26 17 11 8 4 10 11 9 10 12 15 17 18 23 24 23 26 28 32 35 35 37 31 32 35 38 38 38 37 36 39 36 35 30 31 34 28
45 46 41 41 38 33 31 29 24 18 13 9 8 1 3 8 12 13 14 15 16 20 23 23 25 29 31 34 34 35 35 38 40 38 39 38 41 36 34 31 33 32 30
46 45 43 35 37 36 37 32 25 23 20 17 11 5 3 4 4 5 9 11 14 17 21 23 25 28 30 31 30 32 34 39 43 36 38 35 30 36 37 35 32 30 30
41 40 37 39 32 33 34 35 30 30 28 22 21 19 16 15 14 9 8 7 9 10 13 17 22 27 29 27 31 33 33 27 29 30 27 32 34 33 32 32 31 31 32
40 42 41 37 32 34 34 33 34 35 30 28 26 25 24 22 20 16 14 12 12 12 12 13 14 17 22 24 28 31 34 34 32 31 31 30 33 35 34 31 32 34 34
44 40 37 34 34 31 30 33 32 30 29 29 29 28 27 26 22 21 18 16 14 14 15 15 16 16 16 17 20 21 21 22 28 33 35 36 37 38 36 34 34 34 33
40 40 35 33 30 27 30 30 29 29 29 29 29 26 25 24 22 21 20 20 19 20 19 18 17 16 17 16 16 15 15 15 19 22 23 31 34 40 41 40 38 38 39
37 35 34 33 32 32 30 29 27 26 25 25 25 26 25 25 24 23 23 21 20 20 19 18 18 20 20 19 17 14 13 13 12 15 15 19 22 22 28 33 35 36 42
25 27 28 31 31 30 27 26 24 24 22 24 24 23 24 25 24 25 23 22 22 21 21 21 22 22 21 20 18 16 15 13 12 12 11 10 11 13 15 16 19 26 28
22 22 24 23 24 24 26 26 26 24 24 24 22 22 22 22 21 20 20 19 17 18 19 19 20 21 20 18 17 16 13 11 10 9 9 8 7 7 7 6 8 9 16
21 23 24 24 25 26 28 29 30 30 29 27 26 25 24 23 22 19 19 19 18 17 17 18 17 16 15 15 14 12 12 13 13 13 13 13 13 11 9 8 7 5 1
22 22 23 24 25 26 28 30 32 33 32 30 30 28 25 24 23 23 23 22 21 20 19 18 15 14 14 14 13 14 14 13 14 13 13 12 10 9 9 9 8 8 5
18 19 20 21 20 19 22 24 27 29 30 30 30 30 28 27 26 23 22 20 19 18 16 16 15 16 17 17 16 15 13 11 12 12 12 11 11 10 9 10 9 9 11
17 18 17 17 18 18 17 16 20 23 26 26 29 31 30 25 23 20 18 17 20 16 15 16 17 17 17 15 13 13 13 12 13 12 11 11 11 11 10 9 8 10 14
17 16 18 14 16 18 18 18 20 17 20 22 25 28 30 28 21 24 15 9 11 13 14 15 12 12 12 13 12 12 13 11 9 11 11 9 9 9 9 8 8 7 9
17 15 19 17 15 18 19 18 18 19 19 20 19 24 28 29 20 21 22 14 10 11 9 13 13 12 11 12 13 11 14 13 10 10 10 9 10 10 5 6 6 8 6
17 17 21 18 16 17 18 18 18 17 19 19 20 23 27 31 15 17 21 20 13 13 11 10 13 13 10 8 9 7 8 6 7 8 8 8 8 8 6 7 9 8 5
14 15 18 17 17 18 18 18 19 18 19 20 20 22 26 28 20 17 19 20 16 12 13 10 12 15 11 8 5 7 6 6 3 3 6 4 6 6 7 5 5 6 6
14 15 16 16 16 17 18 19 17 18 19 20 19 22 23 25 20 19 18 19 19 15 14 11 10 14 15 10 8 5 5 7 4 1 1 6 5 3 3 4 5 3 6
12 16 17 16 17 18 20 18 18 20 19 19 20 20 20 21 20 21 19 21 21 18 18 15 10 12 14 10 11 8 8 8 5 5 3 4 3 1 4 2 2 2 5
13 16 20 17 19 19 21 19 20 21 19 21 22 21 19 18 19 20 20 22 22 22 17 19 17 15 12 9 11 13 10 8 7 1 4 2 2 2 1 3 3 2 2
16 18 21 20 20 22 21 22 22 20 22 22 22 21 20 20 19 19 19 18 20 23 19 17 18 17 18 13 12 12 10 8 5 2 4 5 1 3 3 1 3 2 2
22 20 20 21 23 24 25 24 23 24 23 23 23 22 21 20 19 19 18 19 22 22 18 17 17 18 21 19 11 12 12 9 5 2 2 4 2 1 4 5 2 3 2
19 20 22 24 25 25 26 27 27 24 26 26 24 24 21 19 19 19 19 19 19 19 20 16 13 18 19 17 15 16 14 10 5 4 5 4 6 5 4 2 6 3 3

GFSGL_850_spd_129.txt.gz
Wind_Speed
29 23 20 16 19 21 11 7 11 5 10 23 20 35 33 32 35 32 27 22 20 24 26 28 31 31 26 26 25 35 33 29 36 35 33 28 31 27 27 28 27 25 26
28 30 26 30 35 29 19 20 25 21 21 8 12 20 17 21 28 25 22 15 24 27 25 28 27 27 31 33 32 30 30 29 36 39 39 34 31 28 26 28 32 29 30
37 35 31 45 41 40 38 32 20 10 14 23 3 7 8 9 12 12 16 16 15 15 16 13 19 17 21 25 29 31 33 31 27 34 41 40 36 29 31 30 36 35 32
40 44 53 53 48 45 46 42 38 30 28 19 15 10 10 13 14 9 6 4 5 8 11 14 13 18 19 22 23 27 26 30 36 34 37 36 37 34 36 34 40 38 32
44 48 48 49 50 49 45 45 40 40 36 33 29 25 15 13 12 10 6 1 1 2 4 6 9 14 18 25 30 29 36 36 31 33 38 31 31 41 35 37 39 36 37
44 45 44 45 46 48 46 44 42 39 35 33 34 32 30 28 22 17 13 10 9 6 4 5 7 10 12 17 23 27 28 27 29 31 30 34 45 40 41 34 32 31 33
44 41 41 41 42 44 45 41 39 37 34 36 37 36 35 32 28 25 20 17 15 15 13 11 9 9 11 12 14 15 19 24 29 32 30 28 18 22 28 31 34 37 38
41 42 41 41 42 41 39 39 36 34 34 35 34 33 30 31 27 26 24 22 20 19 18 17 16 15 12 9 11 11 12 14 15 17 20 18 25 24 21 26 32 33 37
37 39 39 39 39 38 38 37 34 30 32 33 31 29 28 28 26 23 21 20 20 20 20 19 19 18 17 16 15 13 12 11 12 13 15 17 20 22 24 29 31 34 35
30 31 33 35 36 36 35 33 29 30 29 27 26 27 26 26 25 23 21 19 18 19 18 18 19 20 20 18 17 17 15 15 13 11 11 12 14 15 16 18 20 25 29
24 24 29 33 33 31 29 28 27 25 23 23 24 25 24 24 23 22 21 20 21 19 19 18 19 19 20 20 19 18 17 16 15 13 12 11 11 11 10 9 12 14 17
19 24 25 26 28 27 26 25 23 22 23 23 23 23 23 22 20 19 17 17 16 18 19 19 18 17 16 17 16 16 14 13 12 11 11 11 11 11 11 10 8 9 11
20 22 22 21 22 24 26 28 30 28 26 27 26 24 23 21 18 16 16 17 17 17 16 16 14 15 14 14 14 13 12 12 11 12 13 14 14 13 13 10 9 9 8
18 18 19 20 19 19 22 24 26 28 28 28 28 29 28 23 21 20 18 17 17 15 15 15 13 12 13 13 11 12 13 13 13 13 13 12 10 9 10 10 9 6 7
19 19 18 19 20 20 21 22 23 24 25 26 28 29 30 30 26 22 18 17 16 14 12 15 15 14 13 13 13 13 12 11 10 11 10 9 9 9 8 9 9 8 8
19 22 19 17 18 20 20 19 20 21 20 21 23 25 26 27 24 21 17 11 12 13 15 15 14 14 14 15 15 14 12 10 10 10 10 9 9 9 7 6 6 6 7
19 22 22 19 19 20 21 21 20 17 17 19 20 21 26 27 24 20 20 18 14 13 12 13 14 15 14 13 11 11 12 10 8 8 9 8 8 8 7 7 5 3 4
16 18 21 17 17 18 19 18 18 19 18 17 19 22 24 26 22 16 20 22 19 14 12 12 16 16 15 14 11 9 9 7 7 7 6 6 7 8 7 5 5 4 3
14 16 18 15 15 16 17 19 19 16 15 16 18 19 22 25 26 25 23 24 24 21 16 15 14 18 17 16 13 11 10 9 8 7 6 5 6 7 6 4 3 3 5
15 16 18 18 17 18 21 23 19 18 19 20 19 21 23 24 26 25 24 27 24 26 22 19 16 18 19 20 16 14 13 12 9 7 5 3 5 6 5 4 2 3 5
18 17 19 21 18 20 22 22 22 21 23 21 21 23 23 22 22 22 24 25 26 27 25 27 22 19 20 20 17 14 13 13 11 8 5 3 2 4 4 4 3 2 3
20 20 19 21 20 20 21 23 21 23 21 21 23 23 21 20 21 21 22 23 25 24 24 28 26 22 20 20 20 18 17 14 10 6 4 4 2 2 3 4 4 3 2
22 23 22 19 20 20 22 23 24 23 22 23 24 24 23 21 21 21 22 22 21 20 25 27 24 23 19 18 18 16 14 12 10 6 6 4 4 1 4 6 6 5 4
24 27 24 18 19 22 23 24 25 25 26 26 24 25 25 24 22 21 20 20 20 23 24 24 25 25 19 21 20 14 13 12 9 7 6 6 6 5 4 5 5 3 2
23 17 17 19 21 22 19 20 23 23 19 19 23 25 27 26 23 20 20 19 22 23 21 22 24 20 20 23 23 15 15 13 9 6 7 7 7 5 6 7 6 4 2
17 15 15 14 14 19 21 19 19 22 22 20 20 21 22 23 26 21 21 21 20 19 20 22 21 20 22 24 19 18 19 15 9 5 7 8 8 7 7 5 4 3 2